[[{"header":{"parameterUnit":"m.s-1","parameterCategory":1,"la1":30.6,"la2":29.2853,"lo1":-89.7004,"lo2":-87.6739,"dx":0.0162,"dy":0.0183,"nx":112,"ny":82,"refTime":"2022-11-12T06:00:00:Z","depth":0,"parameterNumber":2,"parameterNumberName":"U-component_of_WINDS"},"data":[0.0,0.0,0.0,0.0,0.0,0.0,0.0,0.0,0.0,0.0,0.0,0.0,0.0,0.0,0.0,0.0,0.0,0.0,0.0,0.0,0.0,0.0,0.0,0.0,0.0,0.0,0.0,0.0,0.0,0.0,0.0,0.0,0.0,0.0,0.0,0.0,0.0,0.0,0.0,0.0,0.0,0.0,0.0,0.0,0.0,0.0,0.0,0.0,0.0,0.0,0.0,0.0,0.0,0.0,0.0,0.0,0.0,0.0,0.0,0.0,0.0,0.0,0.0,0.0,0.0,0.0,0.0,0.0,0.0,0.0,0.0,0.0,0.0,0.0,0.0,0.0,0.0,0.0,0.0,0.0,0.0,0.0,0.0,0.0,0.0,0.0,0.0,0.0,0.0,0.0,0.0,5.7103,6.4096,6.8455,6.8509,6.544,6.0842,5.4459,0.0,0.0,0.0,0.0,0.0,0.0,0.0,0.0,0.0,0.0,0.0,0.0,0.0,0.0,0.0,0.0,0.0,0.0,0.0,0.0,0.0,0.0,0.0,0.0,0.0,0.0,0.0,0.0,0.0,0.0,0.0,0.0,0.0,0.0,0.0,0.0,0.0,0.0,0.0,0.0,0.0,0.0,0.0,0.0,0.0,0.0,0.0,0.0,0.0,0.0,0.0,0.0,0.0,0.0,0.0,0.0,0.0,0.0,0.0,0.0,0.0,0.0,0.0,0.0,0.0,0.0,0.0,0.0,0.0,0.0,0.0,0.0,0.0,0.0,0.0,0.0,0.0,0.0,0.0,0.0,0.0,0.0,0.0,0.0,0.0,0.0,0.0,0.0,0.0,0.0,0.0,0.0,0.0,0.0,0.0,0.0,0.0,0.0,0.0,0.0,0.0,0.0,0.0,0.0,5.5053,6.3143,6.6255,6.8097,6.8989,6.5482,6.1356,5.6852,0.0,0.0,0.0,0.0,0.0,0.0,0.0,0.0,0.0,0.0,0.0,0.0,0.0,0.0,0.0,0.0,0.0,0.0,0.0,0.0,0.0,0.0,0.0,0.0,0.0,0.0,0.0,0.0,0.0,0.0,0.0,0.0,0.0,0.0,0.0,0.0,0.0,0.0,0.0,0.0,0.0,0.0,0.0,0.0,0.0,0.0,0.0,0.0,0.0,0.0,0.0,0.0,0.0,0.0,0.0,0.0,0.0,0.0,0.0,0.0,0.0,0.0,0.0,0.0,0.0,0.0,0.0,0.0,0.0,0.0,0.0,0.0,0.0,0.0,0.0,0.0,0.0,0.0,0.0,0.0,0.0,0.0,0.0,0.0,0.0,0.0,0.0,0.0,0.0,0.0,0.0,0.0,0.0,0.0,0.0,0.0,0.0,0.0,0.0,0.0,0.0,0.0,0.0,5.4414,5.9492,6.5213,6.7586,6.874,6.8707,6.5541,6.1437,5.6447,5.0788,0.0,0.0,0.0,0.0,0.0,0.0,0.0,0.0,0.0,0.0,0.0,0.0,0.0,0.0,0.0,0.0,0.0,0.0,0.0,0.0,0.0,0.0,0.0,0.0,0.0,0.0,0.0,0.0,0.0,0.0,0.0,0.0,0.0,0.0,0.0,0.0,0.0,0.0,0.0,0.0,0.0,0.0,0.0,0.0,0.0,0.0,0.0,0.0,0.0,0.0,0.0,0.0,0.0,0.0,0.0,0.0,0.0,0.0,0.0,0.0,0.0,0.0,0.0,0.0,0.0,0.0,0.0,0.0,0.0,0.0,0.0,0.0,0.0,0.0,0.0,0.0,0.0,0.0,0.0,0.0,0.0,0.0,0.0,0.0,0.0,0.0,0.0,0.0,0.0,0.0,0.0,0.0,0.0,0.0,0.0,0.0,0.0,0.0,0.0,0.0,0.0,0.0,5.8995,6.2987,6.6344,6.8061,6.871,6.8018,6.5104,6.099,5.5642,5.1153,0.0,0.0,0.0,0.0,0.0,0.0,0.0,0.0,0.0,0.0,0.0,0.0,0.0,0.0,0.0,0.0,0.0,0.0,0.0,0.0,0.0,0.0,0.0,0.0,0.0,0.0,0.0,0.0,0.0,0.0,0.0,0.0,0.0,0.0,0.0,0.0,0.0,0.0,0.0,0.0,0.0,0.0,0.0,0.0,0.0,0.0,0.0,0.0,0.0,0.0,0.0,0.0,0.0,0.0,0.0,0.0,0.0,0.0,0.0,0.0,0.0,0.0,0.0,0.0,0.0,0.0,0.0,0.0,0.0,0.0,0.0,0.0,0.0,0.0,0.0,0.0,0.0,0.0,0.0,0.0,0.0,0.0,0.0,0.0,0.0,0.0,0.0,0.0,0.0,0.0,0.0,0.0,0.0,0.0,0.0,0.0,0.0,0.0,0.0,0.0,0.0,0.0,6.001,6.3821,6.7753,6.7405,6.692,6.7,6.3594,5.9694,5.5553,5.115,0.0,0.0,0.0,0.0,0.0,0.0,0.0,0.0,0.0,0.0,0.0,0.0,0.0,0.0,0.0,0.0,0.0,0.0,0.0,0.0,0.0,0.0,0.0,0.0,0.0,0.0,0.0,0.0,0.0,0.0,0.0,0.0,0.0,0.0,0.0,0.0,0.0,0.0,0.0,0.0,0.0,0.0,0.0,0.0,0.0,0.0,0.0,0.0,0.0,0.0,0.0,0.0,0.0,0.0,0.0,0.0,0.0,0.0,0.0,0.0,0.0,0.0,0.0,0.0,0.0,0.0,0.0,0.0,0.0,0.0,0.0,0.0,0.0,0.0,0.0,0.0,0.0,0.0,0.0,0.0,0.0,0.0,0.0,0.0,0.0,0.0,0.0,0.0,0.0,0.0,0.0,0.0,0.0,0.0,0.0,0.0,0.0,0.0,0.0,0.0,0.0,0.0,6.1517,6.4712,0.0,6.7341,6.6712,6.5269,6.2677,5.8994,5.3993,0.0,0.0,0.0,0.0,0.0,0.0,0.0,0.0,0.0,0.0,0.0,0.0,0.0,0.0,0.0,0.0,0.0,0.0,0.0,0.0,0.0,0.0,0.0,0.0,0.0,0.0,0.0,0.0,0.0,0.0,0.0,0.0,0.0,0.0,0.0,0.0,0.0,0.0,0.0,0.0,0.0,0.0,0.0,0.0,0.0,0.0,0.0,0.0,0.0,0.0,0.0,0.0,0.0,0.0,0.0,0.0,0.0,0.0,0.0,0.0,0.0,0.0,0.0,0.0,0.0,0.0,0.0,0.0,0.0,0.0,0.0,0.0,0.0,0.0,0.0,0.0,0.0,0.0,0.0,0.0,0.0,0.0,0.0,0.0,0.0,0.0,0.0,0.0,0.0,0.0,0.0,0.0,0.0,0.0,0.0,0.0,0.0,0.0,0.0,0.0,0.0,0.0,5.8972,6.2785,6.5611,0.0,6.745,6.6716,6.4329,6.2185,5.8681,5.3369,0.0,0.0,0.0,0.0,0.0,0.0,0.0,0.0,0.0,0.0,0.0,0.0,0.0,0.0,0.0,0.0,0.0,0.0,0.0,0.0,0.0,0.0,0.0,0.0,0.0,0.0,0.0,0.0,0.0,0.0,0.0,0.0,0.0,0.0,0.0,0.0,0.0,0.0,0.0,0.0,0.0,0.0,0.0,0.0,0.0,0.0,0.0,0.0,0.0,0.0,0.0,0.0,0.0,0.0,0.0,0.0,0.0,0.0,0.0,0.0,0.0,0.0,0.0,0.0,0.0,0.0,0.0,0.0,0.0,0.0,0.0,0.0,0.0,0.0,0.0,0.0,0.0,0.0,0.0,0.0,0.0,0.0,0.0,0.0,0.0,0.0,0.0,0.0,0.0,0.0,0.0,0.0,0.0,0.0,0.0,0.0,0.0,0.0,0.0,0.0,0.0,0.0,5.9745,6.3642,6.65,6.7804,6.7824,6.6753,6.4329,6.2181,5.8916,0.0,0.0,0.0,0.0,0.0,0.0,0.0,0.0,0.0,0.0,0.0,0.0,0.0,0.0,0.0,0.0,0.0,0.0,0.0,0.0,0.0,0.0,0.0,0.0,0.0,0.0,0.0,0.0,0.0,0.0,0.0,0.0,0.0,0.0,0.0,0.0,0.0,0.0,0.0,0.0,0.0,0.0,0.0,0.0,0.0,0.0,0.0,0.0,0.0,0.0,0.0,0.0,0.0,0.0,0.0,0.0,0.0,0.0,0.0,0.0,0.0,0.0,0.0,0.0,0.0,0.0,0.0,0.0,0.0,0.0,0.0,0.0,0.0,0.0,0.0,0.0,0.0,0.0,0.0,0.0,0.0,0.0,0.0,0.0,0.0,0.0,0.0,0.0,0.0,0.0,0.0,0.0,0.0,0.0,0.0,0.0,0.0,0.0,0.0,0.0,0.0,0.0,0.0,6.1294,6.4708,6.7407,6.9265,6.941,6.8424,6.6,6.4351,6.1132,5.5757,0.0,0.0,0.0,0.0,0.0,0.0,0.0,0.0,0.0,0.0,0.0,0.0,0.0,0.0,0.0,0.0,0.0,0.0,0.0,0.0,0.0,0.0,0.0,0.0,0.0,0.0,0.0,0.0,0.0,0.0,0.0,0.0,0.0,0.0,0.0,0.0,0.0,0.0,0.0,0.0,0.0,0.0,0.0,0.0,0.0,0.0,0.0,0.0,0.0,0.0,0.0,0.0,0.0,0.0,0.0,0.0,0.0,0.0,0.0,0.0,0.0,0.0,0.0,0.0,0.0,0.0,0.0,0.0,0.0,0.0,0.0,0.0,0.0,0.0,0.0,0.0,0.0,0.0,0.0,0.0,0.0,0.0,0.0,0.0,0.0,0.0,0.0,0.0,0.0,0.0,0.0,0.0,0.0,0.0,0.0,0.0,0.0,0.0,0.0,0.0,0.0,0.0,6.238,6.6175,6.8902,6.9975,7.066,7.0089,6.765,6.614,6.324,5.8349,0.0,0.0,0.0,0.0,0.0,0.0,0.0,0.0,0.0,0.0,0.0,0.0,0.0,0.0,0.0,0.0,0.0,0.0,0.0,0.0,0.0,0.0,0.0,0.0,0.0,0.0,0.0,0.0,0.0,0.0,0.0,0.0,0.0,0.0,0.0,0.0,0.0,0.0,0.0,0.0,0.0,0.0,0.0,0.0,0.0,0.0,0.0,0.0,0.0,0.0,0.0,0.0,0.0,0.0,0.0,0.0,0.0,0.0,0.0,0.0,0.0,0.0,0.0,0.0,0.0,0.0,0.0,0.0,0.0,0.0,0.0,0.0,0.0,0.0,0.0,0.0,0.0,0.0,0.0,0.0,0.0,0.0,0.0,0.0,0.0,0.0,0.0,0.0,0.0,0.0,0.0,0.0,0.0,0.0,0.0,0.0,0.0,0.0,0.0,0.0,0.0,0.0,6.3252,6.7809,7.0642,7.0555,7.1835,7.1791,6.9442,6.7904,6.5409,6.1564,0.0,0.0,0.0,0.0,0.0,0.0,0.0,0.0,0.0,0.0,0.0,0.0,0.0,0.0,0.0,0.0,0.0,0.0,0.0,0.0,0.0,0.0,0.0,0.0,0.0,0.0,0.0,0.0,0.0,0.0,0.0,0.0,0.0,0.0,0.0,0.0,0.0,0.0,0.0,0.0,0.0,0.0,0.0,0.0,0.0,0.0,0.0,0.0,0.0,0.0,0.0,0.0,0.0,0.0,0.0,0.0,0.0,0.0,0.0,0.0,5.6176,0.0,0.0,0.0,0.0,0.0,0.0,0.0,0.0,0.0,0.0,0.0,0.0,0.0,0.0,0.0,0.0,0.0,0.0,0.0,0.0,0.0,0.0,0.0,0.0,0.0,0.0,0.0,0.0,0.0,0.0,0.0,0.0,0.0,0.0,0.0,0.0,0.0,0.0,0.0,0.0,0.0,6.4793,6.833,7.1266,7.3648,7.4177,7.3663,7.1865,7.0963,6.8733,6.4684,6.1601,0.0,0.0,0.0,0.0,0.0,0.0,0.0,0.0,0.0,0.0,0.0,0.0,0.0,0.0,0.0,0.0,0.0,0.0,0.0,0.0,0.0,0.0,0.0,0.0,0.0,0.0,0.0,0.0,0.0,0.0,0.0,0.0,0.0,0.0,0.0,0.0,0.0,0.0,0.0,0.0,0.0,0.0,0.0,0.0,0.0,0.0,0.0,0.0,0.0,0.0,0.0,0.0,0.0,0.0,0.0,0.0,0.0,0.0,0.0,0.0,5.8504,0.0,0.0,0.0,0.0,0.0,0.0,0.0,0.0,0.0,0.0,0.0,0.0,0.0,0.0,0.0,0.0,0.0,0.0,0.0,0.0,0.0,0.0,0.0,0.0,0.0,0.0,0.0,0.0,0.0,0.0,0.0,0.0,0.0,0.0,0.0,0.0,0.0,0.0,0.0,0.0,6.6297,7.0223,7.319,7.4742,7.5601,7.5417,7.3773,7.2627,7.0779,6.7934,6.5147,0.0,0.0,0.0,0.0,0.0,0.0,0.0,0.0,0.0,0.0,0.0,0.0,0.0,0.0,0.0,0.0,0.0,0.0,0.0,0.0,0.0,0.0,0.0,0.0,0.0,0.0,0.0,0.0,0.0,0.0,0.0,0.0,0.0,0.0,0.0,0.0,0.0,0.0,0.0,0.0,0.0,0.0,0.0,0.0,0.0,0.0,0.0,0.0,0.0,0.0,0.0,0.0,0.0,6.5919,6.6723,6.6877,6.6865,6.6859,6.6711,6.3992,6.2495,6.1971,6.2057,0.0,0.0,0.0,0.0,0.0,0.0,0.0,0.0,0.0,0.0,0.0,0.0,0.0,0.0,0.0,0.0,0.0,0.0,0.0,0.0,0.0,0.0,0.0,0.0,6.0598,5.93,5.6624,0.0,0.0,0.0,0.0,0.0,0.0,0.0,0.0,0.0,0.0,0.0,6.8018,7.2509,7.5404,7.5733,7.6812,7.6922,7.5454,7.3957,7.2502,7.099,6.8832,6.56,0.0,0.0,0.0,0.0,0.0,0.0,0.0,0.0,0.0,0.0,0.0,0.0,0.0,0.0,0.0,0.0,0.0,0.0,0.0,0.0,0.0,0.0,0.0,0.0,0.0,0.0,0.0,0.0,0.0,0.0,0.0,0.0,4.9761,5.2307,0.0,0.0,0.0,0.0,0.0,0.0,0.0,0.0,0.0,0.0,0.0,0.0,0.0,6.3604,6.5178,6.625,6.7206,6.7921,6.8878,6.9666,7.0356,7.0298,7.0229,7.0236,6.9849,0.0,6.5371,6.5388,0.0,0.0,0.0,0.0,0.0,0.0,0.0,0.0,0.0,0.0,0.0,0.0,0.0,0.0,0.0,0.0,0.0,0.0,0.0,0.0,0.0,0.0,6.5545,6.604,6.5511,6.5141,0.0,6.1906,5.7757,5.7051,5.6818,0.0,0.0,0.0,0.0,0.0,0.0,0.0,7.041,7.3926,7.6776,7.8935,7.8699,7.8031,7.7069,7.6159,7.4962,7.3332,7.2298,7.0192,6.6746,6.3609,0.0,0.0,0.0,0.0,0.0,0.0,0.0,0.0,0.0,0.0,0.0,0.0,0.0,0.0,0.0,0.0,0.0,0.0,0.0,0.0,0.0,0.0,0.0,0.0,0.0,0.0,0.0,0.0,0.0,5.153,5.3075,5.5119,5.5807,5.6578,0.0,0.0,0.0,0.0,0.0,0.0,0.0,0.0,0.0,6.5583,6.6117,6.6948,6.8114,6.9457,7.0285,7.0635,7.1491,7.2055,7.2401,7.2371,7.2357,7.2357,7.2391,7.1571,7.0138,6.9247,6.8868,6.8897,0.0,0.0,0.0,0.0,6.9156,6.9178,6.9236,6.928,6.9258,6.9258,0.0,0.0,0.0,0.0,0.0,0.0,0.0,6.9705,0.0,0.0,7.0158,7.0245,6.9915,6.9761,7.0454,6.8785,6.6476,0.0,6.287,6.1845,6.0606,0.0,0.0,0.0,0.0,6.7797,7.2155,7.5543,7.7928,7.9001,7.9221,7.8736,7.7391,7.6562,7.5799,7.5102,7.4294,7.2819,7.0477,6.7794,6.3929,0.0,0.0,0.0,0.0,0.0,0.0,0.0,0.0,0.0,0.0,0.0,0.0,0.0,0.0,0.0,0.0,0.0,0.0,0.0,0.0,0.0,0.0,0.0,0.0,0.0,0.0,0.0,0.0,5.5049,5.6167,5.8096,5.886,5.9665,0.0,0.0,0.0,0.0,0.0,0.0,6.5685,6.6498,6.7423,6.8502,6.919,6.9939,7.0741,7.2201,7.2982,7.3171,7.4049,7.4588,7.478,7.478,7.478,7.478,7.478,7.478,7.4633,7.2574,7.1702,7.1759,7.1759,7.1769,7.1794,7.1897,7.1893,7.1943,7.2261,7.2365,7.2403,7.2633,7.2654,7.2541,7.2527,0.0,0.0,0.0,0.0,7.3262,7.3848,7.4082,7.4155,7.4043,7.3852,7.3773,7.3993,7.4515,7.3779,0.0,6.8276,6.7105,6.5564,0.0,0.0,0.0,0.0,7.031,7.3868,7.6827,7.8662,7.889,7.9258,7.8993,7.7729,7.6893,7.6416,7.6416,7.5865,7.4867,7.3487,7.1362,6.8131,6.3707,0.0,0.0,0.0,0.0,0.0,0.0,0.0,0.0,0.0,0.0,0.0,0.0,0.0,0.0,0.0,0.0,0.0,0.0,0.0,0.0,0.0,0.0,0.0,0.0,0.0,0.0,0.0,0.0,0.0,6.1556,6.1867,0.0,0.0,0.0,0.0,6.5634,6.6445,6.7289,6.817,6.9058,7.0254,7.1912,7.1989,7.2447,7.3322,7.4168,7.4976,7.5822,7.6672,7.7519,7.8253,7.8253,7.8253,7.8253,7.8253,7.8253,7.7984,7.471,7.3409,7.3477,7.3477,7.3517,7.3572,7.3578,7.3581,7.3697,7.4475,7.4745,7.4861,7.57,7.5964,7.5944,7.5883,7.5711,0.0,0.0,7.6165,7.6133,7.7265,7.7182,7.6947,7.7435,7.7303,7.7289,7.8112,7.8332,7.6945,0.0,7.1717,7.1173,6.8051,0.0,6.8582,6.8641,7.0734,7.3156,7.5652,7.7524,7.889,7.9669,7.9074,7.8626,7.8552,7.7737,7.7252,7.7252,7.7208,7.6812,7.5946,7.4338,7.1915,6.8605,6.4651,0.0,0.0,0.0,0.0,0.0,0.0,0.0,0.0,0.0,0.0,0.0,0.0,0.0,0.0,0.0,0.0,0.0,0.0,0.0,0.0,0.0,0.0,0.0,0.0,0.0,0.0,0.0,0.0,6.3515,6.4673,0.0,6.617,6.7205,6.8013,6.8321,6.9594,7.0517,7.0821,7.1664,7.2664,7.378,7.4361,7.5053,7.5938,7.6749,7.7288,7.7596,7.7903,7.8215,7.8484,7.8484,7.8484,7.8484,7.8484,7.8484,7.8407,7.7211,7.6725,7.6751,7.6751,7.6769,7.6794,7.684,7.6854,7.6899,7.722,7.7349,7.7381,7.7677,7.7737,7.7722,7.7654,7.752,7.7533,7.8157,7.8401,7.863,7.927,7.9405,7.9387,7.9335,7.9123,7.8993,7.9294,7.9764,7.947,7.7202,7.657,7.5726,7.3487,7.2459,7.1798,7.1277,7.1938,7.3377,7.5799,7.7076,7.8104,7.8927,7.8772,7.8369,7.7803,7.7472,7.7069,7.6562,7.6526,7.6159,7.5351,7.4294,7.2679,7.0499,6.7544,6.3743,0.0,0.0,0.0,0.0,0.0,0.0,0.0,0.0,0.0,0.0,0.0,0.0,0.0,0.0,0.0,0.0,0.0,0.0,0.0,0.0,0.0,0.0,0.0,0.0,0.0,0.0,6.4894,6.5779,6.7128,6.8093,6.8363,6.9706,7.0667,7.0972,7.2014,7.2902,7.3441,7.4014,7.4857,7.5938,7.6553,7.7134,7.7711,7.8827,7.9365,7.9365,7.9946,8.0215,8.0215,8.0215,8.0215,8.0215,8.0215,8.0215,8.0215,8.0215,8.0215,8.01,7.8946,7.8484,7.8526,7.8536,7.8744,7.9094,7.9688,8.0091,8.0354,8.0302,8.0284,8.0276,8.0231,8.0093,8.0064,8.0404,8.0576,8.0717,8.1075,8.1123,8.1087,8.1036,8.0824,8.0624,8.0624,8.1012,8.1158,8.0359,7.9551,7.8479,7.6783,7.5395,7.4155,7.3083,7.2899,7.3487,7.5065,7.5975,7.6812,7.7671,7.8002,7.781,7.6959,7.6885,7.6452,7.5359,7.5285,7.4918,7.414,7.3597,7.2789,7.1718,6.9089,6.5271,6.0376,0.0,0.0,0.0,0.0,0.0,0.0,0.0,0.0,0.0,0.0,0.0,0.0,0.0,0.0,0.0,0.0,0.0,0.0,0.0,0.0,0.0,0.0,0.0,6.5977,6.6673,6.7552,6.843,6.9279,7.0129,7.0898,7.1787,7.2671,7.3507,7.3623,7.4357,7.5976,7.6092,7.6861,7.8523,7.86,7.86,7.8677,8.0327,8.117,8.1208,8.2828,8.3601,8.3601,8.3601,8.3601,8.3601,8.3601,8.3601,8.3601,8.3601,8.3601,8.3255,7.9946,7.8677,7.8677,7.8677,7.9173,8.0165,8.1785,8.2905,8.3601,8.3601,8.3601,8.3601,8.364,8.3512,8.3283,8.3133,8.2766,8.2449,8.2743,8.2393,8.2082,8.2544,8.2399,8.2158,8.2121,8.2121,8.1893,8.1122,8.0314,7.9258,7.7582,7.6636,7.5542,7.3935,7.3678,0.0,7.3714,7.4404,7.5204,7.6019,7.6812,7.6995,7.6203,7.613,7.5432,7.3824,7.3714,7.334,7.2488,7.2452,7.2459,7.2422,6.9346,6.5381,6.0597,0.0,0.0,0.0,0.0,0.0,0.0,0.0,0.0,0.0,0.0,0.0,0.0,0.0,0.0,0.0,0.0,0.0,0.0,0.0,0.0,0.0,0.0,6.909,6.7894,6.8936,7.0171,7.1052,7.1933,7.2549,7.278,7.4091,7.5053,7.528,7.6438,7.7326,7.7788,7.7826,7.8596,8.0327,8.0404,8.0981,8.2178,8.2678,8.2905,8.2905,8.337,8.3601,8.3601,8.3601,8.3601,8.3601,8.3601,8.3601,8.3601,8.3601,8.3601,8.3524,8.2562,8.2216,8.2216,8.2216,8.2366,8.2635,8.3097,8.3409,8.3601,8.3601,8.3601,8.3712,8.4362,8.4387,8.4327,8.4825,8.4637,8.4203,8.3879,8.3386,8.2711,8.1998,8.156,8.1158,8.0579,8.0469,8.0396,8.0175,7.9478,7.8589,7.7509,7.6636,7.5542,7.3935,7.32,0.0,7.3604,7.4404,7.5204,7.6019,7.6812,7.7215,7.6995,7.6452,7.5645,7.4617,7.4001,7.3083,7.1674,7.1637,7.1351,7.077,6.9302,6.732,0.0,0.0,0.0,0.0,0.0,0.0,0.0,0.0,0.0,0.0,0.0,0.0,0.0,0.0,0.0,0.0,0.0,0.0,0.0,0.0,0.0,0.0,7.0248,7.136,7.1087,7.1587,7.2164,7.2668,7.3818,7.4549,7.4549,7.6053,7.7057,7.7057,7.7946,7.883,7.9558,7.9596,8.0366,8.2097,8.2135,8.2597,8.3601,8.3943,8.4328,8.4636,8.502,8.5367,8.5756,8.5756,8.5756,8.5756,8.5756,8.5756,8.5756,8.5756,8.5756,8.5602,0.0,0.0,0.0,0.0,8.4636,8.4751,8.5482,8.5756,8.5756,8.5756,8.5756,8.5828,8.6324,8.6346,8.6286,8.6657,8.6395,8.5859,8.5027,8.4372,8.354,8.197,8.133,8.0835,7.9971,7.9816,7.9706,7.9368,7.8927,0.0,7.7003,7.6416,7.5652,7.4404,7.3523,7.3164,7.3641,7.4404,7.5204,7.6019,7.6812,7.7179,7.6812,7.6379,0.0,0.0,0.0,7.312,7.1857,7.2121,0.0,0.0,0.0,7.0617,6.9009,6.8752,0.0,0.0,6.2603,6.2412,0.0,0.0,0.0,0.0,0.0,0.0,0.0,0.0,0.0,0.0,0.0,0.0,0.0,0.0,0.0,0.0,7.194,7.3053,7.4626,7.4318,7.393,7.393,7.5322,7.6284,7.6284,7.7711,7.8677,7.8788,7.8869,7.9635,8.1285,0.0,0.0,0.0,0.0,8.3947,8.4024,8.4901,8.5705,8.6397,8.7171,8.7944,8.8718,8.8718,8.8718,8.8718,8.8718,8.8718,8.8718,8.8718,8.8718,8.841,8.5371,8.4178,8.4366,8.5824,8.6397,8.6594,8.8175,0.0,0.0,8.8718,8.8752,8.8868,8.8945,8.8886,8.8787,8.8548,8.8171,8.7493,8.6095,8.5277,8.4271,8.2074,8.1322,8.0769,7.973,7.9596,7.9449,7.8736,7.867,7.8259,7.6754,7.635,7.5939,7.5168,7.4515,7.4118,7.4118,7.4808,7.5608,7.6313,7.7113,0.0,7.657,7.6423,7.5763,7.4338,7.4081,7.3641,7.2929,7.3597,7.3634,7.2936,7.4397,7.4463,7.3039,7.4463,7.4837,7.4118,6.8928,6.691,0.0,0.0,0.0,0.0,0.0,0.0,0.0,0.0,0.0,0.0,0.0,0.0,0.0,0.0,0.0,7.2857,7.3665,7.4591,7.5592,7.6207,7.6557,7.6557,7.7403,7.8023,7.8023,7.8938,7.9819,8.0554,8.1212,8.202,8.3062,8.3139,8.3597,8.4628,8.5282,8.594,8.6675,8.7521,8.8021,8.8214,8.8367,0.0,8.8718,8.8718,8.8718,8.8718,8.8718,8.8718,8.8718,8.8718,8.8718,8.8641,8.7987,8.7713,8.7756,8.806,8.8214,8.8252,8.8564,8.8718,8.8718,8.8718,8.9133,8.9782,9.0517,9.1037,0.0,9.0556,9.0048,8.907,8.6461,8.5352,8.4255,8.1399,8.048,7.9783,7.8135,7.8332,7.878,7.8626,7.9111,7.9441,7.9147,7.7957,7.6775,7.5975,7.6306,7.6592,7.6592,7.7333,7.7928,7.8112,7.8854,7.9258,7.9119,7.8487,7.7965,7.7671,7.6387,7.5579,7.5395,7.5542,7.5542,7.5395,7.6335,7.6694,7.6371,7.6694,7.7113,7.7598,7.5139,7.4074,0.0,0.0,0.0,0.0,0.0,0.0,0.0,0.0,0.0,0.0,0.0,7.1206,0.0,0.0,7.3745,7.4626,7.5438,7.6284,7.7134,7.8019,7.8404,7.7946,7.8634,7.9323,7.975,8.0554,8.14,8.2289,8.2712,8.352,8.4786,8.4863,8.544,8.6748,8.7171,8.7598,8.806,8.8483,8.8906,8.9325,8.9748,9.0171,9.0637,9.1022,9.1214,9.1214,9.1214,9.1214,9.1214,9.1214,9.1214,9.1214,9.1214,9.0406,8.9402,9.0291,9.0599,9.0676,9.106,9.1214,9.1214,9.1214,9.1479,9.1864,9.2326,9.2649,9.2752,9.2277,9.1568,9.0412,8.8342,8.6787,8.5088,8.2465,8.1281,8.0341,7.8864,7.8883,7.9184,7.9184,7.9515,7.9816,7.9816,7.9433,7.8875,7.8083,7.8295,7.8552,7.8552,7.8919,7.9184,7.9184,7.9559,7.9816,7.9816,7.9441,7.9184,7.9184,7.8413,7.7936,7.7936,7.7936,7.7936,7.7936,7.8728,7.9161,7.9161,7.9572,7.9984,8.0396,7.9543,7.8699,0.0,0.0,0.0,0.0,0.0,0.0,0.0,6.894,7.0202,7.1206,7.2094,7.2941,7.3818,7.4665,7.5476,7.6361,7.7057,7.7826,7.8634,7.9515,7.9862,7.9288,7.9862,8.0627,8.1516,8.217,8.2982,8.402,8.4097,8.4828,8.6517,8.6594,8.7248,8.8679,8.8868,8.9021,8.9175,8.9329,8.9825,9.0667,9.1359,9.2056,9.2753,9.3407,9.3715,9.3715,9.3715,9.3715,9.3715,9.3715,9.3715,9.3715,9.3907,9.271,9.1052,9.2287,9.271,9.283,9.3484,9.3715,9.3715,9.3715,9.3946,9.421,9.421,9.4377,9.447,9.4008,9.315,9.1984,9.0288,8.8438,8.637,8.383,8.2475,8.1371,8.0071,7.9926,8.0028,8.0028,8.0139,8.0257,8.0257,8.0791,8.0975,8.0139,8.0183,8.0212,8.0028,8.0183,8.022,8.0028,8.0183,8.0257,8.0257,8.0257,8.0257,8.0257,8.0257,8.0257,8.0257,8.0257,8.0257,8.0257,8.0901,8.1224,8.1224,8.1893,8.2194,8.2194,8.2194,8.1497,6.7795,6.7814,6.7853,6.7968,6.8125,6.8625,0.0,7.0629,7.1241,7.2853,7.3857,7.4703,7.5553,7.6442,7.7288,7.8099,7.8292,7.8673,7.9512,8.0396,8.117,8.1789,8.1943,8.2366,8.3255,8.3409,8.4097,8.5709,8.5824,8.6594,8.8329,8.8406,8.8483,8.8679,8.9402,9.0128,9.0902,9.1672,9.2484,9.3292,9.3369,9.3484,9.3561,9.3676,9.3715,9.3715,9.3715,9.3715,9.3715,9.3715,9.3715,9.3792,9.4566,9.4681,9.4369,9.3792,9.3561,9.3599,9.3676,9.3715,9.3715,9.3715,9.4749,9.6019,9.6019,9.6943,9.7686,9.6089,9.54,9.4337,9.0886,8.9453,8.7954,8.4262,8.2965,8.2072,8.0181,8.0359,8.0865,8.0865,8.1452,8.1937,8.1937,8.2011,8.1782,8.1012,8.1452,8.168,8.0975,8.1489,8.1672,8.0938,8.1525,8.1937,8.1937,8.1937,8.1937,8.1937,8.1937,8.1937,8.1937,8.1937,8.1937,8.1937,8.2011,8.2076,8.2076,8.2158,8.2194,8.2194,8.2194,8.2084,6.8371,6.8776,6.9279,6.9741,7.0244,7.0937,7.2126,7.278,7.3318,7.4046,7.528,7.6322,7.6672,7.7442,7.825,0.0,7.9246,7.9708,8.1054,8.1554,8.2285,8.367,8.4247,8.4478,8.4362,8.4786,8.5555,8.6786,8.7325,8.8132,8.9325,8.9863,9.0402,9.0907,9.1672,9.2287,9.2633,9.3018,9.3369,9.3715,9.4215,9.4446,9.4484,9.498,9.5211,9.5249,9.5711,9.5903,9.5942,9.6446,9.6677,9.6716,9.7062,9.7216,9.7062,9.5711,9.5518,9.5903,9.5903,9.6249,9.6677,9.6677,9.7173,9.775,9.775,9.8221,9.8538,9.7644,9.6607,9.5282,9.3393,9.1067,8.8603,8.6228,8.4495,8.301,8.1623,8.1525,8.1709,8.1709,8.1974,8.2194,8.2194,8.2194,8.2084,8.1746,8.1966,8.2084,8.1746,8.2003,8.2076,8.1746,8.2011,8.2194,8.2194,8.2194,8.2194,8.2194,8.2194,8.2194,8.2194,8.2194,8.2194,8.2194,8.2194,8.2194,8.2194,8.2194,8.2194,8.2194,8.2194,8.2194,6.9794,7.0279,7.0895,7.1475,7.2091,7.2783,7.3626,7.4276,7.4857,7.5319,7.6403,7.7442,7.7903,7.848,7.9134,8.0012,8.0358,8.0896,8.2135,8.2708,8.3555,8.5051,8.5974,8.6324,8.5978,8.6478,8.7171,8.8017,8.8906,8.9748,9.0552,9.1436,9.2172,9.283,9.3407,9.383,9.4061,9.4061,9.4177,9.4441,9.5292,9.5677,9.5715,9.6596,9.698,9.7019,9.7596,9.7865,9.7904,9.8524,9.8793,9.8793,9.8793,9.8793,9.8639,9.7442,9.7365,9.7865,9.7865,9.825,9.8793,9.8793,9.8947,9.9178,9.9178,9.9293,9.9399,9.8959,9.7885,9.6609,9.5361,9.2702,8.9816,8.7836,8.5797,8.3967,8.2668,8.2308,8.2194,8.2194,8.2378,8.2517,8.2517,8.27,8.2847,8.2847,8.2847,8.2627,8.1929,8.1856,8.2039,8.248,8.2517,8.2627,8.2847,8.2663,8.2517,8.2517,8.2333,8.2194,8.2194,8.2194,8.2194,8.2194,8.2194,8.2194,8.2194,8.2194,8.2194,8.2194,8.2194,8.2194,7.3297,7.3353,7.3392,7.3392,7.343,7.3661,7.4472,7.4661,7.5165,7.6865,7.7253,7.7788,7.9435,7.9742,8.005,8.0939,8.1708,8.2247,8.2285,8.3747,8.5128,8.5974,8.6824,8.7675,0.0,8.8598,8.8945,8.9739,9.0629,9.1518,9.2364,9.3172,9.3638,9.3676,9.3676,9.41,9.4951,9.4951,9.5369,9.6245,9.7057,9.7403,9.7442,9.8327,9.8716,9.8716,9.8755,9.8755,9.8755,9.8793,9.8793,9.8793,9.8793,9.8793,9.8793,9.8755,9.8755,9.8755,9.8755,9.8793,9.8793,9.8793,9.937,10.0106,10.0106,10.0596,10.1009,9.9946,9.9614,9.89,9.5943,9.4193,9.2203,8.8401,8.6386,8.4827,8.2847,8.2308,8.2194,8.2194,8.2847,8.3344,8.3344,8.4013,8.4535,8.4535,8.4535,8.3683,8.1334,8.104,8.1628,8.3206,8.3344,8.3683,8.4462,8.3793,8.3344,8.3344,8.2627,8.2194,8.2194,8.2194,8.2194,8.2194,8.2194,8.2194,8.2194,8.2194,8.2194,8.2194,8.2194,8.2194,7.3447,7.3507,7.3623,7.4161,7.4318,7.4511,7.5361,7.6015,7.6595,7.7172,7.8169,7.9127,7.9704,8.0704,8.1554,8.1862,8.2597,8.3366,8.3939,8.4974,8.6012,8.6863,8.8205,0.0,0.0,0.0,9.0479,9.0744,9.2056,9.2979,9.3292,9.41,9.4566,9.4566,9.5134,9.5826,9.6634,9.6677,9.7096,9.7942,9.8211,9.8365,9.837,9.8678,9.8793,9.8832,9.9409,9.9644,9.9716,10.0212,10.0519,10.0519,10.0519,10.0519,10.0519,10.0519,10.0519,10.0404,9.9832,9.9981,10.0519,10.0519,10.1019,10.1794,10.1794,10.2409,10.2898,10.2412,10.1383,10.0207,9.8878,9.6369,9.3482,9.0787,8.8123,8.5696,8.3809,8.3198,8.2986,8.2986,8.3646,8.4197,8.4197,8.4417,8.4609,8.4609,8.416,8.3499,8.2692,8.2574,8.2802,8.3344,8.3866,8.4307,8.4572,8.4344,8.4197,8.4197,8.3948,8.3801,8.3801,8.3801,8.3801,8.3801,8.3801,8.3801,8.3801,8.3801,8.3801,8.3765,8.3242,8.2986,7.4323,7.4352,7.4475,7.5042,7.5165,7.5396,7.6284,7.6903,7.748,7.8057,7.905,7.9973,8.0589,8.1554,8.2401,8.2712,8.3482,8.4362,8.5205,8.6051,8.6978,8.8171,8.9513,9.0705,0.0,0.0,9.2441,9.2133,9.3369,9.4177,9.4177,9.5254,9.5908,9.5908,9.6749,9.7442,9.7942,9.7942,9.8404,9.9255,9.9255,9.9409,9.9673,9.9673,9.9673,9.9712,10.0293,10.0481,10.0601,10.1092,10.1284,10.1284,10.1284,10.1284,10.1284,10.1284,10.1284,10.1207,10.0712,10.0904,10.1399,10.1707,10.2092,10.2712,10.2981,10.3486,10.3788,10.3601,10.2693,10.1586,10.0517,9.7882,9.4961,9.2512,8.9474,8.6671,8.5078,8.4269,8.383,8.383,8.4499,8.5013,8.5013,8.527,8.5445,8.5445,8.4784,8.416,8.3866,8.383,8.394,8.4233,8.4719,8.5159,8.5445,8.5196,8.5013,8.5013,8.4756,8.4609,8.4609,8.4609,8.4609,8.4609,8.4609,8.4609,8.4609,8.4609,8.4609,8.4609,8.405,8.3683,7.5841,7.5883,7.5902,7.5982,7.6004,7.628,7.7088,7.7361,7.7865,7.9473,7.9858,8.0396,8.2016,8.2366,8.2712,8.3524,8.4439,8.5282,8.6051,8.694,8.8132,0.0,0.0,0.0,0.0,0.0,0.0,9.3932,9.4668,9.5134,9.5129,9.6659,9.7538,9.7538,9.8351,9.8817,9.886,9.8904,9.9332,10.0183,10.0183,10.0601,10.1284,10.1284,10.1284,10.1284,10.1284,10.1284,10.1284,10.1284,10.1284,10.1284,10.1284,10.1284,10.1284,10.1284,10.1284,10.1399,10.1399,10.1399,10.1515,10.2404,10.2712,10.2904,10.3717,10.3987,10.4018,10.3717,10.3613,10.3086,10.0892,9.8934,9.6665,9.3617,9.0438,8.7799,8.6618,8.5455,8.4646,8.4646,8.5306,8.5865,8.5865,8.6481,8.6986,8.6986,8.6334,8.5572,8.4756,8.4646,8.4939,8.5719,8.5829,8.6151,8.6949,8.6297,8.5865,8.5865,8.5159,8.4711,8.4711,8.4711,8.4711,8.4711,8.4711,8.4711,8.4711,8.4711,8.4711,8.4711,8.4682,8.4233,7.5735,7.5763,7.5771,7.5752,7.6302,7.6886,7.7116,7.82,7.9281,7.9704,8.0781,8.1785,8.2208,8.3362,8.432,8.4512,8.5786,8.6824,8.7055,8.832,0.0,9.0744,0.0,9.2717,9.4066,9.4599,0.0,9.6216,9.6626,9.6751,9.6638,9.7626,9.8158,9.8158,9.8393,9.8856,9.9599,10.0288,10.0784,10.1019,10.1019,10.1092,10.1284,10.1284,10.1284,10.1284,10.1284,10.1284,10.1284,10.1284,10.1284,10.1284,10.1284,10.1284,10.1284,10.1284,10.1707,10.2289,10.2289,10.2289,10.2404,10.3289,10.3987,10.4487,10.4718,10.5213,10.5705,10.5399,10.4917,10.4197,10.3293,10.1093,9.8544,9.6056,9.2576,8.9374,8.7632,8.6347,8.5498,8.5498,8.6151,8.6693,8.6693,8.6876,8.6986,8.6986,8.6839,8.6407,8.5608,8.5498,8.5572,8.5792,8.6334,8.6766,8.6986,8.6803,8.6693,8.6693,8.6509,8.6399,8.6399,8.6399,8.6399,8.6399,8.6399,8.6399,8.6399,8.6399,8.6399,8.6362,8.5783,8.5388,7.5603,7.5674,7.5644,7.5684,7.6381,7.7153,7.7577,7.8734,7.9969,8.0739,8.1631,8.252,8.3285,8.4243,8.5128,8.5897,8.6786,8.7671,8.8397,8.9321,9.0342,0.0,9.245,0.0,9.4652,9.541,9.6189,0.0,9.7204,9.7419,9.7697,9.8541,9.8957,9.8957,9.9346,9.9799,10.0409,10.0888,10.1213,10.1297,10.1297,10.1283,10.1284,10.1284,10.1284,10.1284,10.1284,10.1284,10.1284,10.1284,10.1284,10.1284,10.1284,10.151,10.1899,10.1899,10.2404,10.3212,10.3597,10.3712,10.3789,10.4294,10.4718,10.5218,10.5602,10.5985,10.6291,10.6117,10.5688,10.5085,10.4189,10.2195,9.9786,9.7478,9.3914,9.0599,8.9009,8.7415,8.6334,8.6334,8.6693,8.6986,8.6986,8.6986,8.6986,8.6986,8.6986,8.6839,8.6371,8.6334,8.6334,8.6334,8.6729,8.6986,8.6986,8.6986,8.6986,8.6986,8.6986,8.6986,8.6986,8.6986,8.6986,8.6986,8.6986,8.6986,8.6986,8.6986,8.6986,8.6986,8.6554,8.6151,7.5497,7.554,7.5604,7.5773,7.6491,7.7367,7.8305,7.922,8.0332,8.1946,8.2397,8.2978,8.4589,8.4974,8.5551,8.7132,8.7483,8.8132,8.9663,9.0077,9.0768,9.2304,9.3241,9.4067,9.4911,9.6276,9.7139,9.7087,9.7304,9.7761,9.844,9.9293,9.9753,9.9753,10.0519,10.0919,10.0919,10.0989,10.1097,10.1196,10.1196,10.1208,10.1303,10.1303,10.1308,10.1284,10.1284,10.1284,10.1284,10.1284,10.1399,10.1515,10.1515,10.2015,10.2789,10.2789,10.3289,10.4217,10.491,10.5218,10.5295,10.5295,10.5295,10.5405,10.6308,10.6504,10.6397,10.6303,10.6183,10.5815,10.4582,10.2782,10.0591,9.8336,9.4832,9.1659,9.0303,8.8409,8.6986,8.6986,8.6986,8.6986,8.6986,8.6986,8.6986,8.6986,8.6986,8.6986,8.6986,8.6986,8.6986,8.6986,8.6986,8.6986,8.6986,8.6986,8.6986,8.6986,8.6986,8.6986,8.6986,8.6986,8.6986,8.6986,8.6986,8.6986,8.6986,8.6986,8.6986,8.6986,8.6986,8.6628,7.527,7.5279,7.5455,7.6242,7.7139,7.8069,7.9003,7.9978,8.0969,8.2026,8.2818,8.3674,8.4705,8.5435,8.6205,8.7252,8.7983,8.8829,8.9778,9.1062,9.2232,9.3251,9.4057,9.5006,9.6325,9.6686,0.0,9.8544,9.8677,9.8739,9.8892,9.9666,10.0092,10.0092,10.0486,10.0706,10.0706,10.0908,10.1016,10.0999,10.0999,10.1095,10.1203,10.1203,10.1205,10.1284,10.1284,10.1284,10.1284,10.1284,10.1707,10.2404,10.2404,10.2904,10.3717,10.3717,10.4217,10.491,10.5102,10.5597,10.6208,10.6208,10.6208,10.6303,10.7092,10.7318,10.7412,10.7804,10.7387,10.661,10.6194,10.3998,10.1416,9.9178,9.6148,9.307,9.0562,8.8409,8.6986,8.6986,8.6986,8.6986,8.6986,8.6986,8.6986,8.6986,8.6986,8.6986,8.6986,8.6986,8.6986,8.6986,8.6986,8.6986,8.6986,8.6986,8.6986,8.6986,8.6986,8.6986,8.6986,8.6986,8.6986,8.6986,8.6986,8.6986,8.6986,8.6986,8.6986,8.6986,8.6986,8.6913,7.507,7.5466,7.5932,7.6365,7.7531,7.8707,7.919,8.0041,8.1159,8.2569,8.3234,8.3933,8.5273,8.6209,8.7055,8.7944,8.8786,8.9765,9.0985,9.1824,9.2752,9.394,9.4714,9.5571,9.666,9.7365,9.8046,9.8674,9.9089,9.9407,9.9594,9.9993,10.0183,10.0183,10.0302,10.0407,10.0407,10.0592,10.0713,10.0781,10.0886,10.1017,10.109,10.1191,10.1203,10.121,10.1298,10.1592,10.2015,10.2015,10.252,10.3294,10.3294,10.3789,10.4487,10.4487,10.5102,10.579,10.579,10.5979,10.6389,10.6806,10.7004,10.7015,10.7286,10.7706,10.7998,10.8196,10.7895,10.7297,10.6481,10.4806,10.2711,10.0115,9.5954,9.1978,8.9563,8.7969,8.6986,8.6986,8.6986,8.6986,8.6986,8.6986,8.7133,8.7573,8.761,8.7794,8.8189,8.8262,8.7932,8.7096,8.6986,8.6986,8.6986,8.6986,8.6986,8.6986,8.6986,8.6986,8.6986,8.6986,8.6986,8.6986,8.6986,8.6986,8.6986,8.6986,8.6986,8.6986,8.6986,8.6986,7.4887,7.558,7.6333,7.6572,7.7792,7.9075,7.9376,8.006,8.1138,8.306,8.35,8.4037,8.5769,8.6824,8.7675,8.856,8.9346,9.0456,9.2074,9.2411,9.2962,9.4291,9.5271,9.6085,9.6748,9.7953,9.8663,9.8637,9.9316,9.9799,9.9985,10.0004,10.0004,10.0004,10.0113,10.01,10.0095,10.0183,10.0389,10.0483,10.0688,10.0814,10.0897,10.1201,10.1395,10.149,10.1715,10.2187,10.2904,10.2904,10.3405,10.4217,10.4217,10.4718,10.541,10.541,10.579,10.6395,10.66,10.6614,10.6605,10.7395,10.7587,10.7505,10.7703,10.8204,10.8587,10.8583,10.8294,10.7814,10.6605,10.5413,10.3504,9.9986,9.5193,9.0892,8.8881,8.783,8.7243,8.7243,8.7243,8.7316,8.75,8.75,8.772,8.8344,8.8463,8.8674,8.9326,8.94,8.8923,8.7647,8.75,8.7427,8.728,8.7243,8.717,8.7023,8.6986,8.6986,8.6986,8.6986,8.6986,8.6986,8.6986,8.6986,8.6986,8.6986,8.6986,8.6986,8.6986,8.6986,7.4557,7.5172,7.6074,7.705,7.7974,7.8931,8.0038,8.0411,8.1039,8.2913,8.341,8.4037,8.5769,8.6824,8.7675,8.856,8.9337,9.0388,9.2069,9.2779,9.3416,9.4206,9.5688,9.6768,9.719,9.8003,9.8654,9.9012,9.966,9.9878,9.9494,9.9478,9.9478,9.9478,9.9599,9.9694,9.983,9.9977,10.0082,10.0183,10.0383,10.051,10.0715,10.1606,10.2079,10.2315,10.3098,10.3583,10.3794,10.3794,10.4294,10.4987,10.4987,10.5482,10.6285,10.6285,10.6285,10.65,10.7202,10.7384,10.7494,10.8116,10.7898,10.7599,10.8804,10.9296,10.9385,10.9916,10.9289,10.83,10.7398,10.5498,10.2597,9.7804,9.4421,9.1723,8.9709,8.8674,8.8096,8.8096,8.8096,8.8307,8.9033,8.9179,8.9216,8.929,8.929,8.9326,8.94,8.94,8.9326,8.9216,8.9179,8.8895,8.8169,8.8096,8.7766,8.706,8.6986,8.6986,8.6986,8.6986,8.6986,8.6986,8.6986,8.6986,8.6986,8.6986,8.6986,8.6986,8.6986,8.6986,7.4882,7.5715,7.664,7.7639,7.862,7.9443,7.9922,8.0255,8.0955,8.274,8.3245,8.3918,8.5693,8.7214,8.8274,8.8525,9.0095,9.1677,9.2698,9.3427,9.4316,9.5606,9.6523,9.7312,9.7946,9.8473,9.893,9.9362,9.964,9.9927,10.0205,10.041,10.048,10.048,10.0715,10.0789,10.0893,10.1093,10.1295,10.1489,10.1615,10.1801,10.198,10.2488,10.2792,10.3005,10.3491,10.3997,10.45,10.461,10.5097,10.5905,10.5905,10.6092,10.6515,10.7015,10.7208,10.7308,10.7998,10.8218,10.8314,10.8783,10.8716,10.8487,10.9105,10.9488,10.98,11.0013,10.9605,10.8788,10.7707,10.5009,10.1783,9.8566,9.5413,9.2719,9.1233,8.9858,8.8931,8.8931,8.8931,8.9042,8.9326,8.94,8.9546,9.006,9.0106,9.0289,9.0767,9.084,9.084,9.084,8.9996,8.9253,8.8968,8.8931,8.8776,8.8445,8.7977,8.7729,8.7729,8.7243,8.6986,8.6986,8.6986,8.6986,8.6986,8.6986,8.6986,8.6986,8.6986,8.6986,7.5037,7.5982,7.6939,7.7884,7.8933,7.9734,7.9805,8.006,8.0849,8.2626,8.3136,8.3822,8.5598,8.7397,8.8571,8.85,9.0574,9.2449,9.3067,9.4005,9.5076,9.6325,9.7198,9.7827,9.8179,9.8697,9.9223,9.9775,9.9959,10.0309,10.0816,10.1281,10.1405,10.1215,10.1298,10.1393,10.1485,10.1709,10.1888,10.21,10.2295,10.2512,10.2683,10.3196,10.3514,10.3694,10.4089,10.4714,10.5316,10.54,10.5797,10.64,10.64,10.6592,10.69,10.7521,10.7802,10.8106,10.8789,10.8916,10.8899,10.9513,10.9598,10.9409,10.9409,10.9605,10.9913,10.9583,10.9208,10.8514,10.7214,10.4512,10.1491,9.9248,9.6443,9.3801,9.2216,9.0776,8.9767,8.9767,8.9767,8.984,9.0069,9.0097,9.0289,9.0877,9.095,9.1179,9.173,9.1803,9.1803,9.1803,9.0803,8.9996,8.9767,8.9767,8.9657,8.9436,8.8858,8.8564,8.8564,8.8014,8.761,8.7353,8.7353,8.7243,8.6986,8.6986,8.6986,8.6986,8.6986,8.6986,7.4773,7.5745,7.6717,7.7671,7.8721,7.9569,7.9767,8.0003,8.0722,8.2612,8.3118,8.3713,8.5491,8.7234,8.8385,8.8385,9.0444,9.2258,9.3016,9.4418,9.5532,9.5969,9.7478,9.8276,9.7659,9.8631,9.9587,10.0213,10.0786,10.1111,10.0904,10.1689,10.1704,10.0818,10.0806,10.0898,10.1117,10.1212,10.1387,10.1603,10.2086,10.2305,10.2319,10.3584,10.4302,10.4392,10.5409,10.5984,10.6194,10.6199,10.6301,10.64,10.64,10.69,10.7713,10.7713,10.8101,10.8789,10.9509,10.9609,10.9519,11.0185,11.0187,10.9802,10.9802,10.9802,10.9705,10.9211,10.8083,10.7002,10.5817,10.4103,10.1999,9.9187,9.7119,9.5037,9.2363,9.1179,9.0583,9.0583,9.0583,9.084,9.1657,9.1776,9.1776,9.1803,9.1803,9.1803,9.1803,9.1803,9.1803,9.1803,9.1803,9.1436,9.0656,9.0583,9.0253,8.9436,8.94,8.94,8.94,8.9363,8.9005,8.8206,8.8206,8.7802,8.6986,8.6986,8.6986,8.6986,8.6986,8.6986,7.528,7.5904,7.656,7.8172,7.8922,7.9305,7.952,8.0222,8.1181,8.2513,8.3423,8.4486,8.6226,8.7571,8.8553,8.9056,9.1176,9.2782,9.2935,9.4596,9.6059,9.6809,9.8475,9.9373,9.8809,9.949,10.0195,10.0897,10.0991,10.121,10.1707,10.2003,10.1989,10.1896,10.1994,10.22,10.2392,10.2609,10.2815,10.3107,10.3311,10.3588,10.401,10.4385,10.4781,10.5212,10.5495,10.5813,10.6085,10.6205,10.6301,10.6515,10.7092,10.7482,10.779,10.8983,10.949,10.971,11.0391,11.0495,11.0296,11.0184,11.0008,10.9712,10.9297,10.9114,10.8994,10.8608,10.7986,10.7088,10.5693,10.4207,10.2386,9.9738,9.7855,9.6068,9.3942,9.2868,9.2125,9.1546,9.1436,9.151,9.1767,9.1803,9.1803,9.1803,9.1803,9.1803,9.1803,9.1803,9.1803,9.1803,9.1803,9.1693,9.1436,9.1436,9.1326,9.1069,9.051,9.0216,9.0216,8.9693,8.929,8.9042,8.9042,8.8886,8.8629,8.8629,8.8629,8.8629,8.8087,8.7839,7.5274,7.5907,7.6442,7.8304,7.8941,7.9153,7.9317,8.0269,8.1387,8.2336,8.3411,8.4701,8.6448,8.752,8.8525,8.9641,9.1604,9.2998,9.313,9.5091,9.6823,9.7769,9.9011,9.9777,9.9707,10.0307,10.0897,10.1396,10.129,10.1406,10.1891,10.1891,10.2015,10.2181,10.2389,10.2584,10.2785,10.3019,10.3182,10.3518,10.3717,10.4002,10.4418,10.4699,10.4999,10.5188,10.5505,10.569,0.0,10.5986,10.6199,10.642,10.7308,10.7905,10.8285,10.9589,11.0188,11.0487,11.081,11.0806,11.0513,11.008,10.972,10.9316,10.8715,10.8506,10.8407,10.8083,10.7721,10.7194,10.5801,10.4596,10.3112,10.0801,9.8772,9.6847,9.5135,9.3896,9.2831,9.195,9.1803,9.1803,9.1803,9.1803,9.1803,9.1803,9.1803,9.1803,9.1803,9.1803,9.1803,9.1803,9.1803,9.1803,9.1803,9.1803,9.1803,9.1803,9.1326,9.1069,9.1069,9.0583,9.0179,8.984,8.984,8.9693,8.94,8.94,8.94,8.94,8.8895,8.8638,0.0,7.571,7.6376,7.8079,7.8793,7.9091,7.9104,8.0173,0.0,8.2134,8.3183,8.4501,8.6348,8.7236,8.8303,9.0143,9.1697,9.2903,9.3587,9.5764,9.7728,9.8807,9.9196,9.9635,10.0298,10.0907,10.1405,10.1795,10.1783,10.1704,10.1514,10.1504,10.1594,10.181,10.2006,10.2218,10.2398,10.2593,10.2794,10.2991,10.3518,10.3783,10.3794,10.4395,10.4801,10.479,10.5284,10.5498,10.5621,10.5909,10.6085,10.6281,10.7392,10.8198,10.8995,10.981,11.0493,11.0993,11.0786,11.0501,11.0187,10.9802,10.93,10.8597,10.8092,10.7908,10.7787,10.7617,10.7396,10.7005,10.5994,10.502,10.3901,10.2188,9.9843,9.753,9.5942,9.4327,9.2941,9.206,9.184,9.1803,9.1803,9.1803,9.1803,9.1803,9.1803,9.1803,9.1803,9.1803,9.1803,9.1803,9.1803,9.1803,9.1803,9.1803,9.1803,9.1803,9.1803,9.1803,9.1803,9.1803,9.1436,9.0693,9.0693,9.0326,8.9583,8.9583,8.9583,8.9583,8.951,8.9473,7.3706,0.0,7.6108,7.7902,7.8576,7.8851,0.0,8.0416,8.175,8.2197,8.35,8.5157,8.709,8.7568,8.8438,9.0634,9.1807,9.2879,9.4176,9.6173,9.7951,9.905,9.9716,10.0289,10.0907,10.1386,10.1716,10.1803,10.1701,10.1517,10.1514,10.1504,10.1487,10.1611,10.1587,10.1785,10.2181,10.2389,10.2584,10.2785,10.3108,10.3379,10.3778,10.3984,10.4305,10.4821,10.4999,10.5287,10.5609,10.5783,10.6012,10.6391,10.7888,10.8586,10.892,11.0397,11.1016,11.091,11.0793,11.0403,10.9986,10.9314,10.8691,10.831,10.7786,10.7692,10.7607,10.7405,10.7118,10.6585,10.578,10.4798,10.3595,10.1988,10.0212,9.8374,9.6759,9.5144,9.3786,9.2941,9.2244,9.1803,9.1803,9.1803,9.1803,9.1803,9.1803,9.1803,9.1803,9.1803,9.1803,9.1803,9.1803,9.1803,9.1803,9.1803,9.1803,9.1803,9.1803,9.1803,9.1803,9.1803,9.1693,9.151,9.151,9.1436,9.1253,9.1253,9.1253,9.1216,9.0583,9.0326,7.3213,7.4699,7.5924,7.7267,7.8102,7.873,7.9248,8.0586,8.1852,8.2437,8.396,8.5649,8.7149,8.7701,8.8753,9.1199,9.1919,9.2885,9.5112,9.6494,9.7738,9.9011,9.9769,10.0388,10.0905,10.1487,10.18,10.1711,10.1611,10.1504,10.1504,10.1504,10.1504,10.1504,10.1504,10.1617,10.2006,10.2085,10.2285,10.2584,10.2822,10.3086,10.3622,10.3704,10.4103,10.4597,10.479,10.5094,10.5396,10.571,10.5907,10.6199,10.7488,10.8311,10.8793,11.009,11.0594,11.0812,11.0612,11.0085,10.9392,10.8911,10.8407,10.8009,10.7606,10.7413,10.7296,10.7089,10.6894,10.6615,10.5997,10.5185,10.409,10.2899,10.1394,9.9659,9.7676,9.5988,9.4491,9.3224,9.2252,9.1638,9.1555,9.1536,9.1564,9.1657,9.1675,9.1703,9.1794,9.1803,9.1803,9.1803,9.1803,9.1803,9.1803,9.1803,9.1803,9.1803,9.1803,9.1803,9.1803,9.1803,9.1803,9.1803,9.1803,9.1803,9.1803,9.1803,9.1803,9.1803,9.1363,9.1143,7.3053,7.4606,7.5729,7.6565,7.7624,7.8705,7.9501,8.0639,8.1781,8.2582,8.4286,8.5927,8.6864,8.7764,8.9146,9.1598,9.2271,9.3413,9.593,9.6735,9.7554,9.8971,9.961,10.0111,10.0717,10.1405,10.1684,10.1514,10.1504,10.1504,10.1504,10.1504,10.1504,10.1504,10.1504,10.1594,10.179,10.1783,10.2015,10.2286,10.2519,10.282,10.321,10.3614,10.3883,10.4183,10.4581,10.4888,10.5199,10.5492,10.569,10.5904,10.6913,10.7687,10.8513,10.9212,10.9919,11.0384,11.0201,10.9599,10.8919,10.8591,10.821,10.7814,10.7404,10.7081,10.6908,10.6683,10.6695,10.6617,10.6392,10.5789,10.4897,10.41,10.2715,10.0917,9.8528,9.6784,9.5094,9.3253,9.2163,9.143,9.1149,9.112,9.1197,9.1433,9.149,9.1583,9.1785,9.1803,9.1803,9.1803,9.1803,9.1803,9.1803,9.1803,9.1803,9.1803,9.1803,9.1803,9.1803,9.1803,9.1803,9.1803,9.1803,9.1803,9.1803,9.1803,9.1803,9.1803,9.1803,9.1803,7.3053,7.4455,7.5483,7.6417,7.7501,7.8575,7.9481,8.0515,8.1506,8.2442,8.4095,8.5637,8.6584,8.8009,8.9611,9.1231,9.365,9.5418,9.5771,9.6881,9.8228,9.9665,9.9621,10.0112,10.1508,10.1617,10.1497,10.1514,10.1504,10.1504,10.1504,10.1504,10.1504,10.1504,10.1504,10.1487,10.1507,10.1714,10.1785,10.1901,10.2285,10.2584,10.2812,10.3202,10.3606,10.3883,10.4411,10.4713,10.4905,10.5312,10.5593,10.5684,10.6696,10.7209,10.7394,10.8301,10.8907,10.9412,10.9618,10.9316,10.8801,10.8389,10.7991,10.7597,10.7188,10.6898,10.671,10.6492,10.6392,10.6381,10.6386,10.5789,10.4897,10.41,10.2715,10.0987,9.9073,9.7385,9.5657,9.3631,9.2374,9.1472,9.079,9.0645,9.0763,9.1197,9.1405,9.1583,9.1785,9.1803,9.1803,9.1803,9.1803,9.1803,9.1803,9.1803,9.1803,9.1803,9.1803,9.1803,9.1803,9.1803,9.1803,9.1803,9.1803,9.1803,9.1803,9.1803,9.1803,9.1803,9.1803,9.1803,7.3053,7.4346,7.5287,7.6258,7.7576,7.8932,7.9905,8.0872,8.1988,8.3396,8.4783,8.5994,8.685,8.8394,9.0157,9.2144,9.426,9.5769,9.6124,9.7361,9.8548,9.9565,9.9893,10.0512,10.1497,10.1601,10.1504,10.1504,10.1504,10.1504,10.1504,10.1504,10.1504,10.1504,10.1504,10.1504,10.1504,10.1594,10.1694,10.1803,10.2104,10.2417,10.2684,10.3009,10.3391,10.3786,10.3988,10.438,10.4783,10.4985,10.5195,10.5396,10.5993,10.6502,10.6891,10.7615,10.8294,10.8791,10.8582,10.8593,10.8611,10.8192,10.7796,10.7404,10.7109,10.6894,10.6705,10.6486,10.6386,10.6386,10.6386,10.6082,10.5605,10.4714,10.3707,10.2287,10.0497,9.838,9.6202,9.398,9.2285,9.0844,8.9848,8.9757,8.9961,9.0435,9.0871,9.1301,9.161,9.1739,9.1803,9.1803,9.1803,9.1803,9.1803,9.1803,9.1803,9.1803,9.1803,9.1803,9.1803,9.1803,9.1803,9.1803,9.1803,9.1803,9.1803,9.1803,9.1803,9.1803,9.1803,9.1803,7.3266,7.4441,7.5234,7.6589,7.7953,7.9216,8.0193,8.1133,8.2334,8.4123,8.529,8.6309,8.7354,8.9033,9.0957,9.3115,9.4478,9.5526,9.6342,9.7615,9.8678,9.9328,10.0107,10.0782,10.1404,10.1504,10.1504,10.1504,10.1504,10.1504,10.1504,10.1504,10.1504,10.1504,10.1504,10.1504,10.1504,10.1504,10.1584,10.1687,10.1903,10.2191,10.2584,10.2784,10.3193,10.3597,10.3683,10.4119,10.4597,10.4704,10.4902,10.5115,10.5293,10.5693,10.6193,10.6891,10.739,10.7805,10.7715,10.7891,10.8081,10.7916,10.7587,10.7208,10.6998,10.6812,10.6596,10.6392,10.6386,10.6386,10.6386,10.6386,10.6203,10.5301,10.4379,10.3305,10.1513,9.9135,9.6645,9.4287,9.2119,9.0267,8.9111,8.887,8.9058,8.9637,9.0263,9.0829,9.1244,9.1433,9.1546,9.1592,9.1601,9.162,9.1666,9.1675,9.1675,9.1675,9.1758,9.1803,9.1803,9.1803,9.1803,9.1803,9.1803,9.1803,9.1803,9.1803,9.1803,9.1803,9.1803,9.1803,7.3957,7.4874,7.5461,7.7834,7.8626,7.9044,8.0021,8.0909,8.2034,8.3764,0.0,8.6161,8.7921,9.0047,9.2014,9.3372,9.4292,9.5132,9.5945,9.7285,9.8508,9.9309,9.9943,10.0596,10.1394,10.1504,10.1504,10.1504,10.1504,10.1504,10.1504,10.1504,10.1504,10.1504,10.1504,10.1504,10.1504,10.1504,10.1514,10.1487,10.1687,10.1893,10.2208,10.2519,10.2811,10.3097,10.3602,10.3802,10.3899,10.4484,10.4821,10.4908,10.5108,10.5204,10.5213,10.5901,10.5913,10.5889,10.7089,10.7282,10.7212,10.7507,10.7291,10.6988,10.6802,10.6585,10.6408,10.6386,10.6386,10.6386,10.6386,10.6386,10.6203,10.5301,10.43,10.3112,10.1319,9.9252,9.6994,9.441,9.2077,9.0188,8.9084,8.8276,8.813,8.9091,8.9662,9.0146,9.0591,9.0671,9.075,9.0946,9.0965,9.1043,9.1235,9.1254,9.1254,9.1254,9.1601,9.1803,9.1803,9.1803,9.1803,9.1803,9.1803,9.1803,9.1803,9.1803,9.1803,9.1803,9.1803,9.1803,7.403,7.4903,7.5498,7.7965,7.9011,7.9655,8.0621,8.1831,8.3177,8.4458,8.5831,0.0,0.0,9.1206,9.263,9.4117,9.4961,9.57,9.6511,9.7843,9.8885,9.9179,10.0296,10.121,10.1514,10.1504,10.1504,10.1504,10.1504,10.1504,10.1504,10.1504,10.1504,10.1504,10.1504,10.1688,10.2191,10.2191,10.2495,10.3009,10.2219,10.1795,10.1893,10.2305,10.2602,10.2802,10.3213,10.3509,10.3794,10.4103,10.429,10.4515,10.4595,10.4706,10.469,10.4908,10.5097,10.5301,10.5693,10.6189,10.6614,10.6713,10.6695,10.6786,10.6693,10.6601,10.6386,10.6386,10.6386,10.6386,10.6386,10.6386,10.6313,10.6009,10.4703,10.3394,10.2612,10.0191,9.7579,9.5165,9.2684,9.0418,8.8529,8.7716,8.7431,8.7784,8.8639,8.9328,8.9694,8.9976,9.0182,9.0273,9.0385,9.0495,9.0575,9.0585,9.0585,9.0585,9.1227,9.162,9.162,9.1739,9.1803,9.1803,9.1684,9.162,9.162,9.1377,9.1254,9.1254,9.1254,9.1254,7.4103,7.527,7.6188,7.8405,7.9588,8.0501,8.1625,8.2761,8.3885,8.5168,8.6931,8.8941,9.1105,0.0,9.3201,9.4769,9.5396,9.6085,9.7125,9.8314,9.9172,9.9465,10.0696,10.1504,10.1504,10.1504,10.1504,10.1504,10.1504,10.1504,10.1504,10.1504,10.1614,10.1908,10.1908,10.2312,10.3109,10.3109,10.3403,10.389,10.2884,10.2406,10.2217,10.251,10.2592,10.2593,10.2784,10.3083,10.3614,10.3693,10.3899,10.4205,10.4297,10.429,10.429,10.4204,10.4291,10.4497,10.4602,10.5213,10.6008,10.601,10.6304,10.6689,10.658,10.6502,10.6386,10.6386,10.6386,10.6386,10.6386,10.6386,10.6386,10.6386,10.5201,10.3906,10.3415,10.1008,9.8285,9.5884,9.3308,9.0791,8.8461,8.752,8.6983,8.6757,8.7515,8.8187,8.8482,8.877,8.9033,8.9174,8.9478,8.9648,8.9648,8.9648,8.9715,8.9788,9.0469,9.1045,9.1405,9.161,9.1712,9.1712,9.1518,9.1312,9.1179,9.0832,9.0671,9.0575,9.0635,9.0691,7.4243,7.6078,7.7693,7.9368,8.0396,8.1444,8.3051,8.3418,8.3916,8.5753,8.8213,9.0458,9.1843,9.2764,9.3814,9.5273,9.5501,9.6088,9.7686,9.8594,9.9392,10.0209,10.099,10.1504,10.1504,10.1504,10.1504,10.1504,10.1504,10.1504,10.1504,10.1504,10.1908,10.2705,10.2695,10.3109,10.389,10.389,10.388,10.388,10.388,10.3589,10.3018,10.2981,10.2802,10.2417,10.2584,10.2784,10.2989,10.3399,10.3713,10.4117,10.4205,10.4111,10.3807,10.3807,10.3593,10.3403,10.3993,10.4614,10.52,10.5612,10.6183,10.6584,10.6486,10.6386,10.6386,10.6386,10.6386,10.6386,10.6386,10.6386,10.6386,10.6386,10.5604,10.4491,10.3488,10.1502,9.9055,9.6435,9.3796,9.1311,8.9017,8.7723,8.6817,8.6269,8.6415,8.6708,8.6953,8.6977,8.717,8.7632,8.8153,8.8473,8.8473,8.8473,8.8585,8.8866,8.9253,8.9976,9.1158,9.1396,9.1508,9.1508,9.1301,9.0948,9.0489,9.0257,9.0089,8.9867,9.01,9.0192,7.4243,7.6078,7.7693,7.9368,8.0836,8.226,8.3875,8.4233,8.5058,8.7854,8.9945,9.159,9.262,9.3933,9.498,9.5428,9.6456,9.7346,9.7833,9.9071,9.9989,10.0293,10.099,10.1504,10.1504,10.1504,10.1504,10.1504,10.1504,10.1688,10.2301,10.2291,10.2705,10.3513,10.3513,10.3917,10.4714,10.4714,10.5091,10.5689,10.5689,10.4902,10.3615,10.3215,10.2903,10.2819,10.262,10.2621,10.2793,10.321,10.3388,10.3489,10.3585,10.3497,10.3405,10.3405,10.321,10.2912,10.3118,10.3418,10.368,10.441,10.5112,10.5689,10.6213,10.6386,10.6386,10.6386,10.6386,10.6386,10.6386,10.6386,10.6386,10.6386,10.5604,10.4491,10.3488,10.2,9.9975,9.7045,9.4953,9.2731,8.9692,8.8109,8.6919,8.5879,8.5932,8.6197,8.6459,8.6496,8.662,8.6893,8.7062,8.7158,8.7158,8.7158,8.7266,8.7538,8.7854,8.8717,9.0212,9.0671,9.0868,9.0868,9.0465,9.0141,8.9779,8.9066,8.8592,8.8357,8.8424,8.8548,7.4434,7.6562,7.8544,7.9551,8.124,8.3177,8.5114,8.582,8.6775,8.9326,9.0913,9.217,9.3345,9.462,9.5721,9.6355,9.7273,9.8127,9.8751,9.9695,10.0393,10.0686,10.121,10.1504,10.1504,10.1504,10.1504,10.1504,10.1798,10.2191,10.2705,10.2999,10.3502,10.4394,10.4394,10.4798,10.5595,10.5595,10.5899,10.6386,10.6386,10.5909,10.4892,10.3793,10.3195,10.3001,10.2484,10.2407,10.2584,10.2891,10.3106,10.3184,10.3291,10.3193,10.3099,10.3099,10.2812,10.2519,10.2519,10.2698,10.3091,10.3901,10.4595,10.5301,10.6119,10.6386,10.6386,10.6386,10.6386,10.6386,10.6386,10.6386,10.6386,10.6386,10.5888,10.5,10.3582,10.2604,10.1006,9.7801,9.5901,9.3881,9.0835,8.8855,8.7285,8.5962,8.5534,8.542,8.5609,8.5737,8.5878,8.6008,8.6087,8.6137,8.6137,8.6137,8.6263,8.6548,8.6793,8.7432,8.8525,8.9521,9.0028,9.0028,8.9673,8.9199,8.8659,8.7981,8.7491,8.7134,8.7349,8.7526,7.4764,7.7341,7.9816,7.989,8.1709,8.416,8.6647,8.7794,8.8757,9.0363,9.14,9.251,9.4116,9.5144,9.6199,9.7649,9.8016,9.8641,10.0099,10.0403,10.0696,10.1394,10.1504,10.1504,10.1504,10.1504,10.1504,10.1614,10.2301,10.2815,10.2915,10.3586,10.4394,10.5191,10.518,10.5605,10.6386,10.6386,10.6386,10.6386,10.6386,10.6386,10.6302,10.4698,10.3478,10.289,10.2293,10.22,10.2407,10.2584,10.2804,10.29,10.3114,10.301,10.262,10.262,10.2417,10.2085,10.2085,10.2392,10.2998,10.3808,10.4512,10.5191,10.6009,10.6302,10.6386,10.6386,10.6386,10.6386,10.6386,10.6386,10.6386,10.6386,10.6386,10.5793,10.3793,10.3099,10.199,9.8645,9.6708,9.4791,9.2265,8.9893,8.7816,8.6318,8.5233,8.4614,8.4614,8.4866,8.5037,8.5037,8.526,8.5437,8.5437,8.5437,8.5519,8.5814,8.5999,8.6216,8.6536,8.8107,8.8993,8.8993,8.875,8.8176,8.7289,8.7012,8.6622,8.6194,8.6622,8.6832,7.5469,7.7789,7.9963,8.0571,8.2553,8.5151,8.8189,8.9033,8.9592,9.1216,9.2721,9.4079,9.5061,9.6428,9.7503,9.7833,9.8971,9.9879,10.0293,10.0796,10.1284,10.1514,10.1504,10.1504,10.1504,10.1504,10.1798,10.2412,10.2585,10.3293,10.4493,10.4703,10.5191,10.6082,10.6082,10.6192,10.6386,10.6386,10.6386,10.6386,10.6386,10.6386,10.6302,10.4698,10.3184,10.2097,10.1916,10.1988,10.2181,10.2182,10.2313,10.2313,10.2314,10.2286,10.2201,10.2201,10.2085,10.1908,10.1908,10.1807,10.2015,10.2813,10.3507,10.432,10.5117,10.5899,10.6386,10.6386,10.6386,10.6386,10.6386,10.6386,10.6386,10.6386,10.6386,10.5909,10.3985,10.3385,10.2284,9.9342,9.752,9.5686,9.3296,9.0803,8.8291,8.5716,8.4928,8.4614,8.4614,8.468,8.472,8.472,8.4773,8.48,8.48,8.48,8.4932,8.5247,8.5312,8.5536,8.6021,8.6953,8.7479,8.7479,8.7218,8.688,8.6452,8.5999,8.5626,8.5351,8.5467,8.5601,7.6232,7.8185,8.0249,8.2223,8.4233,8.6399,8.8849,8.9987,9.1023,9.2657,9.3685,9.4556,9.5354,9.6832,9.8016,9.8411,9.9512,10.0393,10.0806,10.121,10.1504,10.1504,10.1504,10.1504,10.1504,10.1788,10.2191,10.2705,10.3392,10.42,10.5081,10.5484,10.5899,10.6386,10.6386,10.6386,10.6386,10.6386,10.6386,10.6386,10.6386,10.5983,10.5212,10.4294,10.3097,10.1701,10.1701,10.181,10.2006,10.2006,10.198,10.2114,10.2114,10.2009,10.2006,10.2006,10.1795,10.1701,10.1701,10.1594,10.1614,10.2401,10.2999,10.3502,10.4703,10.5411,10.5899,10.6313,10.6386,10.6386,10.6386,10.6386,10.6386,10.6386,10.6386,10.5883,10.4012,10.3413,10.2622,9.9988,9.7997,9.6192,9.4586,9.1268,8.7968,8.5485,8.4813,8.4614,8.4614,8.4614,8.4614,8.4614,8.4614,8.4614,8.4614,8.4614,8.468,8.4853,8.4866,8.4998,8.5252,8.5643,8.6062,8.6449,8.6359,8.6084,8.5656,8.5394,8.5142,8.4866,8.5011,8.5155,7.7032,7.8948,8.1093,8.3911,8.5812,8.7418,8.9033,9.062,9.229,9.3942,9.441,9.4813,9.5721,9.7126,9.8374,9.9172,9.9989,10.0686,10.1394,10.1504,10.1504,10.1504,10.1504,10.1504,10.1504,10.2191,10.2815,10.2879,10.431,10.5191,10.5301,10.6009,10.6386,10.6386,10.6386,10.6386,10.6386,10.6386,10.6386,10.6386,10.6386,10.5505,10.389,10.389,10.3009,10.1504,10.1504,10.1604,10.1707,10.1707,10.1805,10.2008,10.2008,10.1901,10.1707,10.1707,10.1607,10.1504,10.1504,10.1504,10.1614,10.2301,10.2595,10.2915,10.431,10.4897,10.5301,10.6009,10.6313,10.6386,10.6386,10.6386,10.6386,10.6386,10.6386,10.5893,10.4017,10.3513,10.2713,10.0583,9.833,9.6359,9.5283,9.1381,8.7727,8.5734,8.5,8.468,8.4627,8.4614,8.4614,8.4614,8.4614,8.4614,8.4614,8.4614,8.4614,8.4614,8.4614,8.4614,8.4614,8.4614,8.4924,8.5673,8.5686,8.5467,8.4998,8.4998,8.4866,8.4627,8.4879,8.4998,7.7781,8.0637,8.3206,8.4315,8.5812,8.7418,8.9033,9.062,9.229,9.3942,9.485,9.5795,9.7309,9.8337,9.9218,9.9989,10.0806,10.1394,10.1514,10.1504,10.1504,10.1504,10.1504,10.1504,10.1504,10.2191,10.2999,10.3696,10.4604,10.5411,10.6203,10.6302,10.6386,10.6386,10.6386,10.6386,10.6386,10.6386,10.6386,10.6386,10.6386,10.5505,10.389,10.389,10.3009,10.1504,10.1504,10.1487,10.1507,10.1507,10.1601,10.1594,10.1594,10.1611,10.1507,10.1507,10.1487,10.1504,10.1504,10.1504,10.1504,10.1614,10.2081,10.2695,10.2999,10.4016,10.5107,10.518,10.5789,10.6386,10.6386,10.6386,10.6386,10.6386,10.6386,10.5899,10.4216,10.3709,10.3001,10.1083,9.8528,9.6013,9.39,9.1139,8.8669,8.6993,8.5773,8.4932,8.4654,8.4614,8.4614,8.4614,8.4614,8.4614,8.4614,8.4614,8.4614,8.4614,8.4614,8.4614,8.4614,8.4614,8.4633,8.4753,8.4753,8.476,8.468,8.468,8.4654,8.4614,8.4654,8.468,7.9837,8.2296,8.427,8.5086,8.6803,8.8519,8.9253,9.1354,9.3428,9.4162,9.529,9.6539,9.7686,9.8557,9.9355,10.0209,10.099,10.1504,10.1504,10.1504,10.1504,10.1504,10.1504,10.1504,10.1504,10.2191,10.2989,10.3806,10.4604,10.5484,10.6386,10.6386,10.6386,10.6386,10.6386,10.6386,10.6386,10.6386,10.6386,10.6386,10.5899,10.5007,10.389,10.3403,10.2595,10.1504,10.1504,10.1504,10.1504,10.1504,10.1504,10.1504,10.1504,10.1504,10.1504,10.1504,10.1504,10.1504,10.1504,10.1504,10.1504,10.1504,10.1688,10.2081,10.2595,10.3209,10.3896,10.4813,10.5411,10.5789,10.6313,10.6386,10.6386,10.6386,10.6009,10.5301,10.4184,10.3714,10.2797,10.0313,9.8106,9.5941,9.3617,9.1096,8.8842,8.7233,8.592,8.4971,8.4654,8.4614,8.4614,8.4614,8.4614,8.4614,8.4614,8.4614,8.4614,8.4614,8.4614,8.4614,8.4614,8.4614,8.4614,8.4614,8.4614,8.4614,8.4614,8.4614,8.4614,8.4614,8.4614,8.4614,8.1489,8.3361,8.4792,8.5608,8.761,8.94,8.94,9.1794,9.4042,9.4272,9.5437,9.6685,9.7723,9.8557,9.9428,10.0393,10.11,10.1504,10.1504,10.1504,10.1504,10.1504,10.1504,10.1504,10.1504,10.2191,10.2915,10.3513,10.4493,10.5411,10.6009,10.6313,10.6386,10.6386,10.6386,10.6386,10.6386,10.6386,10.6313,10.6093,10.5411,10.4604,10.3596,10.2999,10.2301,10.1504,10.1504,10.1504,10.1504,10.1504,10.1504,10.1504,10.1504,10.1504,10.1504,10.1504,10.1504,10.1504,10.1504,10.1504,10.1504,10.1504,10.1504,10.1614,10.2191,10.2512,10.2999,10.421,10.4787,10.518,10.5899,10.6192,10.6386,10.6386,10.5705,10.4787,10.3806,10.3311,10.2301,9.9915,9.8123,9.6359,9.4431,9.1856,8.9505,8.7853,8.6452,8.5373,8.482,8.4667,8.4614,8.4614,8.4614,8.4614,8.4614,8.4614,8.4614,8.4614,8.4614,8.4614,8.4614,8.4614,8.4614,8.4614,8.4614,8.4614,8.4614,8.4614,8.4614,8.4614,8.4614,8.4614,8.1937,8.3361,8.4792,8.5608,8.761,8.94,8.94,9.1354,9.3382,9.4153,9.496,9.6052,9.7613,9.8557,9.9622,10.121,10.1514,10.1504,10.1504,10.1504,10.1504,10.1504,10.1504,10.1504,10.1504,10.2191,10.2695,10.2815,10.42,10.5107,10.5191,10.6019,10.6386,10.6386,10.6386,10.6386,10.6386,10.6386,10.6009,10.5191,10.5107,10.431,10.2815,10.2695,10.2301,10.1504,10.1504,10.1504,10.1504,10.1504,10.1504,10.1504,10.1504,10.1504,10.1504,10.1504,10.1504,10.1504,10.1504,10.1504,10.1504,10.1504,10.1504,10.1504,10.1504,10.2081,10.2695,10.2805,10.3906,10.5117,10.5191,10.5789,10.6386,10.6386,10.5705,10.4714,10.3099,10.1981,10.1215,10.0818,9.912,9.7481,9.6669,9.3933,9.1293,8.9527,8.7913,8.6461,8.5231,8.48,8.4614,8.4614,8.4614,8.4614,8.4614,8.4614,8.4614,8.4614,8.4614,8.4614,8.4614,8.4614,8.4614,8.4614,8.4614,8.4614,8.4614,8.4614,8.4614,8.4614,8.4614,8.4614,8.3251,8.4168,8.4939,8.6261,8.8014,8.94,8.94,9.1317,9.3345,9.4125,9.4951,9.5978,9.7613,9.8557,9.9465,10.0586,10.121,10.1504,10.1504,10.1504,10.1504,10.1504,10.1504,10.1504,10.1504,10.1798,10.2118,10.2705,10.3209,10.3796,10.432,10.5081,10.5605,10.5605,10.6082,10.6386,10.6386,10.5778,10.5411,10.5117,10.409,10.3293,10.2705,10.2201,10.1798,10.1504,10.1504,10.1504,10.1504,10.1504,10.1504,10.1504,10.1504,10.1504,10.1504,10.1504,10.1504,10.1504,10.1504,10.1504,10.1504,10.1504,10.1504,10.1504,10.1504,10.1688,10.2008,10.2595,10.3099,10.3686,10.421,10.4588,10.4698,10.409,10.3806,10.3293,10.2201,10.1515,10.1106,10.0886,9.9609,9.8172,9.6905,9.4512,9.2011,8.9741,8.8033,8.6534,8.5257,8.4813,8.4614,8.4614,8.4614,8.4614,8.4614,8.4614,8.4614,8.4614,8.4614,8.4614,8.4614,8.4614,8.4614,8.4614,8.4614,8.4614,8.4614,8.4614,8.4614,8.4614,8.4614,8.4614,8.4087,8.4792,8.5306,8.6656,8.8189,8.94,8.94,9.1097,9.2905,9.3712,9.4556,9.5501,9.6832,9.797,9.8961,9.9769,10.0586,10.11,10.11,10.1284,10.1504,10.1504,10.1504,10.1504,10.1504,10.1504,10.1688,10.2301,10.2512,10.2915,10.3513,10.4284,10.4714,10.4714,10.5285,10.5616,10.5616,10.5018,10.4604,10.431,10.3209,10.2595,10.2301,10.1688,10.1504,10.1504,10.1504,10.1504,10.1504,10.1504,10.1504,10.1504,10.1504,10.1504,10.1504,10.1504,10.1504,10.1504,10.1504,10.1504,10.1504,10.1504,10.1504,10.1504,10.1504,10.1504,10.1614,10.2118,10.2485,10.2805,10.3403,10.3696,10.3696,10.2889,10.2695,10.2485,10.1688,10.1393,10.1183,10.1002,10.0009,9.8759,9.7327,9.5334,9.312,9.0638,8.8857,8.731,8.5933,8.516,8.4733,8.4593,8.4614,8.4614,8.4614,8.4614,8.4614,8.4614,8.4614,8.4614,8.4614,8.4614,8.4614,8.4614,8.4614,8.4614,8.4614,8.4614,8.4614,8.4614,8.4614,8.4614,0.0,0.0,0.0,8.6803,8.8189,8.94,8.94,9.062,9.206,9.2941,9.3749,9.4556,9.5354,9.6795,9.8127,9.8915,9.9732,10.0293,10.0293,10.0907,10.1394,10.1394,10.1514,10.1514,10.1514,10.1504,10.1504,10.1504,10.2191,10.2705,10.2705,10.3403,10.389,10.389,10.389,10.389,10.389,10.389,10.3513,10.2695,10.2705,10.2312,10.1504,10.1504,10.1504,10.1504,10.1504,10.1504,10.1504,10.1504,10.1504,10.1504,10.1504,10.1504,10.1504,10.1504,10.1504,10.1504,10.1504,10.1504,10.1504,10.1504,10.1504,10.1504,10.1504,10.1504,10.1504,10.1504,10.2091,10.2705,10.2705,10.3209,10.3586,10.2889,10.2705,10.2485,10.1688,10.1504,10.1397,10.1183,10.0391,9.9323,9.8056,9.657,9.4739,9.2376,9.0533,8.8829,8.7221,8.5872,8.4958,8.4654,8.4614,8.4614,8.4614,8.4614,8.4614,8.4614,8.4614,8.4614,8.4614,8.4614,8.4614,8.4614,8.4614,8.4614,8.4614,8.4614,8.4614,8.4614,8.4614,8.4614,8.438,0.0,0.0,0.0,0.0,0.0,8.94,9.062,9.206,9.2941,9.3749,9.4556,9.5354,9.6345,9.7089,9.7346,9.8511,9.9428,9.9428,9.9622,9.9769,9.9769,10.0293,10.0613,10.0613,10.121,10.1504,10.1504,10.1688,10.1788,10.1788,10.2595,10.3293,10.389,10.389,10.389,10.389,10.3293,10.2879,10.2695,10.2081,10.1688,10.1504,10.1504,10.1504,10.1504,10.1504,10.1504,10.1504,10.1504,10.1504,10.1504,10.1504,10.1504,10.1504,10.1504,10.1504,10.1504,10.1504,10.1504,10.1504,10.1504,10.1504,10.1504,10.1504,10.1504,10.1504,10.1504,10.1688,10.1788,10.1788,10.1981,10.2091,10.1908,10.1788,10.1798,10.1504,10.1504,10.1397,10.1183,10.0809,10.0113,9.8875,9.741,9.5572,9.3203,9.0884,8.8829,8.7221,8.5872,8.4958,8.4654,8.4614,8.4614,8.4614,8.4614,8.4614,8.4614,8.4614,8.4614,8.4614,8.4614,8.4614,8.4614,8.4614,8.4614,8.4614,8.4614,8.4614,8.4614,8.4614,8.4614,0.0,8.5673,8.6407,8.6876,0.0,0.0,8.94,9.062,9.195,9.2464,9.3235,9.3932,9.44,9.5428,9.6199,9.6199,9.7263,9.8227,9.8557,9.8878,9.9098,9.9098,9.9502,9.9805,9.9805,10.0209,10.0613,10.099,10.099,10.11,10.1514,10.1898,10.2412,10.2899,10.2899,10.2899,10.2899,10.2412,10.2191,10.2191,10.1688,10.1504,10.1504,10.1504,10.1504,10.1504,10.1504,10.1504,10.1504,10.1504,10.1504,10.1504,10.1504,10.1504,10.1504,10.1504,10.1504,10.1504,10.1504,10.1504,10.1504,10.1504,10.1504,10.1504,10.1504,10.1504,10.1504,10.1504,10.1504,10.1504,10.1504,10.1504,10.1504,10.1504,10.1504,10.1504,10.1504,10.1504,10.151,10.1295,10.109,10.061,9.947,9.8111,9.6482,9.4475,9.2047,8.9866,8.8216,8.6779,8.5613,8.4887,8.4694,8.4614,8.4614,8.4614,8.4614,8.4614,8.4614,8.4614,8.4614,8.4614,8.4614,8.4614,8.4614,8.4614,8.4614,8.4614,8.4614,8.4614,8.4614,8.4614,8.5608,0.0,0.0,0.0,0.0,0.0,8.94,9.062,9.1803,9.1803,9.2501,9.3088,9.3088,9.4327,9.5354,9.5354,9.5988,9.6759,9.7649,9.8374,9.8841,9.8841,9.8915,9.8951,9.8951,9.9061,9.9392,10.0099,10.0209,10.0613,10.1284,10.1514,10.1504,10.1504,10.1504,10.1504,10.1504,10.1504,10.1504,10.1504,10.1504,10.1504,10.1504,10.1504,10.1504,10.1504,10.1504,10.1504,10.1504,10.1504,10.1504,10.1504,10.1504,10.1504,10.1504,10.1504,10.1504,10.1504,10.1504,10.1504,10.1504,10.1504,10.1504,10.1504,10.1504,10.1504,10.1504,10.1504,10.1504,10.1504,10.1504,10.1504,10.1504,10.1504,10.1587,10.1614,10.1614,10.1614,10.1614,10.1614,10.1405,10.0886,9.9901,9.8716,9.7416,9.5878,9.3623,9.1481,8.9647,8.7986,8.6521,8.5244,8.48,8.4614,8.4614,8.4614,8.4614,8.4614,8.4614,8.4614,8.4614,8.4614,8.4614,8.4614,8.4614,8.4614,8.4614,8.4614,8.4614,8.4614,8.4614,8.4614,0.0,0.0,0.0,0.0,0.0,0.0,8.94,9.062,9.1803,9.1803,9.2501,9.3088,9.3088,9.3896,9.452,9.452,9.4676,9.53,9.6722,9.7052,9.7163,9.7163,9.775,9.8127,9.8127,9.8741,9.9172,9.9318,9.9916,10.0403,10.0503,10.11,10.1504,10.1504,10.1504,10.1504,10.1504,10.1504,10.1504,10.1504,10.1504,10.1504,10.1504,10.1504,10.1504,10.1504,10.1504,10.1504,10.1504,10.1504,10.1504,10.1504,10.1504,10.1504,10.1504,10.1504,10.1504,10.1504,10.1504,10.1504,10.1504,10.1504,10.1504,10.1504,10.1504,10.1504,10.1504,10.1504,10.1504,10.1504,10.1504,10.1504,10.1504,10.1504,10.2008,10.2485,10.2485,10.2485,10.2485,10.2485,10.1808,10.1116,10.061,9.9562,9.8233,9.6703,9.4453,9.2093,8.9716,8.7986,8.6521,8.5244,8.48,8.4614,8.4614,8.4614,8.4614,8.4614,8.4614,8.4614,8.4614,8.4614,8.4614,8.4614,8.4614,8.4614,8.4614,8.4614,8.4614,8.4614,8.4614,8.4614,0.0,0.0,0.0,8.75,0.0,0.0,0.0,9.0913,9.1803,9.1803,9.2134,9.2464,9.2464,9.3125,9.3712,9.3712,9.4052,9.4593,9.5401,9.5841,9.6088,9.6088,9.6795,9.7309,9.7309,9.7676,9.807,9.8484,9.9255,9.9695,9.9695,10.0513,10.0917,10.0917,10.1284,10.1504,10.1504,10.1504,10.1504,10.1504,10.1504,10.1504,10.1504,10.1504,10.1504,10.1504,10.1504,10.1294,10.0917,10.0917,10.0696,10.0319,10.0686,10.0696,10.0283,10.0283,10.0586,10.0917,10.0917,10.121,10.1504,10.1504,10.1504,10.1504,10.1504,10.1504,10.1504,10.1504,10.1504,10.1504,10.1504,10.1504,10.1614,10.2008,10.2412,10.2805,10.3219,10.3293,10.3293,10.3293,10.2587,10.17,10.1116,10.0083,9.9023,9.7998,9.5863,9.3616,9.157,8.9486,8.7648,8.6199,8.532,8.4786,8.4593,8.4614,8.4614,8.4614,8.4614,8.4614,8.4614,8.4614,8.4614,8.4614,8.4614,8.4614,8.4614,8.4614,8.4614,8.4614,8.4614,8.4614,0.0,0.0,0.0,0.0,0.0,8.9803,0.0,0.0,0.0,9.1803,9.1803,9.1803,9.1803,9.2391,9.2868,9.2868,9.3382,9.3832,9.3832,9.451,9.5098,9.5244,9.5978,9.6465,9.6465,9.6612,9.6979,9.7613,9.8411,9.8888,9.8888,9.9622,10.0089,10.0283,10.0907,10.132,10.1504,10.1504,10.1504,10.1504,10.1504,10.1504,10.1504,10.1504,10.1504,10.1504,10.132,10.0917,10.0283,10.0099,9.9585,9.8961,9.9769,9.9659,9.9098,9.9098,9.9502,10.0099,10.0099,10.0613,10.1294,10.1294,10.1394,10.1504,10.1504,10.1504,10.1504,10.1504,10.1504,10.1504,10.1504,10.1504,10.1688,10.2522,10.2805,10.3182,10.399,10.41,10.41,10.41,10.3513,10.2597,10.1612,10.06,9.9687,9.9082,9.7147,9.5121,9.3404,9.1118,8.8943,8.7195,8.5996,8.5128,8.464,8.4614,8.4614,8.4614,8.4614,8.4614,8.4614,8.4614,8.4614,8.4614,8.4614,8.4614,8.4614,8.4614,8.4614,8.4614,8.4614,8.4614,0.0,0.0,0.0,0.0,8.9886,0.0,0.0,0.0,9.1803,9.1803,0.0,9.1803,9.1803,0.0,0.0,9.195,9.2024,9.2069,9.2069,9.2831,9.3639,9.4336,9.5134,9.5648,9.5648,9.6272,9.6722,9.6832,9.7576,9.8053,9.8053,9.8814,9.9548,10.0293,10.0393,10.0806,10.1504,10.1504,10.1504,10.1504,10.1504,10.1504,10.1504,10.1504,10.1504,10.1514,10.0686,10.0393,10.0209,9.9548,9.8778,9.8127,9.8915,9.9172,9.9098,9.9098,9.9172,9.9245,9.9245,9.9769,10.0393,10.0393,10.0907,10.1504,10.1504,10.1504,10.1504,10.1504,10.1504,10.1504,10.1504,10.1504,10.1688,10.2522,10.3209,10.399,10.4787,10.5007,10.5007,10.5007,10.431,10.3404,10.2406,10.1383,10.0285,9.9154,9.7615,9.574,9.3475,9.1561,8.9498,8.7229,8.644,8.5685,8.4674,8.4614,8.4614,8.4614,8.4614,8.4614,8.4614,8.4614,8.4614,8.4614,8.4614,8.4614,8.4614,8.4614,8.4614,8.4614,8.4614,8.4614,0.0,0.0,0.0,0.0,0.0,0.0,0.0,0.0,9.1803,0.0,0.0,0.0,0.0,0.0,0.0,0.0,9.1803,9.1803,9.1803,9.2097,9.2648,9.3492,9.4299,9.4987,9.5465,9.6235,9.6685,9.6685,9.7016,9.7199,9.7199,9.797,9.8557,9.8898,9.9365,9.9989,10.0806,10.0806,10.098,10.1504,10.1504,10.1504,10.1504,10.1504,10.12,10.0806,10.0393,9.9769,9.8898,9.8521,9.7933,9.7236,9.7566,9.7703,9.7703,9.7703,9.8007,9.8411,9.8411,9.8924,9.9695,10.0089,10.0796,10.1504,10.1504,10.1504,10.1504,10.1504,10.1504,10.1504,10.1504,10.1504,10.1798,10.3109,10.3707,10.4294,10.5605,10.5899,10.5899,10.5899,10.5201,10.4509,10.4002,10.2704,10.1319,10.021,9.8893,9.7345,9.5469,9.3392,9.1113,8.8647,8.7345,8.6175,8.5,8.472,8.4614,8.4614,8.4614,8.4614,8.4614,8.4614,8.4614,8.4614,8.4614,8.4614,8.4614,8.4614,8.4614,8.4614,8.4614,8.4614,8.9657,0.0,0.0,0.0,0.0,0.0,0.0,0.0,0.0,0.0,0.0,0.0,0.0,0.0,0.0,0.0,0.0,9.1803,9.1803,9.1803,9.2024,9.2684,9.3455,9.4373,9.5391,9.6015,9.6465,9.6685,9.6685,9.6685,9.6685,9.7246,9.7686,9.7906,9.8484,9.9255,10.0283,10.0283,10.0696,10.1504,10.1504,10.1504,10.1504,10.1294,10.088,10.0293,9.9842,9.8971,9.787,9.7649,9.7236,9.6685,9.6685,9.6685,9.6685,9.6685,9.7052,9.7576,9.7576,9.808,9.8924,9.9952,10.0696,10.121,10.1394,10.1504,10.1504,10.1504,10.1504,10.1504,10.1504,10.1504,10.1918,10.3182,10.3696,10.4284,10.5715,10.6192,10.6386,10.6386,10.5899,10.5411,10.5107,10.362,10.2109,10.1314,9.9925,9.8511,9.7194,9.4976,9.2633,9.0284,8.8422,8.6829,8.5516,8.4901,8.4614,8.4614,8.4614,8.4614,8.4614,8.4614,8.4614,8.4614,8.4614,8.4614,8.4614,8.4614,8.4614,8.4614,8.4614,8.4614,0.0,0.0,0.0,9.1546,0.0,0.0,0.0,0.0,9.1803,0.0,0.0,0.0,0.0,0.0,0.0,0.0,0.0,0.0,0.0,0.0,0.0,9.1849,9.2611,9.3776,9.5354,9.5538,9.5868,9.6649,9.6685,9.6685,9.6685,9.6722,9.7089,9.787,9.7943,9.8714,10.0293,10.0283,10.0696,10.1504,10.1504,10.1504,10.1514,10.0696,10.0319,10.0209,9.8641,9.7943,9.7833,9.7052,9.6722,9.6685,9.6685,9.6685,9.6685,9.6685,9.6722,9.6722,9.6722,9.7273,9.82,9.9769,10.0319,10.0513,10.1294,10.1504,10.1504,10.1504,10.1504,10.1504,10.1504,10.1504,10.1688,10.2512,10.3293,10.41,10.5007,10.5789,10.6386,10.6386,10.6386,10.6093,10.518,10.362,10.2302,10.2101,10.03,9.8717,9.7959,9.583,9.3644,9.1806,8.9562,8.7617,8.6265,8.5206,8.4614,8.4614,8.4614,8.4614,8.4614,8.4614,8.4614,8.4614,8.4614,8.4614,8.4614,8.4614,8.4614,8.4614,8.4614,8.4614,0.0,0.0,9.2464,9.3235,0.0,0.0,0.0,0.0,0.0,0.0,0.0,0.0,0.0,0.0,0.0,0.0,0.0,0.0,0.0,0.0,0.0,0.0,0.0,0.0,0.0,0.0,9.5611,9.5905,9.6392,9.6685,9.6685,9.6685,9.6832,9.7089,9.7126,9.7603,9.8714,9.8714,9.9375,10.0686,10.0686,10.0686,10.0696,10.0393,9.9732,9.8677,9.8127,9.7613,9.7089,9.6795,9.6685,9.6685,9.6685,9.6685,9.6685,9.6685,9.6685,9.6685,9.6685,9.7236,9.798,9.853,9.9448,10.0403,10.0613,10.11,10.1504,10.1504,10.1504,10.1504,10.1504,10.1504,10.1688,10.2522,10.3293,10.41,10.4887,10.5789,10.6386,10.6386,10.6386,10.6313,10.6009,10.4992,10.3902,10.319,10.1881,10.0703,9.9562,9.7373,9.5107,9.2915,9.0464,8.8379,8.6864,8.5419,8.4614,8.4614,8.4614,8.4614,8.4614,8.4614,8.4614,8.4614,8.4614,8.472,8.4932,8.4932,8.5116,8.548,8.548,8.5134,9.3382,9.3529,0.0,9.4162,9.4309,0.0,9.4309,0.0,0.0,0.0,0.0,0.0,0.0,0.0,0.0,0.0,0.0,0.0,0.0,0.0,0.0,0.0,0.0,0.0,0.0,0.0,0.0,9.5465,9.5978,9.6392,9.6685,9.6685,9.6685,9.6685,9.6685,9.7089,9.7906,9.7906,9.8557,9.9879,9.9879,9.9879,9.9879,9.9585,9.8898,9.787,9.7613,9.7163,9.6685,9.6685,9.6685,9.6685,9.6685,9.6685,9.6685,9.6685,9.6685,9.6685,9.6685,9.7052,9.7539,9.7796,9.8787,9.9916,10.0209,10.0917,10.1504,10.1504,10.1504,10.1504,10.1504,10.1504,10.1614,10.2118,10.2889,10.3696,10.4504,10.5301,10.6009,10.6302,10.6386,10.6386,10.6386,10.5899,10.5201,10.4184,10.3193,10.1996,10.0811,9.8816,9.6646,9.4267,9.1747,8.9271,8.6911,8.5419,8.4667,8.4773,8.4786,8.4866,8.5043,8.5043,8.5095,8.5186,8.5186,8.5325,8.5519,8.5323,8.5381,8.5721,8.5533,8.5145]},{"header":{"parameterUnit":"m.s-1","parameterCategory":1,"la1":30.6,"la2":29.2853,"lo1":-89.7004,"lo2":-87.6739,"dx":0.0162,"dy":0.0183,"nx":112,"ny":82,"refTime":"2022-11-12T06:00:00:Z","depth":0,"parameterNumber":3,"parameterNumberName":"V-component_of_WINDS"},"data":[0.0,0.0,0.0,0.0,0.0,0.0,0.0,0.0,0.0,0.0,0.0,0.0,0.0,0.0,0.0,0.0,0.0,0.0,0.0,0.0,0.0,0.0,0.0,0.0,0.0,0.0,0.0,0.0,0.0,0.0,0.0,0.0,0.0,0.0,0.0,0.0,0.0,0.0,0.0,0.0,0.0,0.0,0.0,0.0,0.0,0.0,0.0,0.0,0.0,0.0,0.0,0.0,0.0,0.0,0.0,0.0,0.0,0.0,0.0,0.0,0.0,0.0,0.0,0.0,0.0,0.0,0.0,0.0,0.0,0.0,0.0,0.0,0.0,0.0,0.0,0.0,0.0,0.0,0.0,0.0,0.0,0.0,0.0,0.0,0.0,0.0,0.0,0.0,0.0,0.0,0.0,1.4304,1.6446,1.7843,1.8097,1.7019,1.5611,1.3926,0.0,0.0,0.0,0.0,0.0,0.0,0.0,0.0,0.0,0.0,0.0,0.0,0.0,0.0,0.0,0.0,0.0,0.0,0.0,0.0,0.0,0.0,0.0,0.0,0.0,0.0,0.0,0.0,0.0,0.0,0.0,0.0,0.0,0.0,0.0,0.0,0.0,0.0,0.0,0.0,0.0,0.0,0.0,0.0,0.0,0.0,0.0,0.0,0.0,0.0,0.0,0.0,0.0,0.0,0.0,0.0,0.0,0.0,0.0,0.0,0.0,0.0,0.0,0.0,0.0,0.0,0.0,0.0,0.0,0.0,0.0,0.0,0.0,0.0,0.0,0.0,0.0,0.0,0.0,0.0,0.0,0.0,0.0,0.0,0.0,0.0,0.0,0.0,0.0,0.0,0.0,0.0,0.0,0.0,0.0,0.0,0.0,0.0,0.0,0.0,0.0,0.0,0.0,0.0,1.4125,1.7734,1.9351,2.001,1.9599,1.8217,1.7016,1.6151,0.0,0.0,0.0,0.0,0.0,0.0,0.0,0.0,0.0,0.0,0.0,0.0,0.0,0.0,0.0,0.0,0.0,0.0,0.0,0.0,0.0,0.0,0.0,0.0,0.0,0.0,0.0,0.0,0.0,0.0,0.0,0.0,0.0,0.0,0.0,0.0,0.0,0.0,0.0,0.0,0.0,0.0,0.0,0.0,0.0,0.0,0.0,0.0,0.0,0.0,0.0,0.0,0.0,0.0,0.0,0.0,0.0,0.0,0.0,0.0,0.0,0.0,0.0,0.0,0.0,0.0,0.0,0.0,0.0,0.0,0.0,0.0,0.0,0.0,0.0,0.0,0.0,0.0,0.0,0.0,0.0,0.0,0.0,0.0,0.0,0.0,0.0,0.0,0.0,0.0,0.0,0.0,0.0,0.0,0.0,0.0,0.0,0.0,0.0,0.0,0.0,0.0,0.0,1.4405,1.7006,1.9704,2.1026,2.1653,2.1499,2.0234,1.9095,1.829,1.5316,0.0,0.0,0.0,0.0,0.0,0.0,0.0,0.0,0.0,0.0,0.0,0.0,0.0,0.0,0.0,0.0,0.0,0.0,0.0,0.0,0.0,0.0,0.0,0.0,0.0,0.0,0.0,0.0,0.0,0.0,0.0,0.0,0.0,0.0,0.0,0.0,0.0,0.0,0.0,0.0,0.0,0.0,0.0,0.0,0.0,0.0,0.0,0.0,0.0,0.0,0.0,0.0,0.0,0.0,0.0,0.0,0.0,0.0,0.0,0.0,0.0,0.0,0.0,0.0,0.0,0.0,0.0,0.0,0.0,0.0,0.0,0.0,0.0,0.0,0.0,0.0,0.0,0.0,0.0,0.0,0.0,0.0,0.0,0.0,0.0,0.0,0.0,0.0,0.0,0.0,0.0,0.0,0.0,0.0,0.0,0.0,0.0,0.0,0.0,0.0,0.0,0.0,1.7178,1.9502,2.1197,2.2237,2.2886,2.2986,2.1724,2.0722,2.0269,1.8208,0.0,0.0,0.0,0.0,0.0,0.0,0.0,0.0,0.0,0.0,0.0,0.0,0.0,0.0,0.0,0.0,0.0,0.0,0.0,0.0,0.0,0.0,0.0,0.0,0.0,0.0,0.0,0.0,0.0,0.0,0.0,0.0,0.0,0.0,0.0,0.0,0.0,0.0,0.0,0.0,0.0,0.0,0.0,0.0,0.0,0.0,0.0,0.0,0.0,0.0,0.0,0.0,0.0,0.0,0.0,0.0,0.0,0.0,0.0,0.0,0.0,0.0,0.0,0.0,0.0,0.0,0.0,0.0,0.0,0.0,0.0,0.0,0.0,0.0,0.0,0.0,0.0,0.0,0.0,0.0,0.0,0.0,0.0,0.0,0.0,0.0,0.0,0.0,0.0,0.0,0.0,0.0,0.0,0.0,0.0,0.0,0.0,0.0,0.0,0.0,0.0,0.0,1.815,2.0621,2.2547,2.3209,2.3533,2.3541,2.18,2.112,2.2041,1.8902,0.0,0.0,0.0,0.0,0.0,0.0,0.0,0.0,0.0,0.0,0.0,0.0,0.0,0.0,0.0,0.0,0.0,0.0,0.0,0.0,0.0,0.0,0.0,0.0,0.0,0.0,0.0,0.0,0.0,0.0,0.0,0.0,0.0,0.0,0.0,0.0,0.0,0.0,0.0,0.0,0.0,0.0,0.0,0.0,0.0,0.0,0.0,0.0,0.0,0.0,0.0,0.0,0.0,0.0,0.0,0.0,0.0,0.0,0.0,0.0,0.0,0.0,0.0,0.0,0.0,0.0,0.0,0.0,0.0,0.0,0.0,0.0,0.0,0.0,0.0,0.0,0.0,0.0,0.0,0.0,0.0,0.0,0.0,0.0,0.0,0.0,0.0,0.0,0.0,0.0,0.0,0.0,0.0,0.0,0.0,0.0,0.0,0.0,0.0,0.0,0.0,0.0,1.9101,2.1417,0.0,2.3867,2.4117,2.3857,2.2754,2.224,2.2658,0.0,0.0,0.0,0.0,0.0,0.0,0.0,0.0,0.0,0.0,0.0,0.0,0.0,0.0,0.0,0.0,0.0,0.0,0.0,0.0,0.0,0.0,0.0,0.0,0.0,0.0,0.0,0.0,0.0,0.0,0.0,0.0,0.0,0.0,0.0,0.0,0.0,0.0,0.0,0.0,0.0,0.0,0.0,0.0,0.0,0.0,0.0,0.0,0.0,0.0,0.0,0.0,0.0,0.0,0.0,0.0,0.0,0.0,0.0,0.0,0.0,0.0,0.0,0.0,0.0,0.0,0.0,0.0,0.0,0.0,0.0,0.0,0.0,0.0,0.0,0.0,0.0,0.0,0.0,0.0,0.0,0.0,0.0,0.0,0.0,0.0,0.0,0.0,0.0,0.0,0.0,0.0,0.0,0.0,0.0,0.0,0.0,0.0,0.0,0.0,0.0,0.0,1.7119,1.9758,2.1933,0.0,2.4258,2.4448,2.4032,2.2961,2.1739,2.0436,0.0,0.0,0.0,0.0,0.0,0.0,0.0,0.0,0.0,0.0,0.0,0.0,0.0,0.0,0.0,0.0,0.0,0.0,0.0,0.0,0.0,0.0,0.0,0.0,0.0,0.0,0.0,0.0,0.0,0.0,0.0,0.0,0.0,0.0,0.0,0.0,0.0,0.0,0.0,0.0,0.0,0.0,0.0,0.0,0.0,0.0,0.0,0.0,0.0,0.0,0.0,0.0,0.0,0.0,0.0,0.0,0.0,0.0,0.0,0.0,0.0,0.0,0.0,0.0,0.0,0.0,0.0,0.0,0.0,0.0,0.0,0.0,0.0,0.0,0.0,0.0,0.0,0.0,0.0,0.0,0.0,0.0,0.0,0.0,0.0,0.0,0.0,0.0,0.0,0.0,0.0,0.0,0.0,0.0,0.0,0.0,0.0,0.0,0.0,0.0,0.0,0.0,1.7396,2.0028,2.223,2.3844,2.4372,2.4461,2.4032,2.2172,1.9285,0.0,0.0,0.0,0.0,0.0,0.0,0.0,0.0,0.0,0.0,0.0,0.0,0.0,0.0,0.0,0.0,0.0,0.0,0.0,0.0,0.0,0.0,0.0,0.0,0.0,0.0,0.0,0.0,0.0,0.0,0.0,0.0,0.0,0.0,0.0,0.0,0.0,0.0,0.0,0.0,0.0,0.0,0.0,0.0,0.0,0.0,0.0,0.0,0.0,0.0,0.0,0.0,0.0,0.0,0.0,0.0,0.0,0.0,0.0,0.0,0.0,0.0,0.0,0.0,0.0,0.0,0.0,0.0,0.0,0.0,0.0,0.0,0.0,0.0,0.0,0.0,0.0,0.0,0.0,0.0,0.0,0.0,0.0,0.0,0.0,0.0,0.0,0.0,0.0,0.0,0.0,0.0,0.0,0.0,0.0,0.0,0.0,0.0,0.0,0.0,0.0,0.0,0.0,1.863,2.0927,2.2963,2.4869,2.5156,2.501,2.4471,2.3065,2.0789,1.7496,0.0,0.0,0.0,0.0,0.0,0.0,0.0,0.0,0.0,0.0,0.0,0.0,0.0,0.0,0.0,0.0,0.0,0.0,0.0,0.0,0.0,0.0,0.0,0.0,0.0,0.0,0.0,0.0,0.0,0.0,0.0,0.0,0.0,0.0,0.0,0.0,0.0,0.0,0.0,0.0,0.0,0.0,0.0,0.0,0.0,0.0,0.0,0.0,0.0,0.0,0.0,0.0,0.0,0.0,0.0,0.0,0.0,0.0,0.0,0.0,0.0,0.0,0.0,0.0,0.0,0.0,0.0,0.0,0.0,0.0,0.0,0.0,0.0,0.0,0.0,0.0,0.0,0.0,0.0,0.0,0.0,0.0,0.0,0.0,0.0,0.0,0.0,0.0,0.0,0.0,0.0,0.0,0.0,0.0,0.0,0.0,0.0,0.0,0.0,0.0,0.0,0.0,1.9482,2.1721,2.3662,2.5318,2.5718,2.5575,2.4852,2.3747,2.1988,1.9382,0.0,0.0,0.0,0.0,0.0,0.0,0.0,0.0,0.0,0.0,0.0,0.0,0.0,0.0,0.0,0.0,0.0,0.0,0.0,0.0,0.0,0.0,0.0,0.0,0.0,0.0,0.0,0.0,0.0,0.0,0.0,0.0,0.0,0.0,0.0,0.0,0.0,0.0,0.0,0.0,0.0,0.0,0.0,0.0,0.0,0.0,0.0,0.0,0.0,0.0,0.0,0.0,0.0,0.0,0.0,0.0,0.0,0.0,0.0,0.0,0.0,0.0,0.0,0.0,0.0,0.0,0.0,0.0,0.0,0.0,0.0,0.0,0.0,0.0,0.0,0.0,0.0,0.0,0.0,0.0,0.0,0.0,0.0,0.0,0.0,0.0,0.0,0.0,0.0,0.0,0.0,0.0,0.0,0.0,0.0,0.0,0.0,0.0,0.0,0.0,0.0,0.0,2.0095,2.2504,2.4367,2.5549,2.6146,2.6152,2.5296,2.438,2.3002,2.0973,0.0,0.0,0.0,0.0,0.0,0.0,0.0,0.0,0.0,0.0,0.0,0.0,0.0,0.0,0.0,0.0,0.0,0.0,0.0,0.0,0.0,0.0,0.0,0.0,0.0,0.0,0.0,0.0,0.0,0.0,0.0,0.0,0.0,0.0,0.0,0.0,0.0,0.0,0.0,0.0,0.0,0.0,0.0,0.0,0.0,0.0,0.0,0.0,0.0,0.0,0.0,0.0,0.0,0.0,0.0,0.0,0.0,0.0,0.0,0.0,0.724,0.0,0.0,0.0,0.0,0.0,0.0,0.0,0.0,0.0,0.0,0.0,0.0,0.0,0.0,0.0,0.0,0.0,0.0,0.0,0.0,0.0,0.0,0.0,0.0,0.0,0.0,0.0,0.0,0.0,0.0,0.0,0.0,0.0,0.0,0.0,0.0,0.0,0.0,0.0,0.0,0.0,2.117,2.3403,2.5302,2.676,2.7021,2.6834,2.6179,2.5456,2.4382,2.2826,2.123,0.0,0.0,0.0,0.0,0.0,0.0,0.0,0.0,0.0,0.0,0.0,0.0,0.0,0.0,0.0,0.0,0.0,0.0,0.0,0.0,0.0,0.0,0.0,0.0,0.0,0.0,0.0,0.0,0.0,0.0,0.0,0.0,0.0,0.0,0.0,0.0,0.0,0.0,0.0,0.0,0.0,0.0,0.0,0.0,0.0,0.0,0.0,0.0,0.0,0.0,0.0,0.0,0.0,0.0,0.0,0.0,0.0,0.0,0.0,0.0,0.7816,0.0,0.0,0.0,0.0,0.0,0.0,0.0,0.0,0.0,0.0,0.0,0.0,0.0,0.0,0.0,0.0,0.0,0.0,0.0,0.0,0.0,0.0,0.0,0.0,0.0,0.0,0.0,0.0,0.0,0.0,0.0,0.0,0.0,0.0,0.0,0.0,0.0,0.0,0.0,0.0,2.2344,2.4502,2.6188,2.7181,2.7563,2.7496,2.6874,2.6255,2.539,2.4182,2.339,0.0,0.0,0.0,0.0,0.0,0.0,0.0,0.0,0.0,0.0,0.0,0.0,0.0,0.0,0.0,0.0,0.0,0.0,0.0,0.0,0.0,0.0,0.0,0.0,0.0,0.0,0.0,0.0,0.0,0.0,0.0,0.0,0.0,0.0,0.0,0.0,0.0,0.0,0.0,0.0,0.0,0.0,0.0,0.0,0.0,0.0,0.0,0.0,0.0,0.0,0.0,0.0,0.0,1.0551,1.0717,1.0742,1.0815,1.0851,1.079,0.9724,0.9166,0.8968,0.8359,0.0,0.0,0.0,0.0,0.0,0.0,0.0,0.0,0.0,0.0,0.0,0.0,0.0,0.0,0.0,0.0,0.0,0.0,0.0,0.0,0.0,0.0,0.0,0.0,1.9288,1.8466,1.5953,0.0,0.0,0.0,0.0,0.0,0.0,0.0,0.0,0.0,0.0,0.0,2.3587,2.5655,2.7073,2.7541,2.8005,2.8045,2.751,2.6941,2.6254,2.5379,2.5372,2.4425,0.0,0.0,0.0,0.0,0.0,0.0,0.0,0.0,0.0,0.0,0.0,0.0,0.0,0.0,0.0,0.0,0.0,0.0,0.0,0.0,0.0,0.0,0.0,0.0,0.0,0.0,0.0,0.0,0.0,0.0,0.0,0.0,0.7937,0.8343,0.0,0.0,0.0,0.0,0.0,0.0,0.0,0.0,0.0,0.0,0.0,0.0,0.0,0.9932,1.0232,1.0456,1.0663,1.0891,1.1333,1.1599,1.1734,1.2079,1.2245,1.2207,1.1689,0.0,1.0262,1.0155,0.0,0.0,0.0,0.0,0.0,0.0,0.0,0.0,0.0,0.0,0.0,0.0,0.0,0.0,0.0,0.0,0.0,0.0,0.0,0.0,0.0,0.0,2.0745,2.1757,2.186,2.1737,0.0,1.9686,1.7641,1.7408,1.7371,0.0,0.0,0.0,0.0,0.0,0.0,0.0,2.4912,2.6565,2.7873,2.8681,2.8644,2.8425,2.8098,2.7743,2.7261,2.66,2.6359,2.5635,2.4252,2.2701,0.0,0.0,0.0,0.0,0.0,0.0,0.0,0.0,0.0,0.0,0.0,0.0,0.0,0.0,0.0,0.0,0.0,0.0,0.0,0.0,0.0,0.0,0.0,0.0,0.0,0.0,0.0,0.0,0.0,0.8739,0.8971,0.9301,0.9448,0.9579,0.0,0.0,0.0,0.0,0.0,0.0,0.0,0.0,0.0,1.0424,1.0546,1.0791,1.1169,1.1428,1.1683,1.1959,1.2284,1.2462,1.2522,1.27,1.2779,1.2779,1.2581,1.2278,1.1855,1.1258,1.0908,1.072,0.0,0.0,0.0,0.0,0.9201,0.9031,0.8578,0.8545,0.8715,0.8715,0.0,0.0,0.0,0.0,0.0,0.0,0.0,1.8616,0.0,0.0,2.3113,2.408,2.4437,2.4639,2.4906,2.4,2.2667,0.0,2.039,2.0132,2.0022,0.0,0.0,0.0,0.0,2.4216,2.5951,2.7379,2.8364,2.8729,2.881,2.8657,2.824,2.789,2.7589,2.7335,2.7041,2.6526,2.5651,2.4341,2.2736,0.0,0.0,0.0,0.0,0.0,0.0,0.0,0.0,0.0,0.0,0.0,0.0,0.0,0.0,0.0,0.0,0.0,0.0,0.0,0.0,0.0,0.0,0.0,0.0,0.0,0.0,0.0,0.0,0.9707,0.9888,1.0195,1.0362,1.0521,0.0,0.0,0.0,0.0,0.0,0.0,1.0771,1.0886,1.1037,1.1214,1.1365,1.1625,1.2036,1.2305,1.2602,1.2882,1.3078,1.3173,1.3207,1.3207,1.3207,1.3207,1.3207,1.3207,1.3139,1.2206,1.1738,1.1627,1.1627,1.1568,1.1411,1.0745,1.0504,1.0431,0.9854,0.9668,0.9673,0.9724,1.015,1.0659,1.0758,0.0,0.0,0.0,0.0,1.9224,2.1219,2.3158,2.4834,2.5766,2.6425,2.6874,2.6954,2.7121,2.6512,0.0,2.3197,2.2881,2.2556,0.0,0.0,0.0,0.0,2.5309,2.684,2.7963,2.8631,2.8689,2.8823,2.8751,2.8339,2.801,2.7837,2.7837,2.7636,2.7296,2.6747,2.5731,2.4441,2.2893,0.0,0.0,0.0,0.0,0.0,0.0,0.0,0.0,0.0,0.0,0.0,0.0,0.0,0.0,0.0,0.0,0.0,0.0,0.0,0.0,0.0,0.0,0.0,0.0,0.0,0.0,0.0,0.0,0.0,1.0819,1.0857,0.0,0.0,0.0,0.0,1.1536,1.166,1.1827,1.2001,1.2138,1.2328,1.2599,1.2613,1.2713,1.2929,1.3078,1.322,1.337,1.3498,1.3647,1.3754,1.3754,1.3754,1.3754,1.3754,1.3754,1.3707,1.3152,1.2655,1.2255,1.2255,1.2014,1.1673,1.1633,1.1613,1.1631,1.1712,1.1755,1.1773,1.1969,1.2053,1.2177,1.255,1.3329,0.0,0.0,1.7562,1.9512,2.1768,2.3712,2.535,2.6474,2.7446,2.8179,2.843,2.8511,2.7982,0.0,2.6014,2.5795,2.4664,0.0,2.4919,2.4983,2.5745,2.6627,2.7535,2.8217,2.8689,2.8948,2.8756,2.8617,2.8591,2.8318,2.8165,2.8165,2.8173,2.8005,2.7642,2.7034,2.6153,2.497,2.3152,0.0,0.0,0.0,0.0,0.0,0.0,0.0,0.0,0.0,0.0,0.0,0.0,0.0,0.0,0.0,0.0,0.0,0.0,0.0,0.0,0.0,0.0,0.0,0.0,0.0,0.0,0.0,0.0,1.1182,1.1367,0.0,1.1649,1.185,1.1993,1.2047,1.2252,1.2414,1.2488,1.2656,1.2833,1.303,1.3112,1.3234,1.339,1.3511,1.3606,1.366,1.3715,1.3747,1.3795,1.3795,1.3795,1.3795,1.3795,1.3795,1.3781,1.3593,1.3421,1.3274,1.3274,1.317,1.3023,1.2751,1.2667,1.2631,1.236,1.2294,1.2342,1.2716,1.2834,1.2919,1.3322,1.4083,1.5071,1.6323,1.8123,2.0152,2.2287,2.4324,2.6058,2.7075,2.8043,2.8751,2.8836,2.9032,2.8925,2.8075,2.7869,2.7562,2.6747,2.6373,2.6132,2.5965,2.6205,2.6707,2.7589,2.8077,2.8452,2.8703,2.8671,2.8524,2.8366,2.8245,2.8098,2.789,2.7877,2.7743,2.7449,2.7041,2.6453,2.5703,2.4459,2.3023,0.0,0.0,0.0,0.0,0.0,0.0,0.0,0.0,0.0,0.0,0.0,0.0,0.0,0.0,0.0,0.0,0.0,0.0,0.0,0.0,0.0,0.0,0.0,0.0,0.0,0.0,1.1461,1.1617,1.1837,1.1988,1.2035,1.2291,1.2461,1.2534,1.2698,1.2834,1.2929,1.3051,1.322,1.339,1.3498,1.3579,1.3681,1.3877,1.3972,1.3972,1.4052,1.4099,1.4099,1.4099,1.4099,1.4099,1.4099,1.4099,1.4099,1.4099,1.4099,1.4079,1.3876,1.3795,1.378,1.3495,1.3442,1.348,1.3246,1.3201,1.3289,1.3596,1.3705,1.3749,1.4012,1.4777,1.5767,1.6838,1.8602,2.0664,2.2794,2.485,2.6641,2.7656,2.8621,2.9295,2.9295,2.9486,2.9539,2.9223,2.893,2.8564,2.797,2.7442,2.6967,2.66,2.6533,2.6747,2.7321,2.7676,2.8005,2.827,2.839,2.8345,2.8058,2.8031,2.785,2.7428,2.7402,2.7268,2.7008,2.6787,2.6493,2.6125,2.5125,2.3737,2.1994,0.0,0.0,0.0,0.0,0.0,0.0,0.0,0.0,0.0,0.0,0.0,0.0,0.0,0.0,0.0,0.0,0.0,0.0,0.0,0.0,0.0,0.0,0.0,1.1615,1.1719,1.1911,1.2104,1.2235,1.2366,1.2501,1.2638,1.2793,1.3003,1.3023,1.3132,1.3397,1.3417,1.3553,1.3802,1.3815,1.3815,1.3829,1.4141,1.4312,1.4319,1.4581,1.4694,1.4694,1.4694,1.4694,1.4694,1.4694,1.4694,1.4694,1.4694,1.4694,1.4633,1.4052,1.3829,1.3829,1.3829,1.3938,1.4158,1.4421,1.4595,1.4694,1.4694,1.4694,1.4694,1.4701,1.5407,1.6401,1.7339,1.9013,2.0987,2.3214,2.5239,2.6992,2.8196,2.9204,2.9878,2.9864,2.9864,2.9806,2.9526,2.9232,2.8823,2.8286,2.7917,2.7495,2.6887,2.6794,0.0,2.6807,2.7081,2.7395,2.7669,2.8005,2.8072,2.7736,2.7709,2.7455,2.6847,2.6807,2.6694,2.6406,2.6393,2.6373,2.636,2.5218,2.3777,2.2074,0.0,0.0,0.0,0.0,0.0,0.0,0.0,0.0,0.0,0.0,0.0,0.0,0.0,0.0,0.0,0.0,0.0,0.0,0.0,0.0,0.0,0.0,1.2182,1.1991,1.2155,1.2353,1.2528,1.2704,1.2813,1.2854,1.3064,1.3234,1.3295,1.3478,1.3613,1.3694,1.3701,1.3836,1.4141,1.4155,1.4256,1.4444,1.4532,1.4595,1.4595,1.4654,1.4694,1.4694,1.4694,1.4694,1.4694,1.4694,1.4694,1.4694,1.4694,1.4694,1.4681,1.4512,1.4451,1.4451,1.4451,1.45,1.4548,1.4629,1.466,1.4694,1.4694,1.4694,1.4737,1.4875,1.5616,1.6559,1.7258,1.8885,2.0897,2.2917,2.4923,2.67,2.7859,2.8882,2.9539,2.9304,2.9263,2.9237,2.9157,2.8903,2.8604,2.8259,2.7917,2.7495,2.6887,2.662,0.0,2.6767,2.7081,2.7395,2.7669,2.8005,2.8152,2.8072,2.785,2.7556,2.7181,2.6934,2.66,2.6131,2.6118,2.5992,2.5758,2.5224,2.4502,0.0,0.0,0.0,0.0,0.0,0.0,0.0,0.0,0.0,0.0,0.0,0.0,0.0,0.0,0.0,0.0,0.0,0.0,0.0,0.0,0.0,0.0,1.2367,1.2583,1.2555,1.2643,1.2745,1.2813,1.3037,1.3166,1.3166,1.341,1.3566,1.3566,1.37,1.3856,1.4006,1.4013,1.4148,1.4453,1.446,1.4541,1.4694,1.4778,1.4846,1.49,1.4968,1.5028,1.5073,1.5073,1.5073,1.5073,1.5073,1.5073,1.5073,1.5073,1.5073,1.5046,0.0,0.0,0.0,0.0,1.49,1.492,1.5049,1.5073,1.5073,1.5073,1.5073,1.511,1.5221,1.5979,1.6919,1.7458,1.9079,2.1034,2.2708,2.4617,2.6415,2.7452,2.8477,2.9172,2.9033,2.9001,2.8961,2.8863,2.8703,0.0,2.8051,2.7837,2.7535,2.7081,2.676,2.6607,2.678,2.7081,2.7395,2.7669,2.8005,2.8138,2.8005,2.7823,0.0,0.0,0.0,2.6613,2.6198,2.6272,0.0,0.0,0.0,2.5724,2.5117,2.5024,0.0,0.0,2.215,2.1986,0.0,0.0,0.0,0.0,0.0,0.0,0.0,0.0,0.0,0.0,0.0,0.0,0.0,0.0,0.0,0.0,1.2665,1.2881,1.318,1.3125,1.3077,1.3077,1.3281,1.3451,1.3451,1.3681,1.3829,1.387,1.3862,1.4019,1.4333,0.0,0.0,0.0,0.0,1.4755,1.4769,1.497,1.5136,1.5258,1.5371,1.5482,1.5593,1.5593,1.5593,1.5593,1.5593,1.5593,1.5593,1.5593,1.5593,1.5539,1.5005,1.4796,1.4852,1.5133,1.5258,1.5269,1.5523,0.0,0.0,1.5593,1.5624,1.5645,1.5658,1.6424,1.7359,1.7764,1.937,2.1258,2.2491,2.4302,2.6041,2.7014,2.8026,2.8776,2.8896,2.8921,2.8868,2.8657,2.8609,2.8484,2.7936,2.7789,2.7663,2.7382,2.7121,2.6954,2.6954,2.7228,2.7542,2.7776,2.8091,0.0,2.7869,2.7816,2.7575,2.7034,2.6941,2.678,2.6566,2.6787,2.68,2.6547,2.7101,2.7148,2.6607,2.7148,2.7262,2.6954,2.5109,2.4374,0.0,0.0,0.0,0.0,0.0,0.0,0.0,0.0,0.0,0.0,0.0,0.0,0.0,0.0,0.0,1.2867,1.301,1.3152,1.3329,1.3437,1.3478,1.3478,1.3627,1.3714,1.3714,1.3919,1.4097,1.4204,1.4297,1.4439,1.4599,1.4613,1.4717,1.4946,1.5061,1.5153,1.5259,1.5408,1.5496,1.553,1.5557,0.0,1.5593,1.5593,1.5593,1.5593,1.5593,1.5593,1.5593,1.5593,1.5593,1.558,1.5465,1.5442,1.5424,1.5503,1.553,1.5536,1.5566,1.5593,1.5593,1.5593,1.5716,1.5856,1.5961,1.6821,0.0,1.7679,1.9192,2.105,2.2009,2.3745,2.5559,2.6694,2.7711,2.84,2.8366,2.8511,2.8649,2.8617,2.877,2.889,2.8783,2.8398,2.7991,2.7676,2.7797,2.7924,2.7924,2.8171,2.8364,2.843,2.8676,2.8823,2.8748,2.8543,2.8377,2.827,2.7802,2.7509,2.7442,2.7495,2.7495,2.7442,2.7831,2.7985,2.7844,2.7985,2.8091,2.8243,2.7348,2.6961,0.0,0.0,0.0,0.0,0.0,0.0,0.0,0.0,0.0,0.0,0.0,1.2556,0.0,0.0,1.3003,1.318,1.3302,1.3451,1.3579,1.3735,1.3803,1.37,1.3843,1.3987,1.404,1.4204,1.4353,1.4487,1.4561,1.4703,1.495,1.4964,1.5065,1.5296,1.5371,1.5421,1.5503,1.5577,1.5652,1.575,1.5825,1.59,1.5956,1.6024,1.6058,1.6058,1.6058,1.6058,1.6058,1.6058,1.6058,1.6058,1.6058,1.5916,1.5764,1.5895,1.595,1.5963,1.6031,1.6058,1.6058,1.6058,1.613,1.6198,1.6279,1.691,1.7636,1.7832,1.9176,2.0795,2.1898,2.3534,2.523,2.6571,2.7542,2.8229,2.8534,2.8711,2.8796,2.8796,2.8916,2.9001,2.9001,2.8911,2.8732,2.8396,2.8497,2.8591,2.8591,2.8724,2.8796,2.8796,2.8908,2.9001,2.9001,2.889,2.8796,2.8796,2.8516,2.8342,2.8342,2.8342,2.8342,2.8342,2.8679,2.8861,2.8861,2.8986,2.9112,2.9237,2.8951,2.8644,0.0,0.0,0.0,0.0,0.0,0.0,0.0,1.2137,1.2398,1.2556,1.2692,1.2841,1.3037,1.3186,1.3308,1.3464,1.3566,1.3701,1.3843,1.4021,1.4082,1.3958,1.4082,1.4239,1.4373,1.4489,1.4609,1.4791,1.4805,1.4934,1.5255,1.5269,1.5384,1.5587,1.5645,1.5672,1.5699,1.5726,1.5839,1.6013,1.6135,1.6232,1.6329,1.6444,1.6498,1.6498,1.6498,1.6498,1.6498,1.6498,1.6498,1.6498,1.6532,1.6347,1.608,1.6273,1.6347,1.6342,1.6457,1.6498,1.6498,1.6498,1.6539,1.6612,1.6612,1.7013,1.7589,1.814,1.9243,2.0577,2.1833,2.3413,2.5021,2.6406,2.7421,2.8242,2.8872,2.9041,2.9103,2.9103,2.9143,2.9161,2.9161,2.9406,2.9472,2.9143,2.9135,2.917,2.9103,2.9135,2.9148,2.9103,2.9135,2.9161,2.9161,2.9161,2.9161,2.9161,2.9161,2.9161,2.9161,2.9161,2.9161,2.9161,2.9446,2.9588,2.9588,2.9806,2.9891,2.9891,2.9891,2.9637,1.2107,1.1996,1.2002,1.2023,1.2031,1.212,0.0,1.2454,1.2582,1.2887,1.3044,1.3193,1.3322,1.3457,1.3606,1.3727,1.3761,1.385,1.4042,1.4199,1.4312,1.4399,1.4426,1.45,1.4633,1.466,1.4805,1.5113,1.5133,1.5269,1.555,1.5563,1.5577,1.5587,1.5764,1.5917,1.6029,1.6164,1.6281,1.6424,1.6437,1.6457,1.6471,1.6491,1.6498,1.6498,1.6498,1.6498,1.6498,1.6498,1.6498,1.6512,1.6621,1.6642,1.6613,1.6512,1.6471,1.6478,1.6491,1.6498,1.6498,1.6498,1.6707,1.6931,1.6931,1.753,1.8243,1.8488,1.9355,2.0429,2.1348,2.3082,2.4883,2.5938,2.7308,2.8485,2.8911,2.9223,2.9432,2.9432,2.9646,2.9797,2.9797,2.9824,2.9766,2.9486,2.9646,2.9704,2.9472,2.9659,2.9726,2.9459,2.9673,2.9797,2.9797,2.9797,2.9797,2.9797,2.9797,2.9797,2.9797,2.9797,2.9797,2.9797,2.9824,2.9873,2.9873,2.9878,2.9891,2.9891,2.9891,2.9851,1.221,1.2166,1.2235,1.2317,1.2386,1.2508,1.2738,1.2854,1.2949,1.3098,1.3295,1.3458,1.3498,1.3633,1.3776,0.0,1.3973,1.4055,1.4292,1.438,1.4509,1.4753,1.4855,1.4896,1.4875,1.495,1.5086,1.5303,1.5398,1.554,1.575,1.5845,1.594,1.6004,1.6164,1.6273,1.6334,1.6402,1.6437,1.6498,1.6586,1.6627,1.6634,1.6748,1.6788,1.6795,1.6876,1.691,1.6917,1.6979,1.702,1.7026,1.7087,1.7114,1.7087,1.6876,1.6842,1.691,1.691,1.6971,1.702,1.702,1.7134,1.7236,1.7236,1.7485,1.793,1.8676,1.9298,2.0117,2.1776,2.3393,2.4884,2.6054,2.7531,2.876,2.9055,2.9446,2.974,2.974,2.9811,2.9891,2.9891,2.9891,2.9851,2.9753,2.9833,2.9851,2.9753,2.9847,2.9873,2.9753,2.9824,2.9891,2.9891,2.9891,2.9891,2.9891,2.9891,2.9891,2.9891,2.9891,2.9891,2.9891,2.9891,2.9891,2.9891,2.9891,2.9891,2.9891,2.9891,2.9891,1.2464,1.2412,1.2521,1.2603,1.2712,1.2834,1.3003,1.3139,1.322,1.3302,1.345,1.3633,1.3715,1.3816,1.3931,1.4131,1.4192,1.4287,1.446,1.4584,1.4733,1.5021,1.5184,1.5221,1.516,1.5248,1.5371,1.552,1.5652,1.5825,1.5992,1.6148,1.6252,1.6342,1.6444,1.6518,1.6559,1.6559,1.6579,1.6653,1.6776,1.6844,1.685,1.7032,1.71,1.7107,1.7209,1.7256,1.7263,1.7345,1.7392,1.7392,1.7392,1.7392,1.7365,1.7182,1.7168,1.7256,1.7256,1.7324,1.7392,1.7392,1.7419,1.746,1.746,1.748,1.7778,1.8872,1.9276,1.9875,2.1934,2.3463,2.475,2.5992,2.7567,2.8861,2.9147,2.9577,2.9891,2.9891,2.9958,3.0034,3.0034,3.01,3.0154,3.0154,3.0154,3.0074,2.982,2.9793,2.986,3.002,3.0034,3.0074,3.0154,3.0087,3.0034,3.0034,2.9967,2.9891,2.9891,2.9891,2.9891,2.9891,2.9891,2.9891,2.9891,2.9891,2.9891,2.9891,2.9891,2.9891,1.3069,1.2975,1.2982,1.2982,1.2989,1.303,1.3152,1.3207,1.3275,1.3532,1.3578,1.3694,1.4029,1.4083,1.4137,1.4272,1.4407,1.4502,1.4509,1.4767,1.5034,1.5184,1.5309,1.5435,0.0,1.5597,1.5658,1.5874,1.6006,1.6137,1.6286,1.6429,1.6485,1.6491,1.6491,1.6566,1.6689,1.6689,1.6789,1.6998,1.7114,1.7175,1.7182,1.7338,1.7379,1.7379,1.7385,1.7385,1.7385,1.7392,1.7392,1.7392,1.7392,1.7392,1.7392,1.7385,1.7385,1.7385,1.7385,1.7392,1.7392,1.7392,1.7494,1.7595,1.7595,1.7738,1.8095,1.9117,1.9391,1.9785,2.149,2.2967,2.4302,2.5453,2.7134,2.864,2.9109,2.9577,2.9891,2.9891,3.0154,3.0386,3.0386,3.0604,3.0768,3.0768,3.0768,3.0484,2.9628,2.9521,2.9735,3.031,3.0386,3.0484,3.0742,3.0524,3.0386,3.0386,3.0074,2.9891,2.9891,2.9891,2.9891,2.9891,2.9891,2.9891,2.9891,2.9891,2.9891,2.9891,2.9891,2.9891,1.3116,1.3003,1.3023,1.3118,1.3125,1.3159,1.3288,1.3403,1.3484,1.3586,1.3783,1.3974,1.4076,1.4253,1.438,1.4434,1.4541,1.4676,1.4801,1.5007,1.5191,1.5316,1.5578,0.0,0.0,0.0,1.5954,1.6026,1.6232,1.6395,1.6424,1.6566,1.6621,1.6621,1.6775,1.6897,1.7039,1.702,1.7121,1.727,1.7317,1.7344,1.7318,1.7372,1.7392,1.7399,1.75,1.7514,1.7555,1.767,1.7724,1.7724,1.7724,1.7724,1.7724,1.7724,1.7724,1.7704,1.7575,1.7629,1.7724,1.7724,1.7812,1.792,1.792,1.8029,1.8404,1.953,1.9707,2.0018,2.2147,2.3442,2.4503,2.5631,2.7337,2.8751,2.896,2.9641,3.023,3.023,3.0471,3.0671,3.0671,3.0751,3.0795,3.0795,3.0658,3.0417,3.0123,3.0105,3.0163,3.0386,3.0551,3.0711,3.0782,3.0725,3.0671,3.0671,3.0555,3.0501,3.0501,3.0501,3.0501,3.0501,3.0501,3.0501,3.0501,3.0501,3.0501,3.0488,3.0323,3.023,1.3544,1.3382,1.3362,1.3295,1.3275,1.3315,1.3451,1.3538,1.364,1.3742,1.3961,1.4124,1.4233,1.438,1.4529,1.4561,1.4697,1.4875,1.5048,1.5197,1.5337,1.5547,1.5809,1.6019,0.0,0.0,1.63,1.6246,1.6437,1.6579,1.6579,1.6769,1.6884,1.6884,1.706,1.7182,1.727,1.727,1.7351,1.7473,1.7473,1.75,1.7575,1.7575,1.7575,1.7582,1.7656,1.7717,1.771,1.7854,1.7888,1.7888,1.7888,1.7888,1.7888,1.7888,1.7888,1.7874,1.7758,1.7792,1.7908,1.7962,1.803,1.8111,1.8158,1.8218,1.8534,1.9757,1.9932,2.0293,2.2514,2.3669,2.4559,2.5846,2.7462,2.879,2.9113,2.9893,3.0537,3.0537,3.0755,3.0942,3.0942,3.1036,3.1126,3.1126,3.0885,3.0658,3.0551,3.0537,3.0578,3.0684,3.0835,3.0996,3.1126,3.1009,3.0942,3.0942,3.0849,3.0795,3.0795,3.0795,3.0795,3.0795,3.0795,3.0795,3.0795,3.0795,3.0795,3.0795,3.0618,3.0484,1.4356,1.4128,1.4025,1.359,1.3466,1.3472,1.3614,1.3641,1.3708,1.4036,1.4104,1.4199,1.4462,1.45,1.4561,1.4681,1.4889,1.5061,1.5197,1.533,1.554,0.0,0.0,0.0,0.0,0.0,0.0,1.6616,1.6719,1.6775,1.6801,1.7125,1.7308,1.7308,1.7425,1.748,1.746,1.7439,1.7487,1.7609,1.7609,1.771,1.7888,1.7888,1.7888,1.7888,1.7888,1.7888,1.7888,1.7888,1.7888,1.7888,1.7888,1.7888,1.7888,1.7888,1.7888,1.7908,1.7908,1.7908,1.7928,1.8057,1.8111,1.8145,1.8259,1.8306,1.8575,1.9779,2.0111,2.0564,2.2627,2.3638,2.4522,2.61,2.7515,2.8739,2.9561,3.0288,3.0808,3.0808,3.1049,3.1226,3.1226,3.1476,3.1687,3.1687,3.1423,3.1119,3.0849,3.0808,3.0915,3.1173,3.1213,3.1356,3.1674,3.141,3.1226,3.1226,3.0996,3.0858,3.0858,3.0858,3.0858,3.0858,3.0858,3.0858,3.0858,3.0858,3.0858,3.0858,3.0822,3.0684,1.47,1.4555,1.4514,1.4403,1.4228,1.4077,1.4119,1.4053,1.4002,1.4076,1.4267,1.4421,1.4496,1.4699,1.4892,1.4926,1.5126,1.5309,1.535,1.5598,0.0,1.6026,0.0,1.6531,1.7195,1.732,0.0,1.824,1.7963,1.7932,1.832,1.8562,1.8691,1.8691,1.8708,1.8573,1.8207,1.7909,1.7799,1.7812,1.7812,1.7854,1.7888,1.7888,1.7888,1.7888,1.7888,1.7888,1.7888,1.7888,1.7888,1.7888,1.7888,1.7888,1.7888,1.7888,1.7962,1.8036,1.8036,1.8036,1.8057,1.8213,1.8306,1.8394,1.8435,1.8552,1.8906,2.013,2.0364,2.0785,2.3166,2.4183,2.5056,2.6808,2.8138,2.9201,2.9854,3.0577,3.1092,3.1092,3.1356,3.158,3.158,3.1647,3.1687,3.1687,3.1634,3.145,3.1132,3.1092,3.1119,3.1199,3.1423,3.1607,3.1687,3.162,3.158,3.158,3.1513,3.1473,3.1473,3.1473,3.1473,3.1473,3.1473,3.1473,3.1473,3.1473,3.1473,3.146,3.1223,3.1052,1.5167,1.501,1.4961,1.4754,1.4652,1.4561,1.4422,1.4393,1.4371,1.4282,1.4394,1.4527,1.4685,1.4878,1.5034,1.517,1.5303,1.5459,1.5612,1.5775,1.6057,0.0,1.6692,0.0,1.789,1.8087,1.8588,0.0,1.8895,1.8606,1.9018,1.9182,1.9291,1.9291,1.9339,1.9258,1.8978,1.8755,1.8502,1.826,1.826,1.8115,1.7888,1.7888,1.7888,1.7888,1.7888,1.7888,1.7888,1.7888,1.7888,1.7888,1.7888,1.7956,1.7996,1.7996,1.8057,1.8199,1.8267,1.8287,1.8301,1.8361,1.8435,1.8523,1.8591,1.8897,1.94,2.0327,2.0693,2.132,2.3456,2.4446,2.54,2.7234,2.8572,2.9601,3.0296,3.0955,3.1423,3.1423,3.158,3.1687,3.1687,3.1687,3.1687,3.1687,3.1687,3.1634,3.1436,3.1423,3.1423,3.1423,3.1594,3.1687,3.1687,3.1687,3.1687,3.1687,3.1687,3.1687,3.1687,3.1687,3.1687,3.1687,3.1687,3.1687,3.1687,3.1687,3.1687,3.1687,3.1503,3.1356,1.5875,1.5669,1.5554,1.5115,1.5107,1.5104,1.4778,1.4772,1.4775,1.4634,1.4552,1.4631,1.4939,1.5007,1.5109,1.5364,1.5401,1.554,1.586,1.5984,1.6337,1.7056,1.736,1.7833,1.861,1.8959,1.9625,2.083,1.999,1.9501,1.9693,1.9807,1.9899,1.9899,1.9852,1.9845,1.9845,1.9687,1.9337,1.8813,1.8813,1.853,1.8005,1.8005,1.7977,1.7888,1.7888,1.7888,1.7888,1.7888,1.7908,1.7928,1.7928,1.8017,1.8124,1.8124,1.8213,1.8347,1.8469,1.8523,1.8537,1.8537,1.8537,1.8586,1.8865,1.9319,1.99,2.0603,2.1211,2.204,2.3665,2.4676,2.5722,2.7502,2.8908,3.0003,3.0736,3.1307,3.1687,3.1687,3.1687,3.1687,3.1687,3.1687,3.1687,3.1687,3.1687,3.1687,3.1687,3.1687,3.1687,3.1687,3.1687,3.1687,3.1687,3.1687,3.1687,3.1687,3.1687,3.1687,3.1687,3.1687,3.1687,3.1687,3.1687,3.1687,3.1687,3.1687,3.1687,3.1687,3.1687,3.153,1.7097,1.7056,1.6987,1.6685,1.6418,1.6172,1.5894,1.5388,1.4984,1.5064,1.4859,1.473,1.496,1.5089,1.5224,1.536,1.5489,1.5638,1.5881,1.6467,1.7016,1.7309,1.7884,1.8736,2.0091,2.0276,0.0,2.2383,2.2328,2.2229,2.2264,2.2381,2.2448,2.2448,2.156,2.109,2.109,2.01,1.955,1.9432,1.9432,1.9136,1.8557,1.8557,1.8329,1.7888,1.7888,1.7888,1.7888,1.7888,1.7962,1.8057,1.8057,1.8145,1.8259,1.8259,1.8347,1.8469,1.8503,1.862,1.8757,1.8757,1.8757,1.8893,1.9577,1.986,2.0211,2.1474,2.2153,2.2813,2.4151,2.5298,2.6435,2.7825,2.9281,3.0465,3.0824,3.1307,3.1687,3.1687,3.1687,3.1687,3.1687,3.1687,3.1687,3.1687,3.1687,3.1687,3.1687,3.1687,3.1687,3.1687,3.1687,3.1687,3.1687,3.1687,3.1687,3.1687,3.1687,3.1687,3.1687,3.1687,3.1687,3.1687,3.1687,3.1687,3.1687,3.1687,3.1687,3.1687,3.1687,3.166,1.7785,1.764,1.753,1.7389,1.7188,1.6932,1.6539,1.608,1.5661,1.535,1.5192,1.5059,1.5108,1.5201,1.535,1.5482,1.5655,1.5954,1.6453,1.6863,1.7426,1.8287,1.9001,1.9879,2.0959,2.1753,2.2636,2.3718,2.4161,2.4009,2.305,2.3057,2.31,2.31,2.2581,2.2288,2.2288,2.1439,2.0862,2.0533,2.0211,1.975,1.9164,1.884,1.8557,1.8302,1.8033,1.7942,1.8017,1.8017,1.8077,1.8184,1.8184,1.8301,1.8394,1.8394,1.8503,1.8654,1.8654,1.8926,1.9298,1.9404,1.941,1.9563,2.0248,2.0753,2.1298,2.2289,2.2965,2.3695,2.5165,2.6101,2.7041,2.853,2.9909,3.1027,3.1441,3.1611,3.1687,3.1687,3.1687,3.1687,3.1687,3.1687,3.1741,3.1901,3.1915,3.1981,3.2152,3.2179,3.2059,3.1727,3.1687,3.1687,3.1687,3.1687,3.1687,3.1687,3.1687,3.1687,3.1687,3.1687,3.1687,3.1687,3.1687,3.1687,3.1687,3.1687,3.1687,3.1687,3.1687,3.1687,1.8541,1.8341,1.8216,1.8052,1.7982,1.7802,1.7166,1.6766,1.637,1.5699,1.5476,1.5362,1.522,1.5309,1.5435,1.5591,1.5855,1.6306,1.7013,1.7336,1.7991,1.9318,2.0169,2.1027,2.2003,2.3206,2.4257,2.5165,2.5974,2.5665,2.3947,2.3865,2.3865,2.3865,2.3746,2.3628,2.3483,2.2928,2.2371,2.176,2.1172,2.0568,1.9955,1.9414,1.9021,1.8724,1.8364,1.8162,1.8145,1.8145,1.8233,1.8347,1.8347,1.8435,1.8557,1.8557,1.8654,1.882,1.9006,1.9369,1.9848,2.0299,2.0335,2.035,2.1179,2.1861,2.2524,2.3297,2.407,2.4953,2.6148,2.7047,2.8006,2.9676,3.0758,3.1546,3.2076,3.1995,3.1781,3.1781,3.1781,3.1808,3.1874,3.1874,3.1955,3.2182,3.2198,3.2302,3.2567,3.2594,3.242,3.1928,3.1874,3.1848,3.1794,3.1781,3.1754,3.1701,3.1687,3.1687,3.1687,3.1687,3.1687,3.1687,3.1687,3.1687,3.1687,3.1687,3.1687,3.1687,3.1687,3.1687,1.9825,1.9945,1.9896,1.9233,1.9238,1.9109,1.7973,1.7367,1.6856,1.6258,1.5742,1.5362,1.522,1.5309,1.5435,1.5591,1.613,1.6676,1.7038,1.8113,1.9112,1.9917,2.0831,2.2091,2.3867,2.4321,2.5256,2.711,2.799,2.7787,2.6369,2.6277,2.6277,2.6277,2.5816,2.529,2.4746,2.4147,2.3537,2.2928,2.2398,2.1823,2.1235,2.0787,2.0016,1.8992,1.905,1.8789,1.8273,1.8273,1.8361,1.8482,1.8482,1.8599,1.8771,1.8771,1.8771,1.8899,1.9627,1.9933,2.0196,2.1506,2.1401,2.1098,2.2631,2.3138,2.3469,2.4872,2.6017,2.6783,2.6684,2.8114,2.9935,3.1572,3.1851,3.1891,3.243,3.2302,3.2064,3.2064,3.2064,3.2169,3.246,3.2514,3.2527,3.2554,3.2554,3.2567,3.2594,3.2594,3.2567,3.2527,3.2514,3.2382,3.2091,3.2064,3.1944,3.1714,3.1687,3.1687,3.1687,3.1687,3.1687,3.1687,3.1687,3.1687,3.1687,3.1687,3.1687,3.1687,3.1687,3.1687,2.1009,2.0931,2.0805,2.0395,2.0035,1.9646,1.9164,1.8252,1.7438,1.7116,1.6393,1.579,1.5641,1.5574,1.5639,1.6008,1.6546,1.7224,1.8124,1.9061,1.9967,2.084,2.2284,2.3531,2.4392,2.5954,2.7552,2.9167,2.9604,2.96,2.9207,2.8496,2.8102,2.8102,2.7547,2.7124,2.6887,2.5968,2.5168,2.4541,2.4015,2.321,2.2229,2.1726,2.103,2.0168,1.9502,1.9128,1.8985,1.8593,1.8531,1.8674,1.8674,1.8737,1.8811,1.89,1.8934,1.9042,1.9834,2.0362,2.0901,2.2348,2.2861,2.2998,2.3658,2.4461,2.5381,2.6348,2.7201,2.804,2.8923,3.0173,3.1422,3.2383,3.233,3.2237,3.2925,3.2706,3.2396,3.2396,3.2396,3.2436,3.2567,3.2594,3.2648,3.2835,3.2824,3.2891,3.3064,3.3091,3.3091,3.3091,3.2784,3.2541,3.2409,3.2396,3.2367,3.2246,3.2048,3.1931,3.1931,3.1781,3.1687,3.1687,3.1687,3.1687,3.1687,3.1687,3.1687,3.1687,3.1687,3.1687,2.2027,2.1855,2.1631,2.1439,2.085,2.025,1.9967,1.8921,1.7924,1.7657,1.6938,1.6293,1.6155,1.6099,1.6191,1.6577,1.717,1.797,1.9067,1.9928,2.0888,2.21,2.3504,2.4703,2.5534,2.7806,2.9774,3.1041,3.1367,3.1687,3.2029,3.1328,3.0519,2.9651,2.9226,2.8894,2.8711,2.7759,2.6944,2.6286,2.5357,2.4463,2.3559,2.2701,2.1973,2.1303,2.0321,1.9762,1.9519,1.9059,1.8833,1.8791,1.8791,1.8825,1.8879,1.8959,1.916,1.9458,2.0286,2.1079,2.197,2.3246,2.4329,2.5165,2.5165,2.5872,2.6927,2.7926,2.8752,2.968,3.1123,3.1984,3.261,3.3058,3.2943,3.2814,3.3308,3.304,3.2728,3.2728,3.2728,3.2755,3.281,3.2848,3.2891,3.3104,3.3131,3.3187,3.3387,3.3414,3.3414,3.3414,3.3078,3.2784,3.2728,3.2728,3.2688,3.2607,3.2369,3.2262,3.2262,3.2062,3.1915,3.1821,3.1821,3.1781,3.1687,3.1687,3.1687,3.1687,3.1687,3.1687,2.2905,2.2797,2.2543,2.2341,2.1785,2.1042,2.0119,1.9161,1.8312,1.7725,1.7218,1.6842,1.6714,1.6957,1.718,1.718,1.8042,1.8927,1.9692,2.0608,2.1891,2.3761,2.4332,2.5473,2.7744,2.9978,3.1639,3.2501,3.3387,3.4138,3.4744,3.4983,3.3845,3.0974,3.088,3.0577,2.9982,2.9381,2.8773,2.8147,2.6342,2.5478,2.5422,2.3825,2.2765,2.216,2.1685,2.0811,1.9712,1.9683,1.9342,1.8791,1.8791,1.8879,1.8993,1.8993,1.9487,2.0286,2.11,2.2207,2.3404,2.4207,2.5787,2.7377,2.7377,2.7377,2.7766,2.9646,3.0929,3.1981,3.292,3.3292,3.3449,3.373,3.3856,3.3771,3.3475,3.3187,3.2998,3.2998,3.2998,3.3091,3.336,3.3375,3.3375,3.3414,3.3414,3.3414,3.3414,3.3414,3.3414,3.3414,3.3414,3.328,3.3024,3.2998,3.2877,3.2607,3.2594,3.2594,3.2594,3.2581,3.2423,3.2104,3.2104,3.1957,3.1687,3.1687,3.1687,3.1687,3.1687,3.1687,2.3645,2.3614,2.3475,2.3133,2.2654,2.2017,2.1075,2.0234,1.9443,1.8718,1.8041,1.7549,1.7421,1.727,1.7338,1.7815,1.8757,1.9668,2.0258,2.1948,2.3395,2.4109,2.6099,2.8143,3.0062,3.1429,3.2555,3.3423,3.4128,3.4695,3.5052,3.5153,3.459,3.3262,3.2833,3.2315,3.1702,3.1126,3.0303,2.9292,2.8711,2.7544,2.5903,2.5362,2.4371,2.2994,2.2424,2.1468,2.0291,1.9864,1.9342,1.8811,1.8913,1.8952,1.9006,1.9217,1.9707,2.0457,2.127,2.2355,2.3696,2.528,2.6538,2.7736,2.9478,3.0004,3.0291,3.1785,3.3047,3.3958,3.3833,3.4362,3.488,3.4769,3.4472,3.4137,3.4047,3.3801,3.3559,3.332,3.328,3.3307,3.34,3.3414,3.3414,3.3414,3.3414,3.3414,3.3414,3.3414,3.3414,3.3414,3.3414,3.3374,3.328,3.328,3.324,3.3146,3.2971,3.2864,3.2864,3.2701,3.2554,3.2436,3.2436,3.2407,3.2313,3.2313,3.2313,3.2313,3.2088,3.1971,2.4435,2.4252,2.3987,2.3917,2.329,2.2557,2.1973,2.0993,2.008,1.9648,1.8994,1.8415,1.8277,1.8304,1.8464,1.8849,1.9758,2.0697,2.1528,2.3076,2.4534,2.5712,2.8128,3.0237,3.1647,3.2592,3.3546,3.4635,3.5063,3.5444,3.5831,3.5831,3.5594,3.4997,3.4383,3.3796,3.318,3.2575,3.1792,3.0817,3.0139,2.8995,2.7461,2.6529,2.5481,2.4345,2.3299,2.2254,0.0,2.0392,1.9683,1.9124,1.9042,1.9027,1.9124,1.9601,2.0236,2.0977,2.1979,2.3174,2.4532,2.6237,2.7706,2.9259,3.1559,3.227,3.2466,3.3528,3.4546,3.5282,3.5016,3.5537,3.6008,3.5634,3.5159,3.4742,3.4538,3.4175,3.3788,3.3467,3.3414,3.3414,3.3414,3.3414,3.3414,3.3414,3.3414,3.3414,3.3414,3.3414,3.3414,3.3414,3.3414,3.3414,3.3414,3.3414,3.3414,3.3414,3.324,3.3146,3.3146,3.2998,3.285,3.2755,3.2755,3.2701,3.2594,3.2594,3.2594,3.2594,3.2382,3.2289,0.0,2.4737,2.4196,2.4642,2.3784,2.2772,2.2729,2.1506,0.0,2.0478,1.997,1.9484,1.9291,1.979,2.0209,2.0217,2.0959,2.1983,2.3307,2.4099,2.5559,2.8274,3.0268,3.1744,3.2619,3.3518,3.4608,3.5985,3.6137,3.6359,3.6885,3.6913,3.6664,3.6178,3.5622,3.5009,3.4355,3.3768,3.3152,3.2535,3.0817,2.9912,2.9732,2.7394,2.6282,2.6006,2.4276,2.3147,2.239,2.1187,2.0291,1.9668,1.9238,1.9169,1.9372,2.0135,2.0946,2.1858,2.3075,2.4403,2.5787,2.7218,2.9319,3.1685,3.3499,3.4088,3.4211,3.4869,3.5544,3.6096,3.64,3.6707,3.6825,3.6281,3.5878,3.5498,3.495,3.4361,3.3828,3.3507,3.3427,3.3414,3.3414,3.3414,3.3414,3.3414,3.3414,3.3414,3.3414,3.3414,3.3414,3.3414,3.3414,3.3414,3.3414,3.3414,3.3414,3.3414,3.3414,3.3414,3.3414,3.3414,3.328,3.3038,3.3038,3.2904,3.2661,3.2661,3.2661,3.2661,3.2634,3.2621,2.5784,0.0,2.5027,2.5195,2.4492,2.3591,0.0,2.2396,2.1809,2.0708,2.065,2.0616,2.0081,2.0091,2.0494,2.1394,2.22,2.3077,2.4164,2.5938,2.8,3.0342,3.162,3.2646,3.3518,3.4786,3.5739,3.6081,3.6483,3.6761,3.6885,3.6913,3.6844,3.6733,3.6567,3.6013,3.4997,3.4383,3.3796,3.318,3.2293,3.1144,2.9788,2.9204,2.7887,2.6044,2.5147,2.3915,2.2448,2.1612,2.0667,1.9718,1.9783,1.988,2.0003,2.0399,2.1328,2.2471,2.3234,2.4665,2.6628,2.9418,3.1359,3.292,3.4341,3.4764,3.4899,3.5514,3.6492,3.7319,3.7134,3.7336,3.745,3.6838,3.6351,3.5805,3.5217,3.4629,3.4135,3.3828,3.3574,3.3414,3.3414,3.3414,3.3414,3.3414,3.3414,3.3414,3.3414,3.3414,3.3414,3.3414,3.3414,3.3414,3.3414,3.3414,3.3414,3.3414,3.3414,3.3414,3.3414,3.3414,3.3374,3.3307,3.3307,3.328,3.3213,3.3213,3.3213,3.32,3.2998,3.2904,2.6241,2.5903,2.5335,2.5502,2.4954,2.4258,2.3898,2.3369,2.2772,2.2113,2.2007,2.1876,2.135,2.1562,2.2026,2.2712,2.3371,2.4319,2.5819,2.784,2.9823,3.1515,3.2477,3.3468,3.4621,3.5565,3.6206,3.6455,3.6733,3.6913,3.6913,3.6913,3.6913,3.6913,3.6913,3.6484,3.5622,3.5275,3.469,3.3796,3.3192,3.2101,3.0602,3.0043,2.8779,2.6929,2.6006,2.4746,2.3245,2.2349,2.1397,2.0523,2.0438,2.0502,2.0686,2.1181,2.2061,2.3143,2.4079,2.6048,2.8513,3.0876,3.2466,3.3764,3.5028,3.5615,3.5966,3.658,3.7264,3.782,3.7926,3.7992,3.7918,3.742,3.6873,3.6273,3.5551,3.4937,3.448,3.4306,3.4005,3.3864,3.4089,3.4139,3.4064,3.3814,3.3764,3.3689,3.3439,3.3414,3.3414,3.3414,3.3414,3.3414,3.3414,3.3414,3.3414,3.3414,3.3414,3.3414,3.3414,3.3414,3.3414,3.3414,3.3414,3.3414,3.3414,3.3414,3.3414,3.3414,3.3253,3.3173,2.6567,2.6168,2.5545,2.5758,2.5292,2.4863,2.5067,2.4293,2.3595,2.3778,2.3498,2.3125,2.2793,2.3362,2.3939,2.4142,2.4805,2.596,2.7819,2.9632,3.1198,3.2277,3.3208,3.4288,3.5635,3.6034,3.6414,3.6885,3.6913,3.6913,3.6913,3.6913,3.6913,3.6913,3.6913,3.6664,3.6233,3.6137,3.5594,3.4566,3.3868,3.2944,3.1832,3.063,2.942,2.819,2.6834,2.5605,2.4469,2.3176,2.2254,2.1607,2.1145,2.1054,2.1308,2.2002,2.2832,2.3841,2.5379,2.7866,3.0558,3.1844,3.3115,3.4382,3.5644,3.648,3.7105,3.7746,3.7946,3.805,3.8559,3.8504,3.8212,3.7889,3.7354,3.6699,3.5953,3.5376,3.4994,3.5011,3.4803,3.4754,3.516,3.5235,3.5036,3.4413,3.4263,3.4014,3.3464,3.3414,3.3414,3.3414,3.3414,3.3414,3.3414,3.3414,3.3414,3.3414,3.3414,3.3414,3.3414,3.3414,3.3414,3.3414,3.3414,3.3414,3.3414,3.3414,3.3414,3.3414,3.3414,3.3414,2.6567,2.6595,2.6383,2.6312,2.5791,2.527,2.5132,2.4832,2.453,2.4396,2.4313,2.4177,2.3834,2.4252,2.4904,2.5784,2.7407,2.886,2.9709,3.0866,3.2035,3.3166,3.4272,3.5237,3.5977,3.6484,3.6817,3.6885,3.6913,3.6913,3.6913,3.6913,3.6913,3.6913,3.6913,3.6844,3.6789,3.6331,3.6013,3.5804,3.469,3.3796,3.3096,3.186,3.0659,2.942,2.7641,2.6472,2.57,2.3981,2.2896,2.2283,2.1829,2.166,2.1728,2.1973,2.2901,2.4444,2.6982,2.9259,3.1262,3.2525,3.3823,3.5058,3.6288,3.7134,3.7788,3.8398,3.8559,3.8588,3.8689,3.8504,3.8212,3.7889,3.7354,3.685,3.6734,3.6229,3.5943,3.6323,3.6533,3.658,3.6394,3.6336,3.6039,3.5036,3.4488,3.4014,3.3464,3.3414,3.3414,3.3414,3.3414,3.3414,3.3414,3.3414,3.3414,3.3414,3.3414,3.3414,3.3414,3.3414,3.3414,3.3414,3.3414,3.3414,3.3414,3.3414,3.3414,3.3414,3.3414,3.3414,2.6567,2.6899,2.6938,2.677,2.6546,2.6315,2.6107,2.5912,2.5752,2.5696,2.5567,2.5473,2.5469,2.5895,2.6545,2.7404,2.9043,3.0368,3.0798,3.2046,3.3303,3.4313,3.5037,3.5747,3.6472,3.676,3.6913,3.6913,3.6913,3.6913,3.6913,3.6913,3.6913,3.6913,3.6913,3.6913,3.6913,3.6664,3.6387,3.6081,3.522,3.4299,3.3364,3.2479,3.124,2.976,2.89,2.7603,2.6034,2.5205,2.4316,2.3426,2.2892,2.2941,2.3361,2.3888,2.4784,2.6087,2.8366,3.0275,3.1914,3.3174,3.4441,3.5644,3.6521,3.7264,3.7917,3.8528,3.8689,3.8689,3.8689,3.8611,3.8437,3.8145,3.7714,3.7388,3.7387,3.7027,3.6929,3.7673,3.8108,3.8415,3.866,3.8476,3.7897,3.6854,3.5766,3.4762,3.3939,3.3589,3.3414,3.3414,3.3414,3.3414,3.3414,3.3414,3.3414,3.3414,3.3414,3.3414,3.3414,3.3414,3.3414,3.3414,3.3414,3.3414,3.3414,3.3414,3.3414,3.3414,3.3414,3.3414,2.6667,2.7094,2.7313,2.7357,2.7366,2.7301,2.71,2.6999,2.6976,2.7029,2.6841,2.6722,2.6915,2.7566,2.8352,2.9303,3.0556,3.15,3.1769,3.3136,3.4369,3.5113,3.5603,3.6153,3.6845,3.6913,3.6913,3.6913,3.6913,3.6913,3.6913,3.6913,3.6913,3.6913,3.6913,3.6913,3.6913,3.6913,3.6692,3.629,3.568,3.4845,3.3796,3.3056,3.1888,3.0411,2.9976,2.8722,2.6929,2.6348,2.5548,2.466,2.3886,2.4067,2.4852,2.5632,2.6558,2.7629,2.9493,3.1033,3.2464,3.38,3.5087,3.6229,3.6843,3.7497,3.8108,3.8559,3.8689,3.8689,3.8689,3.8689,3.8622,3.8359,3.8152,3.8015,3.8017,3.7899,3.8161,3.9296,3.9905,4.0426,4.1081,4.0764,3.9972,3.8656,3.7273,3.5979,3.4911,3.4413,3.4114,3.3989,3.3964,3.3914,3.3789,3.3764,3.3764,3.3764,3.3539,3.3414,3.3414,3.3414,3.3414,3.3414,3.3414,3.3414,3.3414,3.3414,3.3414,3.3414,3.3414,3.3414,2.6941,2.7275,2.7489,2.8281,2.8157,2.7797,2.7602,2.7785,2.7996,2.8002,0.0,2.771,2.7721,2.877,3.0175,3.1781,3.2352,3.267,3.2949,3.3974,3.4853,3.5167,3.5945,3.6552,3.6873,3.6913,3.6913,3.6913,3.6913,3.6913,3.6913,3.6913,3.6913,3.6913,3.6913,3.6913,3.6913,3.6913,3.6885,3.6844,3.629,3.5707,3.5037,3.3868,3.2972,3.2197,3.0535,2.9704,2.9364,2.7052,2.6044,2.5853,2.4689,2.4621,2.5259,2.6067,2.7144,2.8466,3.0139,3.1588,3.2906,3.4446,3.5736,3.6872,3.7526,3.8137,3.8631,3.8689,3.8689,3.8689,3.8689,3.8689,3.8622,3.8359,3.8478,3.8648,3.8639,3.9003,3.9805,4.1296,4.2205,4.2836,4.3149,4.2847,4.1888,3.9899,3.8696,3.7657,3.6573,3.6375,3.6177,3.5681,3.5632,3.5433,3.4936,3.4886,3.4886,3.4886,3.3964,3.3414,3.3414,3.3414,3.3414,3.3414,3.3414,3.3414,3.3414,3.3414,3.3414,3.3414,3.3414,3.3414,2.6968,2.7309,2.7502,2.8377,2.8587,2.8526,2.8376,2.8702,2.8996,2.8875,2.9084,0.0,0.0,3.0628,3.1415,3.2378,3.3046,3.3537,3.3821,3.4858,3.5656,3.5762,3.635,3.6806,3.6885,3.6913,3.6913,3.6913,3.6913,3.6913,3.6913,3.6913,3.6913,3.6913,3.6913,3.698,3.7195,3.7195,3.7274,3.746,3.6543,3.5985,3.5707,3.451,3.3616,3.3,3.1956,3.0845,2.9732,2.8779,2.7944,2.7242,2.6777,2.6501,2.6406,2.7131,2.8253,2.9574,3.0619,3.2244,3.4031,3.4995,3.6283,3.7455,3.7717,3.8208,3.8689,3.8689,3.8689,3.8689,3.8689,3.8689,3.8662,3.8584,3.8627,3.8786,3.9197,3.9814,4.0637,4.1812,4.3035,4.4069,4.4713,4.4242,4.3502,4.2697,4.0892,3.9364,3.8623,3.7961,3.747,3.7248,3.6977,3.6706,3.6509,3.6484,3.6484,3.6484,3.4848,3.3914,3.3914,3.3589,3.3414,3.3414,3.3739,3.3914,3.3914,3.4563,3.4886,3.4886,3.4886,3.4886,2.6994,2.7443,2.7777,2.8537,2.8943,2.9176,2.9281,2.9587,2.9808,2.969,3.0092,3.0733,3.1648,0.0,3.2519,3.324,3.3811,3.4321,3.4662,3.5511,3.6126,3.6233,3.6619,3.6913,3.6913,3.6913,3.6913,3.6913,3.6913,3.6913,3.6913,3.6913,3.6953,3.706,3.706,3.7207,3.7529,3.7529,3.7635,3.7781,3.7002,3.6484,3.6197,3.536,3.4514,3.3644,3.3056,3.1977,3.063,3.0224,2.9364,2.8257,2.8068,2.7944,2.7944,2.8409,2.9413,3.0675,3.1419,3.289,3.4636,3.5502,3.6701,3.7846,3.8037,3.8369,3.8689,3.8689,3.8689,3.8689,3.8689,3.8689,3.8689,3.8689,3.8746,3.8978,3.9503,4.0298,4.1278,4.2408,4.3821,4.5081,4.5958,4.5651,4.516,4.4832,4.3158,4.1768,4.1231,4.0513,3.9931,3.9616,3.9022,3.8632,3.8632,3.8632,3.8574,3.8402,3.6667,3.532,3.4488,3.3939,3.3664,3.3664,3.4189,3.4624,3.4972,3.5865,3.6375,3.6509,3.636,3.6325,2.7068,2.7737,2.8326,2.8863,2.9237,2.9668,3.0279,3.0413,3.0414,3.0499,3.0805,3.1368,3.2495,3.2935,3.3481,3.4618,3.4789,3.5003,3.5525,3.5885,3.6206,3.6473,3.6726,3.6913,3.6913,3.6913,3.6913,3.6913,3.6913,3.6913,3.6913,3.6913,3.706,3.7382,3.741,3.7529,3.7781,3.7781,3.7809,3.7809,3.7809,3.7352,3.6512,3.6499,3.5711,3.4299,3.3672,3.3056,3.2411,3.1212,3.0015,2.8874,2.8257,2.875,2.9828,2.9828,3.0563,3.1737,3.2602,3.3487,3.4467,3.5947,3.7048,3.7907,3.8528,3.8689,3.8689,3.8689,3.8689,3.8689,3.8689,3.8689,3.8689,3.8689,3.8894,3.9198,3.9531,4.0431,4.1664,4.3283,4.4707,4.5962,4.6834,4.7105,4.6893,4.593,4.5405,4.4927,4.4365,4.4317,4.3937,4.2919,4.1929,4.1344,4.1344,4.1344,4.1102,4.0586,3.9534,3.7759,3.5135,3.4513,3.4214,3.4214,3.4762,3.5568,3.6617,3.7184,3.7691,3.8117,3.7666,3.7445,2.7068,2.7737,2.8326,2.8863,2.9397,2.994,3.0528,3.0684,3.0932,3.1814,3.2349,3.2856,3.3454,3.3957,3.4394,3.4762,3.5137,3.5431,3.5578,3.6059,3.6393,3.6473,3.6726,3.6913,3.6913,3.6913,3.6913,3.6913,3.6913,3.698,3.7235,3.7263,3.7382,3.7676,3.7676,3.7823,3.8145,3.8145,3.825,3.8435,3.8435,3.8084,3.7393,3.6772,3.625,3.578,3.4554,3.3684,3.3028,3.1832,3.1116,3.0778,3.0591,3.0749,3.106,3.106,3.1832,3.2911,3.3164,3.4384,3.5921,3.6557,3.7384,3.8207,3.8593,3.8689,3.8689,3.8689,3.8689,3.8689,3.8689,3.8689,3.8689,3.8689,3.8894,3.9198,3.9531,4.034,4.1283,4.2291,4.3523,4.4759,4.57,4.6295,4.6703,4.6902,4.6476,4.5983,4.5488,4.5418,4.5181,4.4483,4.4151,4.3961,4.3961,4.3961,4.3747,4.3199,4.2553,4.0723,3.7396,3.6375,3.588,3.588,3.678,3.7568,3.8225,3.9859,4.09,4.1407,4.1262,4.0997,2.7115,2.789,2.8612,2.893,2.9544,3.0274,3.1005,3.1236,3.1583,3.2567,3.3118,3.3547,3.3975,3.4468,3.4869,3.507,3.5404,3.5685,3.5912,3.6286,3.654,3.6647,3.6806,3.6913,3.6913,3.6913,3.6913,3.6913,3.702,3.7195,3.7382,3.7489,3.7704,3.7996,3.7996,3.8143,3.8466,3.8466,3.8544,3.8689,3.8689,3.8515,3.8113,3.7361,3.6829,3.6443,3.5194,3.4327,3.3672,3.2719,3.2169,3.1916,3.1702,3.1888,3.2322,3.2322,3.3096,3.4116,3.4116,3.5174,3.6538,3.6825,3.7554,3.8359,3.8624,3.8689,3.8689,3.8689,3.8689,3.8689,3.8689,3.8689,3.8689,3.8689,3.8802,3.9062,3.9502,4.0191,4.1034,4.2019,4.3232,4.4528,4.5691,4.6471,4.7176,4.7803,4.7687,4.741,4.7149,4.6916,4.6658,4.6335,4.6105,4.6011,4.6011,4.6011,4.5776,4.5234,4.4761,4.3413,4.1045,3.8925,3.7838,3.7838,3.8671,3.9656,4.0755,4.22,4.3294,4.4009,4.358,4.3223,2.7235,2.815,2.9001,2.9028,2.974,3.0658,3.1591,3.1981,3.2305,3.2917,3.3267,3.3642,3.4255,3.4629,3.5043,3.5511,3.5645,3.5872,3.6433,3.6513,3.6619,3.6873,3.6913,3.6913,3.6913,3.6913,3.6913,3.6953,3.7235,3.7422,3.749,3.7702,3.7996,3.8319,3.8348,3.8437,3.8689,3.8689,3.8689,3.8689,3.8689,3.8689,3.8691,3.8075,3.7312,3.6404,3.5628,3.4941,3.4327,3.3796,3.3248,3.2691,3.2141,3.2603,3.356,3.356,3.4299,3.5275,3.5275,3.5819,3.6568,3.6856,3.7556,3.8319,3.8584,3.8691,3.8689,3.8689,3.8689,3.8689,3.8689,3.8689,3.8689,3.8689,3.8689,3.8833,3.9388,3.9996,4.0787,4.2031,4.3342,4.4706,4.6064,4.7014,4.7836,4.8526,4.8776,4.8913,4.8913,4.8474,4.8173,4.8173,4.7778,4.7541,4.7541,4.7541,4.7313,4.6775,4.6269,4.5781,4.5258,4.1936,4.0117,4.0117,4.0651,4.1881,4.3788,4.4335,4.5093,4.6072,4.5093,4.4602,2.7468,2.8289,2.9055,2.9325,3.0047,3.1019,3.2152,3.246,3.2637,3.32,3.3748,3.4242,3.4629,3.5097,3.5458,3.5578,3.5992,3.6353,3.6473,3.6687,3.6833,3.6885,3.6913,3.6913,3.6913,3.6913,3.702,3.7275,3.737,3.7595,3.8065,3.8174,3.8319,3.8611,3.8611,3.8651,3.8689,3.8689,3.8689,3.8689,3.8689,3.8689,3.8691,3.8075,3.7206,3.6186,3.5996,3.5553,3.4997,3.4873,3.473,3.4606,3.4482,3.4566,3.4817,3.4817,3.5275,3.59,3.59,3.6302,3.6879,3.7199,3.7578,3.7969,3.8292,3.8544,3.8689,3.8689,3.8689,3.8689,3.8689,3.8689,3.8689,3.8689,3.8689,3.8744,3.8878,3.9363,3.9937,4.0357,4.1583,4.2853,4.3846,4.5056,4.6452,4.8003,4.8602,4.8913,4.8913,4.8798,4.8729,4.8729,4.8636,4.859,4.859,4.859,4.8358,4.7801,4.7685,4.72,4.6311,4.4365,4.3318,4.3318,4.3842,4.4507,4.5334,4.6269,4.7037,4.7615,4.7406,4.7084,2.777,2.8457,2.9183,2.9927,3.0684,3.1473,3.2393,3.2808,3.3158,3.3696,3.407,3.4416,3.4736,3.5244,3.5645,3.5819,3.6219,3.654,3.6659,3.6806,3.6913,3.6913,3.6913,3.6913,3.6913,3.7048,3.7195,3.7382,3.7664,3.7958,3.8279,3.8426,3.8544,3.8689,3.8689,3.8689,3.8689,3.8689,3.8689,3.8689,3.8689,3.8542,3.8261,3.7928,3.7333,3.6483,3.6483,3.6178,3.5622,3.5622,3.5457,3.5192,3.5192,3.5374,3.5622,3.5622,3.5985,3.6483,3.6483,3.6664,3.6953,3.7303,3.7489,3.7704,3.8174,3.8399,3.8544,3.8662,3.8689,3.8689,3.8689,3.8689,3.8689,3.8689,3.8689,3.8702,3.8695,3.918,3.9714,4.0113,4.1157,4.2388,4.3667,4.5349,4.6896,4.7935,4.8567,4.8913,4.8913,4.8913,4.8913,4.8913,4.8913,4.8913,4.8913,4.8913,4.8798,4.8497,4.8474,4.8243,4.7713,4.6925,4.6152,4.5423,4.5677,4.6194,4.6901,4.7457,4.7987,4.8474,4.8219,4.7964,2.8085,2.8759,2.949,3.0541,3.1259,3.1872,3.246,3.3011,3.3562,3.4163,3.4362,3.4509,3.4869,3.5351,3.5805,3.6126,3.6393,3.6647,3.6873,3.6913,3.6913,3.6913,3.6913,3.6913,3.6913,3.7195,3.7422,3.7477,3.7998,3.8319,3.8359,3.8584,3.8689,3.8689,3.8689,3.8689,3.8689,3.8689,3.8689,3.8689,3.8689,3.8368,3.7781,3.7781,3.746,3.6913,3.6913,3.6636,3.6235,3.6235,3.5957,3.5498,3.5498,3.5804,3.6235,3.6235,3.6512,3.6913,3.6913,3.6913,3.6953,3.7235,3.7342,3.749,3.7998,3.8212,3.8359,3.8584,3.8662,3.8689,3.8689,3.8689,3.8689,3.8689,3.8689,3.8673,3.8568,3.9024,3.9588,4.0097,4.117,4.2493,4.4021,4.5997,4.7508,4.7891,4.8397,4.8798,4.889,4.8913,4.8913,4.8913,4.8913,4.8913,4.8913,4.8913,4.8913,4.8913,4.8913,4.8913,4.8913,4.8913,4.8293,4.7032,4.7009,4.7406,4.8243,4.8243,4.8474,4.889,4.8451,4.8243,2.831,2.9374,3.031,3.0688,3.1259,3.1872,3.246,3.3011,3.3562,3.4163,3.4523,3.4896,3.5418,3.5792,3.6112,3.6393,3.6659,3.6873,3.6885,3.6913,3.6913,3.6913,3.6913,3.6913,3.6913,3.7195,3.7489,3.7742,3.8105,3.8399,3.8622,3.8691,3.8689,3.8689,3.8689,3.8689,3.8689,3.8689,3.8689,3.8689,3.8689,3.8368,3.7781,3.7781,3.746,3.6913,3.6913,3.6844,3.6789,3.6789,3.676,3.6664,3.6664,3.6733,3.6789,3.6789,3.6844,3.6913,3.6913,3.6913,3.6913,3.6953,3.7155,3.741,3.7489,3.7891,3.8321,3.8348,3.8504,3.8689,3.8689,3.8689,3.8689,3.8689,3.8689,3.8544,3.8028,3.8389,3.8831,3.8929,4.0592,4.2309,4.3289,4.4729,4.6066,4.7141,4.782,4.8358,4.8844,4.8913,4.8913,4.8913,4.8913,4.8913,4.8913,4.8913,4.8913,4.8913,4.8913,4.8913,4.8913,4.8913,4.8801,4.8594,4.8594,4.8659,4.8798,4.8798,4.8844,4.8913,4.8844,4.8798,2.9058,2.9953,3.0698,3.0969,3.162,3.2273,3.2541,3.3278,3.3976,3.4243,3.4683,3.5137,3.5525,3.5872,3.6193,3.6473,3.6726,3.6913,3.6913,3.6913,3.6913,3.6913,3.6913,3.6913,3.6913,3.7195,3.7517,3.7782,3.8105,3.8426,3.8689,3.8689,3.8689,3.8689,3.8689,3.8689,3.8689,3.8689,3.8689,3.8689,3.8544,3.8252,3.7781,3.7635,3.7342,3.6913,3.6913,3.6913,3.6913,3.6913,3.6913,3.6913,3.6913,3.6913,3.6913,3.6913,3.6913,3.6913,3.6913,3.6913,3.6913,3.6913,3.698,3.7155,3.7342,3.7597,3.7879,3.8214,3.8399,3.8504,3.8662,3.8689,3.8689,3.8689,3.8584,3.8359,3.7888,3.8262,3.8818,3.9293,4.0794,4.2278,4.3158,4.4461,4.5818,4.7026,4.7718,4.8289,4.8844,4.8913,4.8913,4.8913,4.8913,4.8913,4.8913,4.8913,4.8913,4.8913,4.8913,4.8913,4.8913,4.8913,4.8913,4.8913,4.8913,4.8913,4.8913,4.8913,4.8913,4.8913,4.8913,4.8913,2.9659,3.0341,3.0862,3.1132,3.1915,3.2594,3.2594,3.3439,3.4229,3.4283,3.4736,3.5191,3.5538,3.5872,3.622,3.654,3.6766,3.6913,3.6913,3.6913,3.6913,3.6913,3.6913,3.6913,3.6913,3.7195,3.749,3.7676,3.8065,3.8399,3.8584,3.8662,3.8689,3.8689,3.8689,3.8689,3.8689,3.8689,3.8662,3.8582,3.8399,3.8105,3.7674,3.7489,3.7235,3.6913,3.6913,3.6913,3.6913,3.6913,3.6913,3.6913,3.6913,3.6913,3.6913,3.6913,3.6913,3.6913,3.6913,3.6913,3.6913,3.6913,3.6913,3.6953,3.7195,3.7343,3.7489,3.7929,3.8172,3.8348,3.8544,3.8651,3.8689,3.8689,3.8506,3.8172,3.7782,3.8113,3.8695,3.9452,4.055,4.1711,4.2786,4.3967,4.5206,4.6528,4.7399,4.8056,4.8632,4.8821,4.8913,4.8913,4.8913,4.8913,4.8913,4.8913,4.8913,4.8913,4.8913,4.8913,4.8913,4.8913,4.8913,4.8913,4.8913,4.8913,4.8913,4.8913,4.8913,4.8913,4.8913,4.8913,2.9797,3.0341,3.0862,3.1132,3.1915,3.2594,3.2594,3.3278,3.3988,3.4269,3.4563,3.499,3.5498,3.5872,3.6259,3.6806,3.6885,3.6913,3.6913,3.6913,3.6913,3.6913,3.6913,3.6913,3.6913,3.7195,3.741,3.7422,3.7958,3.8321,3.8319,3.8555,3.8689,3.8689,3.8689,3.8689,3.8689,3.8689,3.8584,3.8319,3.8321,3.7998,3.7422,3.741,3.7235,3.6913,3.6913,3.6913,3.6913,3.6913,3.6913,3.6913,3.6913,3.6913,3.6913,3.6913,3.6913,3.6913,3.6913,3.6913,3.6913,3.6913,3.6913,3.6913,3.6913,3.7155,3.741,3.745,3.7851,3.8292,3.8319,3.8504,3.8689,3.8689,3.8506,3.8145,3.7557,3.7654,3.8032,3.8637,3.9232,4.016,4.1782,4.256,4.3514,4.5248,4.6499,4.7465,4.8068,4.859,4.8913,4.8913,4.8913,4.8913,4.8913,4.8913,4.8913,4.8913,4.8913,4.8913,4.8913,4.8913,4.8913,4.8913,4.8913,4.8913,4.8913,4.8913,4.8913,4.8913,4.8913,4.8913,3.0301,3.0635,3.0915,3.1396,3.2062,3.2594,3.2594,3.3265,3.3975,3.423,3.4589,3.4963,3.5498,3.5872,3.6233,3.6579,3.6806,3.6913,3.6913,3.6913,3.6913,3.6913,3.6913,3.6913,3.6913,3.702,3.7168,3.7382,3.7597,3.7811,3.7969,3.8279,3.8437,3.8437,3.8611,3.8689,3.8689,3.8533,3.8399,3.8292,3.7918,3.7595,3.7382,3.7167,3.702,3.6913,3.6913,3.6913,3.6913,3.6913,3.6913,3.6913,3.6913,3.6913,3.6913,3.6913,3.6913,3.6913,3.6913,3.6913,3.6913,3.6913,3.6913,3.6913,3.6913,3.698,3.7128,3.7342,3.7557,3.7771,3.7929,3.8034,3.8075,3.7918,3.7782,3.7595,3.7167,3.7451,3.7991,3.8569,3.9268,4.0226,4.1728,4.2606,4.3641,4.5172,4.6439,4.7413,4.8022,4.8567,4.8913,4.8913,4.8913,4.8913,4.8913,4.8913,4.8913,4.8913,4.8913,4.8913,4.8913,4.8913,4.8913,4.8913,4.8913,4.8913,4.8913,4.8913,4.8913,4.8913,4.8913,4.8913,3.0631,3.0862,3.1049,3.1567,3.2152,3.2594,3.2594,3.3185,3.3814,3.4108,3.4416,3.4789,3.5244,3.5658,3.6019,3.6313,3.6579,3.6766,3.6766,3.6833,3.6913,3.6913,3.6913,3.6913,3.6913,3.6913,3.698,3.7235,3.7343,3.749,3.7676,3.7956,3.8145,3.8145,3.8288,3.8408,3.8408,3.8223,3.8105,3.7998,3.7597,3.7342,3.7235,3.698,3.6913,3.6913,3.6913,3.6913,3.6913,3.6913,3.6913,3.6913,3.6913,3.6913,3.6913,3.6913,3.6913,3.6913,3.6913,3.6913,3.6913,3.6913,3.6913,3.6913,3.6913,3.6913,3.6953,3.7168,3.7301,3.745,3.7635,3.7742,3.7742,3.7448,3.741,3.7301,3.698,3.7217,3.7673,3.8266,3.8891,3.9713,4.0937,4.201,4.3114,4.433,4.5703,4.6883,4.7694,4.8273,4.8705,4.8871,4.8913,4.8913,4.8913,4.8913,4.8913,4.8913,4.8913,4.8913,4.8913,4.8913,4.8913,4.8913,4.8913,4.8913,4.8913,4.8913,4.8913,4.8913,4.8913,4.8913,0.0,0.0,0.0,3.162,3.2152,3.2594,3.2594,3.3011,3.3507,3.3828,3.4122,3.4416,3.4736,3.5231,3.5685,3.6033,3.6299,3.6473,3.6473,3.6727,3.6873,3.6873,3.6885,3.6885,3.6885,3.6913,3.6913,3.6913,3.7195,3.7382,3.7382,3.7635,3.7781,3.7781,3.7781,3.7781,3.7781,3.7781,3.7676,3.741,3.7382,3.7207,3.6913,3.6913,3.6913,3.6913,3.6913,3.6913,3.6913,3.6913,3.6913,3.6913,3.6913,3.6913,3.6913,3.6913,3.6913,3.6913,3.6913,3.6913,3.6913,3.6913,3.6913,3.6913,3.6913,3.6913,3.6913,3.6913,3.7127,3.7382,3.7382,3.7597,3.7702,3.7448,3.7382,3.7301,3.698,3.6913,3.7093,3.7673,3.8003,3.85,3.9369,4.0619,4.181,4.2677,4.4278,4.5842,4.7049,4.7722,4.8312,4.8844,4.8913,4.8913,4.8913,4.8913,4.8913,4.8913,4.8913,4.8913,4.8913,4.8913,4.8913,4.8913,4.8913,4.8913,4.8913,4.8913,4.8913,4.8913,4.8913,4.8913,3.0738,0.0,0.0,0.0,0.0,0.0,3.2594,3.3011,3.3507,3.3828,3.4122,3.4416,3.4736,3.5097,3.5338,3.5431,3.5885,3.622,3.622,3.6259,3.6313,3.6313,3.6473,3.662,3.662,3.6806,3.6913,3.6913,3.698,3.7048,3.7048,3.7342,3.7595,3.7781,3.7781,3.7781,3.7781,3.7595,3.7477,3.741,3.7155,3.698,3.6913,3.6913,3.6913,3.6913,3.6913,3.6913,3.6913,3.6913,3.6913,3.6913,3.6913,3.6913,3.6913,3.6913,3.6913,3.6913,3.6913,3.6913,3.6913,3.6913,3.6913,3.6913,3.6913,3.6913,3.6913,3.6913,3.698,3.7048,3.7048,3.7087,3.7127,3.706,3.7048,3.702,3.6913,3.6913,3.7093,3.7673,3.8224,3.8838,3.9635,4.0941,4.2146,4.3029,4.445,4.5842,4.7049,4.7722,4.8312,4.8844,4.8913,4.8913,4.8913,4.8913,4.8913,4.8913,4.8913,4.8913,4.8913,4.8913,4.8913,4.8913,4.8913,4.8913,4.8913,4.8913,4.8913,4.8913,4.8913,4.8913,0.0,3.1183,3.145,3.1647,0.0,0.0,3.2594,3.3011,3.3467,3.3654,3.3935,3.4189,3.4388,3.4762,3.5043,3.5043,3.5431,3.5752,3.5872,3.6019,3.6099,3.6099,3.6246,3.6326,3.6326,3.6473,3.662,3.6726,3.6726,3.6766,3.6885,3.7088,3.7275,3.742,3.742,3.742,3.742,3.7275,3.7195,3.7195,3.698,3.6913,3.6913,3.6913,3.6913,3.6913,3.6913,3.6913,3.6913,3.6913,3.6913,3.6913,3.6913,3.6913,3.6913,3.6913,3.6913,3.6913,3.6913,3.6913,3.6913,3.6913,3.6913,3.6913,3.6913,3.6913,3.6913,3.6913,3.6913,3.6913,3.6913,3.6913,3.6913,3.6913,3.6913,3.6913,3.6913,3.6913,3.7009,3.737,3.7922,3.8526,3.9088,4.0169,4.1327,4.2403,4.3565,4.4836,4.6259,4.7209,4.7946,4.8517,4.8775,4.8913,4.8913,4.8913,4.8913,4.8913,4.8913,4.8913,4.8913,4.8913,4.8913,4.8913,4.8913,4.8913,4.8913,4.8913,4.8913,4.8913,4.8913,4.8913,3.1132,0.0,0.0,0.0,0.0,0.0,3.2594,3.3011,3.3414,3.3414,3.3668,3.3881,3.3881,3.4361,3.4736,3.4736,3.4937,3.5217,3.5511,3.5805,3.6006,3.6006,3.6033,3.6046,3.6046,3.6086,3.6206,3.6433,3.6473,3.662,3.6833,3.6885,3.6913,3.6913,3.6913,3.6913,3.6913,3.6913,3.6913,3.6913,3.6913,3.6913,3.6913,3.6913,3.6913,3.6913,3.6913,3.6913,3.6913,3.6913,3.6913,3.6913,3.6913,3.6913,3.6913,3.6913,3.6913,3.6913,3.6913,3.6913,3.6913,3.6913,3.6913,3.6913,3.6913,3.6913,3.6913,3.6913,3.6913,3.6913,3.6913,3.6913,3.6913,3.6913,3.6912,3.6953,3.6953,3.6953,3.6953,3.6953,3.741,3.7908,3.8192,3.8978,4.0009,4.1347,4.2297,4.3481,4.5186,4.6445,4.7436,4.8045,4.859,4.8913,4.8913,4.8913,4.8913,4.8913,4.8913,4.8913,4.8913,4.8913,4.8913,4.8913,4.8913,4.8913,4.8913,4.8913,4.8913,4.8913,4.8913,4.8913,0.0,0.0,0.0,0.0,0.0,0.0,3.2594,3.3011,3.3414,3.3414,3.3668,3.3881,3.3881,3.4175,3.4402,3.4402,3.443,3.4657,3.5204,3.5324,3.5364,3.5364,3.5578,3.5685,3.5685,3.5939,3.6126,3.618,3.6366,3.6513,3.658,3.6766,3.6913,3.6913,3.6913,3.6913,3.6913,3.6913,3.6913,3.6913,3.6913,3.6913,3.6913,3.6913,3.6913,3.6913,3.6913,3.6913,3.6913,3.6913,3.6913,3.6913,3.6913,3.6913,3.6913,3.6913,3.6913,3.6913,3.6913,3.6913,3.6913,3.6913,3.6913,3.6913,3.6913,3.6913,3.6913,3.6913,3.6913,3.6913,3.6913,3.6913,3.6913,3.6913,3.7128,3.7301,3.7301,3.7301,3.7301,3.7301,3.7559,3.7963,3.8526,3.9281,4.0282,4.1703,4.2641,4.3741,4.5221,4.6445,4.7436,4.8045,4.859,4.8913,4.8913,4.8913,4.8913,4.8913,4.8913,4.8913,4.8913,4.8913,4.8913,4.8913,4.8913,4.8913,4.8913,4.8913,4.8913,4.8913,4.8913,4.8913,0.0,0.0,0.0,3.1874,0.0,0.0,0.0,3.3118,3.3414,3.3414,3.3534,3.3654,3.3654,3.3895,3.4108,3.4108,3.4203,3.4429,3.4723,3.4883,3.5003,3.5003,3.5231,3.5418,3.5418,3.5551,3.5725,3.5845,3.6126,3.6286,3.6286,3.6553,3.6699,3.6699,3.6833,3.6913,3.6913,3.6913,3.6913,3.6913,3.6913,3.6913,3.6913,3.6913,3.6913,3.6913,3.6913,3.6805,3.6699,3.6699,3.6619,3.6513,3.6647,3.6619,3.65,3.65,3.6579,3.6699,3.6699,3.6806,3.6913,3.6913,3.6913,3.6913,3.6913,3.6913,3.6913,3.6913,3.6913,3.6913,3.6913,3.6913,3.6953,3.7128,3.7275,3.745,3.7569,3.7595,3.7595,3.7595,3.7592,3.774,3.8184,3.87,3.9475,4.0749,4.1776,4.2879,4.4199,4.5503,4.6665,4.7535,4.8149,4.8613,4.8871,4.8913,4.8913,4.8913,4.8913,4.8913,4.8913,4.8913,4.8913,4.8913,4.8913,4.8913,4.8913,4.8913,4.8913,4.8913,4.8913,4.8913,0.0,0.0,0.0,0.0,0.0,3.2741,0.0,0.0,0.0,3.3414,3.3414,3.3414,3.3414,3.3627,3.3801,3.3801,3.3988,3.4123,3.4123,3.4428,3.4642,3.4696,3.4963,3.511,3.511,3.5164,3.5297,3.5498,3.5819,3.5992,3.5992,3.6259,3.646,3.65,3.6727,3.6846,3.6913,3.6913,3.6913,3.6913,3.6913,3.6913,3.6913,3.6913,3.6913,3.6913,3.6846,3.6699,3.65,3.6433,3.6246,3.6019,3.6313,3.6273,3.6099,3.6099,3.6246,3.6433,3.6433,3.662,3.6805,3.6805,3.6873,3.6913,3.6913,3.6913,3.6913,3.6913,3.6913,3.6913,3.6913,3.6913,3.698,3.7315,3.745,3.7555,3.7849,3.7889,3.7889,3.7889,3.7676,3.7564,3.7865,3.8114,3.8641,3.9749,4.0862,4.2009,4.3152,4.4595,4.5962,4.7097,4.7822,4.8409,4.8867,4.8913,4.8913,4.8913,4.8913,4.8913,4.8913,4.8913,4.8913,4.8913,4.8913,4.8913,4.8913,4.8913,4.8913,4.8913,4.8913,4.8913,0.0,0.0,0.0,0.0,3.2743,0.0,0.0,0.0,3.3414,3.3414,0.0,3.3414,3.3414,0.0,0.0,3.3467,3.3494,3.3482,3.3482,3.3788,3.4082,3.4336,3.4655,3.4843,3.4843,3.507,3.5204,3.5244,3.5485,3.5658,3.5658,3.5965,3.6233,3.6473,3.654,3.6659,3.6913,3.6913,3.6913,3.6913,3.6913,3.6913,3.6913,3.6913,3.6913,3.6885,3.6647,3.654,3.6473,3.6233,3.5952,3.5685,3.6033,3.6126,3.6099,3.6099,3.6126,3.6153,3.6153,3.6313,3.654,3.654,3.6727,3.6913,3.6913,3.6913,3.6913,3.6913,3.6913,3.6913,3.6913,3.6913,3.698,3.7315,3.7597,3.7849,3.8172,3.8252,3.8252,3.8252,3.7998,3.786,3.8193,3.8474,3.8936,3.9778,4.1058,4.2251,4.3185,4.4843,4.6249,4.7116,4.8069,4.8694,4.8887,4.8913,4.8913,4.8913,4.8913,4.8913,4.8913,4.8913,4.8913,4.8913,4.8913,4.8913,4.8913,4.8913,4.8913,4.8913,4.8913,4.8913,0.0,0.0,0.0,0.0,0.0,0.0,0.0,0.0,3.3414,0.0,0.0,0.0,0.0,0.0,0.0,0.0,3.3414,3.3414,3.3414,3.3521,3.3721,3.4028,3.4322,3.4602,3.4776,3.5057,3.5191,3.5191,3.5311,3.5378,3.5378,3.5658,3.5872,3.5965,3.6166,3.6393,3.6659,3.6659,3.6754,3.6913,3.6913,3.6913,3.6913,3.6913,3.6834,3.6659,3.654,3.6313,3.5965,3.5859,3.5645,3.5391,3.5511,3.5591,3.5591,3.5591,3.5672,3.5819,3.5819,3.6006,3.6286,3.646,3.6687,3.6913,3.6913,3.6913,3.6913,3.6913,3.6913,3.6913,3.6913,3.6913,3.702,3.7529,3.7714,3.7928,3.8437,3.8544,3.8544,3.8544,3.829,3.8135,3.8272,3.84,3.8639,3.9127,4.0112,4.1195,4.2381,4.3642,4.487,4.6024,4.7147,4.7983,4.8397,4.8729,4.8913,4.8913,4.8913,4.8913,4.8913,4.8913,4.8913,4.8913,4.8913,4.8913,4.8913,4.8913,4.8913,4.8913,4.8913,4.8913,3.2688,0.0,0.0,0.0,0.0,0.0,0.0,0.0,0.0,0.0,0.0,0.0,0.0,0.0,0.0,0.0,0.0,3.3414,3.3414,3.3414,3.3494,3.3734,3.4015,3.4349,3.4749,3.4976,3.511,3.5191,3.5191,3.5191,3.5191,3.5364,3.5525,3.5605,3.5845,3.6126,3.65,3.65,3.6619,3.6913,3.6913,3.6913,3.6913,3.6805,3.6686,3.6473,3.634,3.5992,3.5591,3.5511,3.5391,3.5191,3.5191,3.5191,3.5191,3.5191,3.5324,3.5485,3.5485,3.5698,3.6006,3.638,3.6619,3.6806,3.6873,3.6913,3.6913,3.6913,3.6913,3.6913,3.6913,3.6913,3.7032,3.7555,3.7742,3.7956,3.8477,3.8651,3.8689,3.8689,3.8544,3.8399,3.8321,3.8292,3.8431,3.8764,3.9425,4.0428,4.1946,4.2908,4.406,4.5569,4.6706,4.7605,4.8198,4.8648,4.8913,4.8913,4.8913,4.8913,4.8913,4.8913,4.8913,4.8913,4.8913,4.8913,4.8913,4.8913,4.8913,4.8913,4.8913,4.8913,0.0,0.0,0.0,3.332,0.0,0.0,0.0,0.0,3.3414,0.0,0.0,0.0,0.0,0.0,0.0,0.0,0.0,0.0,0.0,0.0,0.0,3.3402,3.3708,3.4161,3.4736,3.4802,3.4923,3.5177,3.5191,3.5191,3.5191,3.5204,3.5338,3.5591,3.5618,3.5898,3.6473,3.65,3.6619,3.6913,3.6913,3.6913,3.6885,3.6619,3.6513,3.6473,3.5872,3.5618,3.5578,3.5324,3.5204,3.5191,3.5191,3.5191,3.5191,3.5191,3.5204,3.5204,3.5204,3.5404,3.5712,3.6313,3.6513,3.6553,3.6805,3.6913,3.6913,3.6913,3.6913,3.6913,3.6913,3.6913,3.698,3.7343,3.7595,3.7889,3.8252,3.8504,3.8689,3.8689,3.8689,3.8582,3.8348,3.8292,3.8472,3.9001,3.9541,4.0543,4.2245,4.3294,4.4572,4.6368,4.7308,4.8037,4.862,4.8823,4.8913,4.8913,4.8913,4.8913,4.8913,4.8913,4.8913,4.8913,4.8913,4.8913,4.8913,4.8913,4.8913,4.8913,4.8913,4.8913,0.0,0.0,3.3654,3.3935,0.0,0.0,0.0,0.0,0.0,0.0,0.0,0.0,0.0,0.0,0.0,0.0,0.0,0.0,0.0,0.0,0.0,0.0,0.0,0.0,0.0,0.0,3.4829,3.4936,3.5084,3.5191,3.5191,3.5191,3.5244,3.5338,3.5351,3.5525,3.5898,3.5898,3.6139,3.6647,3.6647,3.6647,3.6619,3.654,3.6299,3.5885,3.5685,3.5498,3.5338,3.5231,3.5191,3.5191,3.5191,3.5191,3.5191,3.5191,3.5191,3.5191,3.5191,3.5391,3.5631,3.5832,3.6165,3.6513,3.662,3.6766,3.6913,3.6913,3.6913,3.6913,3.6913,3.6913,3.698,3.7315,3.7595,3.7889,3.824,3.8504,3.8689,3.8689,3.8689,3.8662,3.8584,3.8409,3.8428,3.8774,3.914,3.9795,4.0954,4.2024,4.3092,4.4287,4.5474,4.6621,4.7624,4.8451,4.8913,4.8913,4.8913,4.8913,4.8913,4.8913,4.8913,4.8913,4.8913,4.8729,4.8358,4.8358,4.8034,4.7382,4.7382,4.7922,3.3988,3.4042,0.0,3.4243,3.4296,0.0,3.4296,0.0,0.0,0.0,0.0,0.0,0.0,0.0,0.0,0.0,0.0,0.0,0.0,0.0,0.0,0.0,0.0,0.0,0.0,0.0,0.0,3.4776,3.4963,3.5084,3.5191,3.5191,3.5191,3.5191,3.5191,3.5338,3.5605,3.5605,3.5872,3.6353,3.6353,3.6353,3.6353,3.6246,3.5965,3.5591,3.5498,3.5364,3.5191,3.5191,3.5191,3.5191,3.5191,3.5191,3.5191,3.5191,3.5191,3.5191,3.5191,3.5324,3.5471,3.5565,3.5925,3.6366,3.6473,3.6699,3.6913,3.6913,3.6913,3.6913,3.6913,3.6913,3.6953,3.7168,3.7448,3.7742,3.8036,3.8359,3.8584,3.8691,3.8689,3.8689,3.8689,3.8544,3.8518,3.8791,3.9096,3.96,4.0475,4.1627,4.2714,4.3613,4.4996,4.6348,4.7619,4.8451,4.8821,4.8636,4.8613,4.8474,4.8084,4.8084,4.7991,4.7829,4.7829,4.7662,4.7313,4.7022,4.6509,4.5879,4.5568,4.596]}]]